GFSSW_sfc_rhum_000.txt.gz
RH
86 85 78 79 76 76 76 78 79 81 82 84 86 84 87 87 90 54 23 24 26 58 49 13 12 12 12 11 7 6 11 15 12 12 10 8 7 6 6 12 11 15 16 24 28
83 79 79 77 83 78 81 77 79 84 84 85 85 85 86 88 53 23 34 59 68 73 16 13 12 11 11 9 7 7 10 8 6 6 6 6 6 6 7 11 11 14 19 29 31
83 81 78 78 77 77 78 78 79 83 84 85 85 86 86 82 35 15 61 55 64 67 16 12 9 8 9 7 7 7 9 6 5 6 4 5 5 4 7 9 9 13 14 29 34
82 81 81 82 78 78 78 79 81 82 85 84 84 86 87 61 23 10 65 60 69 23 16 10 8 9 8 8 6 7 6 5 5 5 4 4 5 5 6 8 8 10 13 26 28
83 87 88 79 79 79 79 80 82 84 85 85 86 86 66 33 14 9 36 48 20 17 11 8 9 8 8 6 6 7 6 6 5 5 6 7 7 8 7 7 8 9 15 23 26
92 92 90 85 81 80 81 82 84 85 85 86 86 90 49 26 8 7 8 7 7 8 6 6 7 6 6 6 6 6 6 6 7 8 8 8 8 10 8 6 7 10 14 19 24
91 93 93 84 82 82 84 85 85 85 88 85 86 57 32 17 7 6 7 7 7 8 8 7 7 6 7 9 7 7 9 9 10 10 10 9 11 10 9 8 8 8 11 14 19
90 92 94 94 84 84 84 86 87 89 89 87 88 50 25 9 8 7 6 6 6 7 8 7 8 9 10 8 8 9 10 13 10 10 11 11 14 9 9 9 10 9 10 11 15
88 91 93 94 92 88 88 89 91 90 89 86 68 46 19 19 9 7 7 8 7 8 8 7 9 9 9 10 12 12 13 13 14 9 11 11 14 10 9 11 11 11 11 10 12
82 87 91 93 94 94 94 92 89 90 80 46 32 30 11 10 9 8 7 9 9 10 10 11 10 11 10 11 17 15 11 9 9 12 9 10 10 11 11 11 12 11 11 12 12
80 82 88 90 92 92 87 56 35 31 24 16 12 12 8 6 8 8 8 9 11 12 16 10 13 18 17 14 12 10 10 10 12 12 13 12 12 12 12 12 15 14 15 15 23
83 80 82 88 90 92 77 34 26 19 19 12 12 11 10 9 10 8 8 12 12 14 11 10 17 14 12 12 12 12 12 12 12 12 12 13 12 13 14 15 15 16 19 24 26
84 81 85 86 93 83 42 30 24 28 18 15 12 12 13 11 13 12 12 10 11 12 9 20 17 14 14 15 16 14 16 22 20 15 13 14 15 16 15 16 16 18 19 21 24
88 85 88 91 74 32 29 25 29 36 23 14 14 13 11 11 16 11 11 13 11 11 13 17 15 16 16 19 20 20 20 20 18 18 19 13 20 19 17 19 20 21 23 22 22
88 85 93 97 62 26 30 29 33 41 61 16 14 11 10 16 14 14 12 13 13 15 16 21 20 20 21 22 20 24 22 20 20 20 20 16 20 23 17 21 23 25 24 26 28
87 83 91 59 59 32 33 38 42 72 59 18 14 16 16 15 15 14 14 14 16 15 17 19 16 20 22 20 19 21 23 22 22 24 49 20 22 37 23 23 25 25 26 27 27
88 87 69 40 41 40 49 40 56 62 18 19 18 17 17 19 18 17 19 22 22 26 26 20 21 20 19 24 22 19 25 48 60 62 56 25 23 33 24 23 24 26 27 30 33
83 88 67 40 37 52 46 39 56 20 18 13 16 18 21 19 21 20 20 24 22 25 20 25 39 23 20 25 25 25 26 59 62 64 43 20 21 30 24 23 23 24 25 27 31
88 61 49 57 54 53 40 91 49 18 15 16 16 21 23 21 22 23 25 24 24 25 29 31 32 22 22 21 21 29 37 23 45 65 63 24 28 26 23 24 23 24 24 26 29
40 36 33 51 54 53 57 59 24 17 13 15 21 20 24 21 23 23 24 25 26 24 20 24 38 22 20 22 24 25 21 41 48 71 58 29 26 42 30 27 24 23 24 25 28
57 31 54 46 53 35 64 39 21 16 19 16 19 21 21 23 21 25 27 27 25 25 22 24 32 30 24 29 29 28 30 29 25 45 60 58 32 23 26 24 26 27 25 29 31
52 40 52 54 35 34 41 24 39 23 22 24 22 22 24 25 27 30 32 34 27 26 32 29 36 66 26 24 23 24 28 26 68 56 70 76 49 22 26 30 29 29 30 32 35
37 44 47 50 59 87 31 27 22 22 21 23 28 27 25 30 39 31 40 36 33 36 43 35 49 63 38 35 28 26 26 25 42 67 64 89 55 24 40 31 27 28 32 35 37
37 62 36 37 39 36 34 33 34 26 28 25 27 26 30 34 30 37 43 40 37 38 67 53 31 49 55 32 24 30 23 22 27 70 61 58 37 29 32 34 29 30 36 37 38
38 42 29 82 56 32 29 27 31 35 26 25 28 27 32 47 37 36 37 39 34 56 39 38 61 44 36 27 24 24 25 24 25 32 51 42 32 27 31 31 42 42 41 41 45
41 40 37 37 36 32 46 30 27 24 29 28 29 28 28 49 33 39 29 28 34 36 36 42 80 82 74 28 27 36 28 26 24 23 26 29 32 27 37 38 44 46 47 51 49
37 39 36 59 38 44 47 31 27 33 36 22 25 32 54 36 35 35 35 34 32 39 56 81 91 78 80 58 67 87 64 30 26 25 30 54 35 37 44 45 44 49 51 52 48

GFSSW_sfc_rhum_003.txt.gz
RH
79 85 86 87 83 76 76 76 78 79 82 83 84 86 84 86 89 80 52 36 36 65 50 20 21 22 22 20 17 12 15 18 15 21 15 12 10 8 12 14 19 27 35 42 37
78 78 78 79 76 76 77 80 84 80 86 87 87 86 84 86 77 44 39 52 66 68 22 19 19 18 21 19 16 12 17 13 9 10 11 10 9 8 12 15 20 41 36 35 35
78 78 78 78 80 79 78 81 80 81 86 88 87 84 86 84 67 27 54 65 75 69 23 19 18 17 18 17 13 12 12 8 7 7 8 8 8 8 15 18 16 43 42 39 40
79 80 80 79 80 78 78 79 81 83 85 85 84 84 86 85 42 19 60 68 76 42 29 22 20 15 15 16 10 11 8 7 8 7 6 7 7 8 10 12 12 22 38 39 41
82 82 82 83 82 79 79 80 81 82 84 85 84 84 86 66 32 12 68 62 41 25 24 22 20 14 15 13 10 9 9 8 7 7 11 8 8 10 9 10 11 14 34 40 38
84 84 92 90 89 80 80 81 82 84 85 85 84 86 82 41 14 11 12 29 19 22 20 18 13 10 11 9 10 10 8 8 8 11 13 13 13 13 13 10 9 18 33 34 34
85 85 92 93 87 82 82 83 84 86 87 86 85 76 57 40 13 12 10 11 11 12 13 13 12 13 13 14 12 10 12 11 12 14 14 14 17 15 13 9 9 12 18 32 33
91 94 95 95 84 83 85 85 86 87 88 86 86 78 49 17 13 9 10 9 9 9 11 11 12 14 16 12 11 13 17 20 15 15 15 14 20 15 13 12 13 13 13 13 29
92 92 94 94 93 86 87 88 88 88 88 87 92 82 38 21 14 11 11 11 11 12 13 7 14 19 12 16 20 21 22 22 17 14 18 18 21 15 14 14 15 16 14 14 18
90 89 91 93 94 94 92 91 90 90 87 69 53 50 33 15 13 11 11 11 17 17 16 18 19 21 21 24 28 24 21 23 23 17 14 15 20 19 16 16 18 21 31 32 42
88 86 88 92 94 95 95 92 65 54 67 35 28 29 11 10 11 12 12 13 16 20 25 21 28 32 27 22 17 17 18 22 22 16 21 18 22 21 22 23 27 38 41 40 40
87 86 86 89 92 93 96 77 46 43 37 27 15 16 15 12 14 12 13 22 23 24 21 21 30 22 17 20 21 17 22 29 21 16 18 21 23 23 23 27 30 36 37 39 41
87 85 84 90 93 97 84 57 41 50 35 24 18 16 18 16 20 17 16 19 18 20 27 30 25 17 19 26 26 26 30 30 28 21 20 23 28 26 25 25 25 28 31 35 40
87 86 90 96 81 77 69 43 48 63 42 22 20 18 15 17 23 14 16 19 21 26 25 24 22 22 23 26 26 35 29 28 25 29 33 21 41 31 29 32 31 32 36 39 41
87 86 94 90 80 60 47 48 52 57 73 22 20 16 16 22 19 21 18 21 25 20 26 33 29 31 30 28 26 35 33 32 32 34 36 28 40 32 28 36 36 37 36 42 45
86 86 93 79 90 65 62 67 50 80 75 29 19 23 20 20 22 18 21 24 26 23 25 27 25 28 29 25 26 25 34 35 36 40 64 36 44 57 50 37 39 38 39 40 43
91 90 86 59 73 67 78 58 77 82 26 24 25 22 23 28 23 23 28 33 38 40 42 29 30 29 26 34 32 34 43 76 71 80 72 41 42 66 40 33 37 43 46 46 47
90 90 81 70 78 78 74 69 77 34 28 19 23 24 28 27 28 30 31 38 30 38 40 42 57 31 27 32 37 38 42 73 74 87 62 27 47 49 33 32 33 33 39 42 43
90 88 85 82 76 76 73 95 74 35 19 22 23 30 30 29 33 31 37 35 33 32 42 53 43 30 25 26 32 40 49 34 63 78 75 48 42 35 31 32 30 30 30 42 46
83 79 72 74 76 76 85 82 44 22 20 21 30 29 34 27 33 35 39 36 38 32 31 34 50 29 27 30 31 33 29 58 67 70 68 49 55 65 48 45 31 33 39 40 42
86 59 74 73 72 66 90 71 32 25 30 32 32 32 32 31 30 37 40 37 34 33 33 44 53 44 35 39 42 41 45 43 42 66 80 86 56 45 44 41 42 43 44 48 49
81 71 76 75 58 71 69 48 40 31 30 32 36 31 37 35 42 45 51 44 38 44 42 42 56 76 41 33 31 35 42 46 80 73 88 89 64 46 43 38 39 40 44 48 47
70 80 72 79 77 96 55 37 31 30 32 35 37 36 35 46 52 53 54 51 50 50 60 54 63 81 59 49 39 39 34 49 66 75 65 88 77 40 44 39 36 48 48 48 53
80 79 75 75 72 65 46 48 44 36 36 33 35 39 43 45 45 60 58 54 52 47 70 63 50 59 76 49 41 43 34 37 60 88 79 76 53 41 53 51 55 56 54 57 59
70 75 56 86 74 63 51 43 45 49 39 37 42 40 44 56 53 63 56 54 53 58 54 57 78 68 52 42 38 36 35 34 36 47 65 54 50 57 59 57 58 57 58 57 58
78 71 59 58 45 58 64 44 44 37 39 40 42 40 46 56 53 60 51 52 57 50 58 75 93 86 76 53 52 54 47 44 38 36 37 41 57 52 53 53 58 62 62 60 57
69 67 72 86 60 70 71 47 44 46 45 40 45 59 69 63 62 57 53 53 57 57 84 92 96 92 92 80 86 78 62 51 41 42 43 65 61 60 62 60 73 70 62 60 61

GFSSW_sfc_rhum_006.txt.gz
RH
77 77 78 80 87 87 82 76 78 79 78 80 81 82 83 85 89 88 56 38 50 65 53 23 25 26 30 29 22 17 21 21 18 20 16 12 11 12 19 26 35 37 46 36 40
76 77 78 78 78 78 75 77 79 87 79 85 86 82 83 85 84 63 50 64 72 70 21 20 21 24 28 27 21 19 18 17 12 15 12 11 9 10 19 42 53 52 43 39 34
82 77 78 78 78 78 77 78 79 80 80 86 82 82 84 85 73 38 60 58 72 64 23 20 22 20 25 25 20 19 14 9 10 10 9 9 9 11 18 38 48 50 45 39 36
80 79 80 79 79 78 77 79 80 80 80 80 81 82 85 91 43 21 56 68 77 44 30 25 24 28 26 22 17 13 12 8 9 8 9 9 8 11 18 16 40 40 38 37 40
82 81 81 81 81 84 78 80 80 80 80 81 81 83 90 72 40 18 64 74 57 33 30 24 25 20 17 16 11 11 10 8 9 12 11 8 8 8 15 17 38 38 39 41 39
83 83 84 84 88 89 80 82 81 82 82 81 82 85 83 47 21 16 25 38 25 25 24 26 21 16 16 15 12 12 9 9 8 14 13 11 14 13 13 19 43 41 44 43 41
85 84 85 86 93 90 80 82 82 83 81 83 82 80 75 46 24 22 13 16 20 23 22 15 20 17 19 14 12 11 11 12 12 16 16 14 19 17 13 16 42 44 44 43 41
86 88 93 96 86 82 82 83 84 83 82 82 82 86 51 24 23 12 12 11 11 12 14 16 16 18 14 15 13 14 18 18 17 17 17 14 19 16 14 11 19 36 41 41 42
92 93 93 95 93 85 85 86 85 84 84 83 93 90 33 28 14 10 13 13 13 13 14 9 15 17 16 18 20 23 21 26 21 17 19 20 23 18 16 13 13 18 33 42 47
92 90 91 94 94 92 88 87 88 87 87 74 62 61 37 28 14 12 12 14 20 18 18 16 25 24 26 23 23 23 24 30 22 20 22 21 25 23 22 33 47 52 52 54 53
90 89 89 92 94 95 95 95 63 56 70 29 32 36 23 17 13 14 13 14 19 19 27 25 27 29 26 23 20 20 24 26 26 18 18 26 33 33 43 48 48 52 57 55 53
90 89 88 92 94 95 94 74 52 44 42 38 37 30 18 14 19 14 16 22 26 26 26 28 32 23 21 25 27 27 28 30 24 20 18 28 32 38 42 46 45 50 54 55 53
91 88 87 92 94 93 77 58 48 57 46 24 21 19 20 19 21 19 20 25 24 26 30 32 24 22 26 29 30 37 33 34 31 27 22 27 34 39 36 37 37 43 50 53 54
91 87 90 95 79 80 63 42 50 52 41 23 22 19 17 20 25 16 17 22 24 29 27 26 25 27 31 30 34 44 35 31 30 32 25 28 47 39 43 43 44 50 56 55 56
90 89 94 90 75 72 48 62 65 54 61 23 25 18 18 24 22 22 20 24 31 23 30 35 34 34 33 34 32 37 36 36 36 39 41 36 46 42 40 45 48 53 55 60 58
90 90 95 86 90 66 73 77 48 79 62 30 23 23 24 25 25 20 23 25 28 27 28 30 31 31 34 31 32 31 40 43 45 48 64 43 52 56 53 44 45 48 52 54 59
92 92 90 67 72 73 83 51 73 74 36 27 27 27 26 30 30 27 33 36 42 42 43 35 35 30 30 36 33 34 53 74 70 78 71 46 61 63 47 40 46 53 53 52 55
92 95 86 66 86 80 66 61 74 43 32 25 26 30 30 30 35 35 37 41 34 41 45 48 58 35 28 37 40 42 48 72 71 79 60 42 61 52 41 45 44 42 49 49 50
91 91 92 80 81 74 69 91 73 48 24 26 28 35 37 31 32 34 40 40 39 42 45 53 48 35 31 31 38 44 45 40 64 80 72 60 49 40 36 36 33 33 39 52 55
82 79 68 76 78 71 85 83 57 34 30 26 34 34 38 32 36 41 45 42 44 37 40 46 49 35 29 34 35 29 34 58 69 66 70 58 60 58 52 45 42 52 56 57 58
83 54 54 81 59 66 86 78 45 31 34 30 36 33 34 35 36 46 49 44 44 41 38 53 48 44 43 43 46 44 48 51 53 72 77 84 62 49 53 48 55 57 56 58 61
83 69 75 50 41 84 72 54 42 33 33 36 42 43 36 44 56 59 58 53 51 54 44 52 58 75 47 36 35 39 48 53 75 70 90 89 64 44 49 48 51 52 53 54 59
76 84 76 51 58 88 64 42 36 37 37 39 43 44 44 49 63 62 61 60 50 52 60 51 62 77 62 53 42 42 42 59 66 75 66 82 65 45 54 51 53 59 60 65 65
82 81 73 82 74 63 61 51 48 42 41 38 39 41 45 52 58 64 65 57 50 48 71 64 66 61 75 57 49 45 41 56 59 83 75 74 50 62 65 66 65 68 69 69 65
84 69 56 82 73 69 60 49 50 49 42 38 40 44 48 62 65 70 62 60 51 57 59 62 72 69 54 53 49 46 48 48 47 58 66 57 59 69 67 69 68 68 65 61 62
74 73 72 56 51 61 70 54 47 46 44 47 48 52 52 61 56 67 57 60 59 57 73 80 81 85 71 66 69 59 52 53 49 42 46 67 76 64 64 71 73 68 66 64 60
70 77 64 87 61 69 72 50 50 48 49 45 56 67 70 68 66 63 64 64 59 62 86 90 93 83 80 89 83 70 58 56 50 57 49 63 72 68 76 76 76 71 66 64 64

GFSSW_sfc_rhum_009.txt.gz
RH
76 76 77 78 78 78 82 82 76 79 78 77 78 80 81 83 87 90 76 40 54 66 53 28 28 28 30 34 28 22 26 25 19 26 30 25 15 17 29 46 42 46 49 60 72
77 76 77 78 79 78 78 77 77 83 80 78 79 80 82 83 92 79 59 67 73 75 23 23 23 28 33 32 28 25 29 21 14 19 20 12 23 25 38 50 57 50 45 59 70
79 79 78 79 78 78 79 84 78 83 81 78 79 81 82 83 83 40 61 62 76 66 22 21 22 23 32 29 25 21 17 12 10 12 11 11 13 18 45 57 55 51 51 58 69
79 80 80 79 79 79 81 78 84 82 82 79 80 81 82 94 38 27 61 78 79 33 26 24 27 30 31 29 23 21 12 11 10 11 9 10 10 20 24 41 48 40 42 47 51
81 82 81 81 81 80 83 80 84 78 82 78 80 81 93 77 42 23 80 78 43 31 27 25 28 25 20 19 23 14 12 11 13 10 10 8 10 12 16 31 45 38 37 41 42
84 82 83 82 82 85 86 80 80 79 79 80 80 81 85 41 20 20 41 39 34 32 31 26 22 24 23 17 12 12 13 11 13 14 12 10 15 16 17 54 48 40 38 37 36
84 83 83 83 83 88 83 83 80 81 80 82 81 80 73 33 27 30 24 29 28 26 24 26 23 23 18 21 13 11 12 13 13 17 16 16 21 17 19 50 49 44 42 45 41
84 85 84 85 86 85 82 81 81 81 81 81 83 87 46 26 30 23 14 13 15 23 21 14 20 20 18 15 16 17 19 18 15 19 20 14 16 19 21 53 55 54 57 52 51
86 87 95 96 94 84 83 83 83 82 81 82 94 92 34 27 18 13 12 13 16 16 17 11 17 20 18 18 20 24 23 26 21 18 21 19 24 20 18 41 39 55 63 57 63
92 95 93 95 96 87 85 85 84 87 85 77 70 62 35 22 18 14 13 15 20 23 18 20 26 24 27 18 18 23 26 44 22 20 24 25 31 40 49 51 66 74 65 66 70
94 92 91 94 95 93 90 93 66 64 83 29 32 39 32 24 14 14 14 16 20 22 27 28 27 28 28 28 22 24 27 25 28 21 34 44 51 61 61 64 69 65 64 64 66
92 89 91 94 95 96 97 77 51 52 58 43 42 38 30 22 20 16 18 21 23 28 29 28 33 28 28 31 29 28 30 35 28 26 36 48 52 53 53 63 67 63 62 61 60
90 88 90 94 95 98 76 51 55 52 57 27 34 30 20 18 21 20 21 26 25 29 29 32 30 24 28 33 34 41 39 36 30 34 38 41 49 45 42 50 56 63 64 59 60
89 88 94 95 86 77 63 50 58 47 42 26 24 18 20 22 24 18 20 22 28 31 28 30 34 31 33 32 37 43 38 34 30 40 48 39 68 51 53 60 63 65 66 67 61
89 90 96 87 76 80 54 73 66 50 58 25 25 18 19 24 23 19 22 26 27 29 32 39 39 36 34 36 36 41 38 36 37 40 42 43 56 56 50 64 66 68 62 59 58
89 94 98 91 96 66 77 68 45 76 55 35 26 26 23 26 27 24 28 28 30 32 32 36 34 34 37 35 35 33 41 48 56 52 65 49 56 60 58 55 59 58 59 57 64
90 95 86 72 73 81 78 49 67 81 37 31 31 29 30 33 32 33 36 39 41 43 49 38 38 34 36 41 39 40 51 71 68 77 73 52 61 63 46 46 51 56 59 62 66
94 96 92 74 89 82 59 51 74 46 39 29 30 33 34 35 38 38 40 41 38 44 49 51 58 37 30 40 43 47 51 73 65 81 60 49 67 56 48 50 48 52 56 60 68
96 94 94 90 88 71 64 86 71 53 29 30 34 38 40 35 35 40 47 42 43 43 49 53 50 37 34 34 41 48 51 47 72 81 75 67 55 44 48 54 47 51 55 65 64
88 78 70 82 71 67 82 82 66 47 32 30 39 38 39 36 41 46 50 47 48 43 44 46 47 40 31 38 38 36 39 58 71 65 72 66 66 66 51 52 50 56 66 68 66
72 49 48 78 50 58 80 79 61 31 38 32 34 39 38 38 43 52 55 51 54 48 44 55 45 45 43 46 49 46 49 56 61 75 76 86 73 52 52 52 62 70 68 66 69
74 50 69 48 46 89 70 61 54 35 34 41 43 41 41 52 60 61 60 60 56 58 48 58 59 76 50 41 43 44 53 52 70 68 90 88 65 51 56 59 60 63 66 70 68
75 92 81 46 63 88 59 56 43 39 39 43 45 48 51 60 65 66 65 61 51 53 58 52 64 77 64 54 44 47 52 60 65 78 79 79 60 54 56 61 63 68 69 70 68
76 87 75 81 66 45 55 52 52 44 44 42 44 46 50 62 65 69 68 62 54 51 72 64 68 59 70 60 54 46 47 58 57 79 72 74 56 71 71 70 73 76 74 73 69
83 67 64 88 83 81 60 57 52 50 45 41 43 47 52 67 70 75 69 62 53 63 70 61 64 71 63 63 54 51 46 56 60 61 67 59 60 61 74 77 77 75 73 68 66
85 72 74 57 54 66 77 59 48 49 46 50 48 61 55 61 55 69 59 60 58 68 81 73 84 82 77 71 72 59 48 51 52 50 59 70 80 72 72 78 77 73 70 68 60
84 86 64 89 72 72 77 54 50 50 58 53 57 63 69 70 68 72 72 68 64 68 86 86 93 70 59 87 76 57 57 53 51 59 59 82 70 74 83 78 79 76 71 67 59

GFSSW_sfc_rhum_012.txt.gz
RH
77 78 77 78 82 84 82 77 81 77 76 76 77 78 80 81 84 91 85 44 58 66 47 30 26 32 36 37 30 26 28 27 38 40 38 28 22 28 40 48 47 47 67 79 91
77 77 77 82 84 85 84 78 83 77 77 76 77 79 80 82 89 92 64 72 75 67 24 26 30 32 36 35 29 28 31 25 20 31 39 34 22 31 48 53 58 63 82 96 92
80 80 78 82 85 85 86 86 84 77 76 76 77 80 80 81 83 41 60 71 76 59 24 23 24 27 35 32 29 29 26 17 14 24 27 17 29 26 49 61 58 71 92 95 98
79 80 82 79 81 84 85 87 79 76 76 76 77 79 80 86 38 28 75 74 78 42 24 25 28 33 34 30 26 24 16 13 10 17 15 18 15 39 36 40 48 64 77 83 91
81 80 80 80 82 79 87 87 78 76 77 77 78 79 93 84 50 44 83 79 56 29 26 26 28 26 26 28 20 20 14 12 12 11 12 10 14 31 22 43 46 61 68 72 74
84 81 84 81 82 82 80 85 78 77 78 78 78 79 92 52 23 39 58 45 36 30 30 26 26 24 27 20 18 17 12 12 14 11 11 11 15 16 26 59 49 56 64 65 64
82 83 83 83 85 81 86 80 79 79 78 78 79 83 89 41 24 32 34 35 36 29 29 29 24 24 26 25 15 13 11 13 13 18 16 16 19 20 42 54 50 48 54 53 47
85 83 84 88 82 82 81 80 80 80 78 81 79 88 64 28 32 30 25 17 29 28 25 23 26 26 24 21 19 16 20 19 16 20 21 13 16 21 64 58 62 60 58 59 63
84 85 85 90 88 84 82 82 81 80 80 80 94 94 39 27 24 16 16 16 16 25 26 17 23 22 16 20 21 23 24 24 22 21 21 18 30 42 38 61 62 65 61 65 71
87 87 93 96 95 84 83 84 84 86 84 77 78 68 33 21 23 14 14 16 22 23 24 23 25 23 26 17 23 21 24 46 24 33 36 34 72 69 68 60 75 79 78 82 79
92 95 94 94 96 88 88 93 81 78 92 33 35 34 33 24 22 16 14 18 22 22 28 28 27 29 29 25 18 22 24 26 30 29 53 67 72 71 79 79 79 81 81 78 77
94 93 92 94 96 90 95 89 48 52 61 53 47 41 35 30 25 18 20 22 24 27 30 29 32 29 32 32 31 30 32 35 36 38 54 62 60 58 59 72 79 78 78 76 72
94 92 92 96 97 97 98 57 53 56 59 35 41 36 27 23 22 20 23 26 26 28 30 32 31 31 35 35 35 42 35 38 37 47 51 54 59 58 55 66 67 69 71 68 70
93 91 94 96 94 87 71 47 64 52 43 29 25 19 22 23 24 20 22 23 29 32 34 39 36 33 34 34 39 43 40 36 43 48 56 49 80 63 67 73 72 74 73 76 66
92 92 96 83 80 86 57 78 73 46 57 26 25 18 21 25 20 23 29 25 30 33 35 43 40 37 35 39 38 43 39 37 39 43 44 51 68 62 65 75 73 75 73 75 69
92 93 95 95 97 70 76 60 44 74 56 34 27 26 27 28 29 28 30 30 31 37 38 41 37 36 39 38 37 38 44 50 57 55 62 51 58 66 72 66 70 68 68 70 72
92 96 95 74 75 87 75 46 66 80 39 34 32 29 31 37 36 36 39 43 40 45 51 40 40 36 38 42 41 46 50 71 67 77 74 57 61 57 52 56 60 63 67 70 80
94 98 94 81 86 85 52 47 67 50 43 32 34 33 36 38 41 40 41 44 41 45 52 53 56 40 33 42 44 51 51 71 64 84 68 55 68 58 50 48 53 58 64 69 72
97 99 96 94 88 75 52 76 63 55 34 34 35 39 44 40 39 44 50 45 49 47 49 54 51 39 37 38 43 51 53 51 74 81 75 71 58 54 63 61 59 59 62 73 77
96 92 80 88 78 65 73 71 66 55 38 35 40 41 45 43 45 49 53 53 51 52 48 50 47 44 36 41 40 44 43 56 72 63 72 71 72 71 67 64 60 63 69 74 74
68 57 53 82 52 55 70 70 65 51 40 34 39 43 43 42 48 56 55 56 59 54 50 51 46 46 45 48 51 48 53 62 62 75 74 86 73 59 59 57 60 67 72 74 73
63 54 67 52 50 86 64 65 61 38 42 46 42 41 42 57 61 61 57 57 58 62 50 59 61 74 50 46 51 48 54 51 66 58 89 88 64 53 60 55 64 73 71 76 74
74 94 87 50 65 89 59 59 53 40 45 45 48 49 56 64 66 67 66 61 52 56 54 51 65 79 58 49 45 51 62 61 65 80 79 84 63 60 69 70 70 79 78 76 74
82 93 82 76 69 48 50 53 52 47 48 44 50 50 59 68 68 71 70 62 57 61 77 62 66 58 64 56 58 53 57 58 55 78 72 76 54 70 70 73 81 82 80 77 73
78 78 78 92 87 61 49 57 55 54 47 44 48 49 56 69 73 76 70 63 55 72 75 57 62 70 73 70 61 54 47 62 56 57 60 58 58 51 67 73 80 79 78 75 71
88 72 68 72 79 72 76 56 52 52 51 51 48 63 58 64 54 69 60 57 50 76 80 69 76 77 79 76 72 62 51 53 60 58 64 66 63 64 81 83 83 78 76 75 70
94 85 62 89 80 80 83 62 54 54 64 60 53 62 67 72 73 77 73 73 70 71 83 78 90 64 53 82 68 56 52 52 54 56 55 71 55 83 86 82 81 83 76 74 68

GFSSW_sfc_rhum_015.txt.gz
RH
76 76 77 77 81 82 83 78 77 76 79 77 76 77 77 79 81 85 76 37 52 75 54 24 20 23 25 25 20 18 20 30 34 34 47 38 28 28 38 43 44 44 65 71 83
77 77 76 77 79 87 82 81 84 83 81 76 76 76 78 79 82 84 57 72 76 74 20 19 21 26 26 25 22 19 22 20 22 31 36 32 26 32 44 45 51 81 85 79 85
78 80 80 79 83 84 83 87 86 83 79 76 76 77 78 77 80 34 65 72 76 55 19 19 23 24 26 23 22 22 20 18 14 27 25 25 25 30 43 46 43 69 89 83 86
79 79 80 79 79 84 79 85 87 83 76 75 76 77 78 81 29 19 82 78 73 30 21 22 22 25 26 24 20 18 17 11 9 25 26 26 20 37 37 34 37 64 81 83 83
84 80 81 80 80 80 79 86 81 77 76 75 78 77 84 77 49 42 82 77 55 27 22 23 24 24 26 25 20 19 16 12 10 17 17 15 21 32 28 42 48 68 77 82 84
84 82 82 80 82 81 84 80 84 79 80 79 76 76 87 47 21 48 60 51 35 25 25 22 21 20 21 19 19 17 10 10 12 11 10 14 11 18 26 44 59 70 73 73 70
82 82 84 82 82 80 80 79 82 83 79 78 75 78 90 44 21 45 36 35 31 25 27 25 21 22 23 20 14 11 11 11 13 10 11 12 13 18 40 43 58 67 64 62 56
82 84 83 82 86 80 80 80 83 82 77 75 78 83 66 32 33 31 28 23 30 26 22 25 23 22 22 16 16 13 17 14 12 14 15 10 14 33 39 45 50 53 51 51 48
83 84 87 88 84 81 84 87 84 77 77 80 89 89 50 28 22 18 16 16 27 28 25 22 24 27 15 17 17 20 17 18 15 22 16 16 25 45 45 50 52 48 50 47 53
83 85 84 86 93 83 82 83 80 80 80 74 78 70 35 19 24 15 14 18 27 28 25 24 22 21 19 15 18 18 18 17 18 22 32 38 53 55 56 52 57 54 57 58 58
86 85 92 95 94 88 90 86 77 74 94 42 38 33 26 23 20 14 15 19 22 24 28 25 22 21 21 17 14 17 18 18 24 35 49 59 57 57 59 57 59 59 59 60 62
89 95 94 94 94 87 86 87 46 47 59 58 49 44 37 29 24 15 18 22 29 25 24 25 29 24 27 27 25 25 27 33 36 40 46 49 56 56 56 62 60 60 61 60 65
95 94 93 96 95 90 88 82 52 50 61 38 47 38 27 27 23 16 20 24 21 25 26 30 25 28 28 30 33 33 30 32 36 44 42 43 48 58 57 59 61 62 60 61 65
93 94 96 96 94 92 82 58 63 60 44 31 24 21 21 21 26 18 21 22 27 28 34 33 30 29 28 32 30 36 30 38 44 37 38 37 30 54 61 64 62 61 60 60 59
93 93 97 86 85 76 55 75 64 51 62 28 23 17 22 21 21 22 27 23 29 30 29 36 35 31 33 32 34 36 34 34 31 33 34 39 35 46 59 64 61 58 58 56 52
94 94 96 90 94 80 71 61 53 72 61 31 25 24 26 27 28 26 27 28 29 35 34 34 29 30 29 35 33 40 38 41 44 40 43 38 36 42 60 56 56 55 56 54 49
94 95 92 80 75 88 76 52 66 73 39 32 30 27 30 36 34 33 36 40 34 43 46 35 34 30 33 33 34 35 38 50 55 61 51 46 46 37 40 46 48 53 51 52 51
94 95 91 88 82 84 57 49 57 46 45 30 31 32 34 34 36 35 36 38 38 38 42 38 36 30 30 32 35 40 38 59 60 63 49 46 53 36 40 38 44 44 47 53 54
97 94 96 90 82 82 54 79 54 50 35 33 32 38 40 35 36 40 42 39 39 38 40 48 41 30 32 31 33 40 39 43 61 64 57 45 43 38 48 43 48 51 52 53 54
95 94 85 89 86 66 69 60 49 49 39 34 36 40 43 38 41 41 42 44 41 44 39 44 44 36 31 33 36 34 38 46 51 59 54 42 51 40 54 48 50 53 53 54 56
85 79 67 77 62 58 70 55 60 54 42 33 38 41 41 42 43 45 44 47 48 42 41 38 44 43 38 39 39 40 44 53 48 56 47 52 36 45 45 45 49 49 51 56 59
76 63 73 62 56 73 61 58 62 49 41 43 38 40 42 52 52 51 50 47 50 51 42 46 56 60 39 37 40 37 42 43 53 50 67 67 41 38 47 45 49 49 56 57 58
66 90 84 60 69 87 57 54 53 44 44 44 48 48 53 59 58 59 58 55 50 47 51 48 57 64 47 36 37 39 48 49 56 67 69 85 39 43 55 52 48 49 58 62 60
84 93 84 70 62 51 50 52 51 48 47 45 50 52 58 61 63 67 61 55 58 59 80 59 54 54 53 42 45 46 52 46 45 60 58 62 40 37 49 55 59 61 62 59 57
78 81 81 91 72 53 45 49 51 53 46 44 48 49 56 66 64 69 60 52 56 71 66 51 57 56 59 58 51 41 45 49 41 45 54 45 46 36 41 49 56 62 62 60 58
74 74 70 74 70 54 62 58 50 49 53 48 52 57 55 61 52 67 57 52 48 66 62 59 67 63 69 63 60 53 44 44 50 51 45 48 48 39 48 55 64 66 63 61 58
91 75 61 86 83 67 75 59 52 54 65 57 53 58 62 62 62 66 65 68 62 63 70 66 81 60 56 64 54 59 51 44 47 47 45 55 39 58 62 64 59 65 62 60 58

GFSSW_sfc_rhum_018.txt.gz
RH
79 82 82 83 84 84 85 81 84 84 82 79 76 77 76 78 80 53 43 27 36 76 63 20 17 15 15 12 14 12 10 14 23 25 33 21 23 29 24 33 39 38 42 50 62
76 76 79 82 85 84 84 84 83 84 82 78 76 75 80 82 60 43 36 66 70 76 14 13 14 14 12 13 14 13 12 13 18 21 25 25 21 20 32 38 40 49 50 54 63
77 79 80 81 85 86 83 82 85 83 79 81 77 75 82 73 50 17 67 73 76 58 11 10 10 14 13 13 15 13 12 11 20 20 16 18 20 17 25 34 32 48 63 69 67
81 83 81 80 81 84 86 86 85 83 81 76 76 75 79 62 23 13 81 77 76 25 13 13 15 16 13 15 12 15 12 10 16 21 16 16 16 21 23 24 27 40 54 63 67
84 84 84 83 82 83 84 86 85 83 80 74 76 76 64 46 22 31 80 71 28 16 14 14 14 13 12 13 14 15 12 10 9 17 17 17 17 21 23 24 32 44 49 54 56
85 85 82 84 83 82 85 86 85 83 80 78 78 80 60 31 14 27 30 26 18 16 16 14 13 13 15 16 15 13 10 8 8 15 17 16 17 20 21 31 39 47 45 48 49
87 86 86 86 83 84 87 85 86 84 79 78 77 66 61 25 14 24 23 18 17 15 17 14 13 14 15 16 13 10 10 9 9 13 14 13 14 17 30 34 38 38 39 42 41
88 86 88 88 87 86 86 87 86 82 79 76 78 70 40 20 16 22 18 19 20 16 15 16 17 17 17 13 10 10 10 11 11 11 10 12 15 21 33 34 35 37 42 44 40
87 87 82 87 86 88 86 86 83 77 75 79 74 71 26 27 16 12 14 14 20 21 19 17 18 19 17 17 12 12 9 10 13 14 11 9 12 25 34 32 35 37 37 38 39
86 85 88 89 88 91 86 83 80 81 74 62 57 64 28 14 15 13 13 15 16 23 23 21 18 17 13 12 13 12 13 9 11 18 9 12 22 24 35 32 34 32 34 36 37
85 84 89 92 94 88 78 61 63 64 67 29 21 25 14 14 15 10 9 15 15 18 18 20 16 15 13 11 10 10 11 12 14 25 22 22 22 27 32 35 37 34 36 37 37
86 86 93 94 94 88 70 52 34 44 36 34 31 29 22 19 17 10 11 15 17 16 16 20 18 18 19 15 13 13 13 18 23 27 24 24 28 30 31 35 36 36 36 37 41
87 94 93 95 92 82 65 47 36 35 44 31 32 23 19 19 14 10 12 14 15 17 18 17 20 21 19 17 17 19 18 23 20 26 25 23 26 32 38 37 39 40 36 38 41
94 92 94 95 78 57 54 35 36 45 32 21 19 18 18 16 14 13 15 14 19 19 22 23 22 20 19 21 22 22 21 22 27 22 20 24 17 31 36 39 40 43 42 43 46
93 93 96 85 59 49 43 46 49 45 42 18 16 12 15 15 13 18 18 15 17 20 24 27 23 21 20 24 24 25 24 23 22 20 23 24 20 29 37 39 41 44 46 48 48
92 94 96 87 68 52 49 52 48 53 39 21 16 17 18 18 18 18 20 18 20 23 21 24 21 21 23 25 23 25 25 25 24 23 32 21 23 17 32 31 37 42 44 46 42
93 95 91 60 45 63 67 49 45 50 26 20 18 17 17 20 22 21 22 23 21 28 28 23 24 21 23 25 27 25 24 31 37 39 36 31 28 18 21 30 31 40 39 41 38
94 96 91 60 50 67 52 35 41 24 23 20 18 20 21 20 25 26 25 24 26 23 22 21 33 22 24 25 22 25 24 32 35 39 26 33 27 18 26 25 30 33 32 36 36
96 91 84 65 72 68 41 65 34 28 22 21 20 22 26 24 21 26 28 24 26 27 21 27 27 23 26 24 25 29 29 29 42 50 45 21 24 23 30 29 31 33 32 34 34
74 80 55 60 67 58 52 44 26 30 26 21 21 20 26 24 22 24 28 30 30 31 30 29 34 26 28 25 27 26 26 35 35 49 39 21 24 17 34 33 32 34 35 34 31
61 52 65 71 59 54 56 35 30 36 32 24 20 25 21 28 23 23 24 32 32 30 28 25 28 34 31 29 26 30 29 30 28 39 30 27 15 25 28 30 34 34 33 33 34
58 52 72 61 52 41 38 29 51 34 34 28 25 25 26 28 30 27 27 29 35 30 30 31 33 46 31 29 29 27 27 24 32 35 47 54 22 24 31 30 29 31 31 32 36
50 58 62 53 56 74 38 30 36 30 28 31 28 28 33 35 39 37 37 40 37 34 34 34 39 46 38 32 30 30 29 27 35 46 45 68 22 25 30 32 30 31 30 35 40
45 76 64 45 36 36 35 32 30 34 31 32 36 36 38 40 42 46 44 41 43 40 74 47 38 38 41 29 29 36 34 28 26 40 31 36 16 21 23 27 28 32 32 37 43
52 51 44 76 50 35 31 29 28 36 32 31 36 32 34 48 44 46 42 41 45 67 47 38 42 38 34 36 34 30 29 30 27 27 37 20 21 13 17 20 22 31 36 39 43
49 52 50 43 39 34 41 31 26 34 33 32 34 36 37 44 33 45 39 36 35 47 43 42 50 49 51 43 38 38 28 26 27 25 28 22 25 17 19 24 29 37 40 41 42
57 47 36 71 41 38 36 30 28 38 48 38 33 39 44 44 44 40 41 38 35 42 51 51 62 49 41 45 45 72 42 27 25 27 29 34 24 22 29 31 30 35 40 41 41

GFSSW_sfc_rhum_021.txt.gz
RH
78 77 76 83 85 85 84 84 84 82 83 80 80 79 78 78 79 49 39 23 30 64 67 14 13 13 9 8 7 8 11 9 13 30 33 20 22 21 19 27 27 30 32 39 47
81 78 76 81 81 85 87 84 85 85 83 83 81 79 80 77 57 35 29 66 62 74 17 13 14 11 10 9 8 8 9 9 16 27 46 17 18 18 23 23 26 34 35 47 52
82 78 76 79 84 81 86 86 84 83 83 82 80 79 81 70 44 16 67 72 67 61 11 9 9 9 10 8 9 9 11 10 12 23 19 24 21 16 26 30 25 33 38 44 52
87 82 81 80 81 82 85 86 86 83 82 80 78 77 78 56 30 19 71 74 68 23 12 9 9 11 11 10 8 11 9 9 12 16 14 15 15 18 58 74 21 27 39 47 43
91 87 82 79 82 85 87 86 86 84 80 77 75 75 62 43 24 30 78 70 24 20 13 10 11 11 11 9 9 12 10 10 14 14 11 13 15 29 33 21 21 31 41 42 41
91 89 86 81 82 84 86 85 86 85 79 76 73 79 57 36 10 17 17 18 14 14 10 9 10 8 10 10 12 11 10 9 11 13 19 14 14 24 19 18 27 35 35 30 33
91 90 87 82 86 83 82 86 86 84 76 74 73 52 48 26 11 16 14 12 11 11 11 10 10 12 12 14 12 10 11 9 10 14 15 12 12 16 20 20 26 27 26 27 27
90 90 84 87 88 86 83 86 84 78 76 75 74 52 39 14 11 15 15 15 13 12 12 13 13 14 15 13 11 11 12 13 10 13 14 14 14 16 20 20 23 23 25 28 29
90 88 87 87 87 87 88 82 76 76 75 74 64 54 28 26 12 10 12 13 15 15 14 14 16 17 16 19 13 13 13 13 12 10 13 14 14 14 19 18 22 24 28 29 29
90 87 86 87 89 89 87 79 79 80 65 47 42 54 30 13 11 10 10 12 16 18 20 18 18 20 17 15 17 14 11 9 11 12 12 9 13 13 17 18 23 23 26 29 29
89 86 85 89 91 92 79 53 48 51 46 30 22 20 12 11 10 10 9 13 16 18 19 20 20 21 15 14 11 10 10 8 9 11 10 9 13 14 16 18 22 21 24 27 29
89 86 87 91 92 90 70 37 30 38 38 27 20 17 15 14 13 9 8 14 17 19 16 19 20 14 11 11 10 10 10 13 12 12 15 11 12 14 16 18 19 20 22 24 27
88 87 90 93 92 80 50 35 28 32 41 22 18 17 14 15 12 10 8 11 15 19 18 22 19 17 14 12 12 12 12 16 14 15 14 13 16 20 20 20 24 22 22 23 27
90 93 93 93 80 43 42 29 28 34 39 21 20 16 15 14 13 9 8 12 14 17 16 36 19 17 13 14 13 17 16 14 16 18 18 13 18 18 22 24 26 28 27 27 28
93 93 96 85 58 40 37 35 33 52 53 15 14 11 11 12 10 13 11 12 15 17 17 19 18 15 16 18 17 28 18 18 16 17 20 17 15 44 24 23 26 27 28 29 32
94 93 96 82 62 44 38 49 51 70 44 18 13 15 16 13 11 11 11 11 13 14 16 39 16 16 17 19 17 18 20 20 17 15 27 15 17 23 23 20 23 28 31 34 38
94 94 87 55 43 45 54 53 58 55 17 16 15 14 14 14 13 14 15 14 15 22 22 19 17 18 17 20 19 16 20 29 30 34 33 18 18 16 11 18 18 30 33 38 37
94 95 90 52 42 59 61 52 56 22 18 12 12 13 15 13 13 13 14 14 12 17 20 22 29 18 17 19 18 20 18 29 31 31 25 20 19 13 17 15 18 25 30 35 34
95 88 76 65 65 63 54 74 42 16 14 15 14 17 17 15 15 14 15 13 13 15 21 20 23 18 18 18 16 19 25 19 29 33 36 17 11 14 21 21 21 26 30 34 31
64 78 55 56 67 66 55 52 26 18 16 14 18 16 21 18 17 15 18 16 20 21 20 18 24 19 22 20 21 22 18 28 24 36 35 15 15 11 23 22 24 27 30 31 28
58 56 39 54 60 56 56 39 22 20 19 18 16 16 17 18 16 17 16 20 20 22 20 16 20 27 25 24 18 25 23 22 22 32 36 28 17 15 14 19 23 25 27 29 29
61 56 60 62 48 47 46 29 26 22 26 21 21 16 18 18 20 18 16 16 19 20 21 19 21 36 25 22 21 21 22 23 38 31 35 45 24 15 18 19 21 23 24 26 27
58 58 72 56 63 77 36 26 21 24 24 24 20 18 17 19 23 19 19 35 31 27 22 26 26 39 31 27 23 23 20 20 21 37 32 57 25 15 18 19 18 21 23 25 27
45 64 72 62 38 44 39 28 28 24 22 20 18 21 25 26 25 29 29 35 35 28 64 43 26 30 37 27 22 30 22 20 25 40 34 30 17 14 15 16 15 19 20 22 26
39 42 44 76 52 44 32 28 25 28 25 24 27 23 24 30 30 32 30 37 37 60 35 33 38 28 24 25 23 21 19 21 21 22 34 23 14 10 10 12 13 15 19 20 26
42 36 35 44 43 38 40 30 23 23 26 30 26 21 21 28 28 28 30 32 33 38 36 32 41 41 46 28 28 28 21 17 16 18 16 15 16 11 13 11 16 16 21 23 26
52 36 36 59 47 40 38 28 23 26 38 24 22 25 29 32 34 32 30 28 27 37 41 42 56 47 35 33 35 62 40 24 17 16 18 27 18 13 17 19 19 18 22 25 27

GFSSW_sfc_rhum_024.txt.gz
RH
86 84 82 76 80 81 82 88 85 83 84 81 81 81 80 84 82 51 44 28 31 64 58 17 15 13 12 11 9 6 10 13 11 12 48 63 65 36 23 36 48 58 41 58 62
82 80 78 80 80 78 80 86 87 85 84 82 81 81 83 84 63 39 33 63 57 76 19 16 14 12 14 10 9 9 12 11 15 29 59 54 48 35 22 24 37 42 47 52 59
82 83 80 80 83 83 79 85 87 85 84 81 81 81 84 76 48 19 69 63 65 55 15 11 10 11 12 9 9 9 12 9 17 40 43 38 30 19 36 45 41 85 45 49 55
86 86 84 80 81 85 87 84 86 82 82 80 79 77 81 62 35 18 69 69 69 22 16 15 10 11 12 12 8 11 8 9 15 39 45 61 28 32 39 53 48 50 37 43 51
90 90 86 82 79 82 87 86 87 84 80 79 74 76 66 45 28 29 77 64 22 19 18 12 10 10 13 10 9 10 10 9 15 17 36 30 33 37 37 44 40 50 39 38 41
90 90 90 85 82 79 85 86 87 86 82 77 74 77 63 36 11 18 24 26 13 15 14 9 10 9 10 10 9 10 12 10 14 18 14 21 28 37 43 32 40 42 37 36 32
89 90 90 87 84 79 82 83 86 85 80 75 74 59 45 27 12 14 12 11 11 14 11 9 9 11 11 14 11 12 13 11 11 15 15 22 25 28 24 26 29 29 28 29 28
89 89 90 86 82 83 82 81 86 80 77 75 75 57 42 15 12 12 13 13 11 11 11 12 13 15 16 15 12 13 14 18 11 15 18 18 25 16 20 23 26 26 27 27 25
89 89 89 87 82 84 84 86 82 78 77 75 71 54 32 25 14 10 11 14 12 14 14 12 15 19 17 21 18 20 21 17 13 13 17 19 26 14 15 23 24 24 25 26 29
89 89 88 87 84 87 89 84 81 78 70 46 39 46 32 17 9 9 9 11 16 17 18 18 19 20 20 18 26 23 18 15 14 10 14 15 17 14 14 20 24 24 25 30 31
89 89 87 86 87 90 84 62 59 62 50 29 23 22 12 10 9 11 9 13 15 19 24 19 23 22 26 21 15 15 16 13 10 10 12 13 13 12 14 17 23 27 28 31 32
89 89 86 87 89 92 73 50 31 38 46 30 16 19 14 13 14 10 8 16 20 25 28 19 26 19 17 16 15 13 15 12 10 10 11 9 10 12 13 17 20 22 26 30 30
89 88 85 89 93 83 58 39 25 31 43 22 18 15 15 12 13 11 9 12 20 21 24 29 32 28 17 14 14 14 16 19 13 10 8 21 12 14 12 15 16 19 19 23 27
90 89 92 94 87 52 48 34 33 40 49 23 19 16 13 13 14 8 8 19 23 21 42 38 24 26 16 17 12 21 20 18 20 17 19 19 32 49 36 17 16 19 21 23 24
91 91 94 89 68 41 39 28 37 54 68 18 16 10 12 14 10 11 8 14 19 20 28 42 19 17 18 24 20 30 21 22 16 16 32 33 34 33 36 33 24 25 27 27 27
91 94 95 89 71 55 44 50 54 75 61 19 13 15 14 12 10 9 12 10 18 23 16 19 16 21 27 18 18 20 22 20 16 18 60 28 43 30 32 34 58 23 26 28 31
92 94 88 52 50 43 52 62 64 61 16 18 16 14 14 14 12 11 15 15 16 24 24 22 16 14 20 16 15 14 18 34 59 67 55 16 19 36 26 46 66 62 27 30 36
93 94 90 57 47 56 67 79 62 27 23 10 12 13 16 12 13 12 16 16 12 13 17 23 42 16 14 16 43 38 17 42 83 89 38 20 23 16 20 19 28 27 30 36 41
94 86 79 71 70 67 79 92 49 26 16 15 12 16 16 12 12 14 15 14 12 12 37 50 37 27 16 14 15 18 24 18 38 44 46 22 12 11 17 18 16 29 33 40 40
71 76 67 66 69 74 89 66 36 20 15 13 16 14 18 15 16 15 15 13 14 17 32 73 83 38 19 16 17 19 15 32 29 50 46 22 17 19 24 20 20 27 34 38 37
62 66 50 61 70 75 78 56 35 19 15 17 14 15 16 18 14 16 14 12 18 18 18 20 36 26 23 22 16 24 24 20 19 38 63 57 25 17 17 17 22 26 32 36 37
64 65 58 67 61 48 62 40 34 24 16 20 18 14 16 17 18 16 16 15 14 15 22 18 23 49 22 17 17 19 25 21 65 46 57 70 37 16 18 16 22 23 23 31 33
59 60 70 63 58 73 50 38 28 25 21 24 22 18 14 18 21 18 17 31 27 23 26 24 30 48 29 23 21 23 19 17 24 52 57 78 42 15 16 16 17 22 23 27 31
50 77 99 87 37 47 53 39 32 24 19 20 20 17 18 19 17 21 22 33 32 27 60 44 27 30 48 28 25 32 24 18 22 68 61 46 22 15 16 17 16 20 22 23 29
58 58 63 94 69 48 45 35 32 28 20 20 22 17 23 29 23 27 23 37 34 54 34 31 38 29 22 20 23 26 22 19 20 25 41 33 21 15 13 15 15 17 20 20 20
59 48 51 50 53 52 55 44 30 22 25 27 27 20 22 28 24 28 24 35 35 39 34 31 49 49 53 29 26 29 23 21 18 16 17 17 18 12 13 16 18 18 16 22 21
56 50 48 59 54 55 54 40 31 26 25 20 23 24 26 27 28 33 34 31 27 40 43 46 72 69 62 34 39 57 44 26 20 18 19 28 22 16 15 15 21 22 20 23 24

GFSSW_sfc_rhum_027.txt.gz
RH
88 88 86 85 84 78 77 78 81 88 85 84 86 84 82 86 84 65 74 52 49 64 64 28 23 22 20 21 18 19 22 18 14 39 57 60 56 58 59 54 49 62 76 91 85
87 85 82 86 86 84 80 78 80 88 87 86 86 86 86 87 79 67 53 60 67 72 28 26 24 21 23 22 20 18 22 18 31 48 54 54 52 55 63 47 71 81 82 89 78
87 87 85 86 86 86 79 84 80 87 87 86 86 85 85 83 73 36 74 62 72 66 22 19 18 17 22 21 17 16 17 13 34 45 52 51 41 39 46 54 66 75 91 87 89
88 88 89 86 86 85 79 80 84 85 86 85 83 81 83 82 40 28 70 74 72 31 25 21 23 22 19 18 14 18 12 11 37 44 41 62 61 38 51 58 65 60 59 77 82
89 90 90 86 85 86 80 80 82 88 87 83 81 78 83 71 53 46 72 70 30 23 22 23 26 18 17 16 15 15 13 12 30 39 54 48 48 41 37 46 59 65 66 73 70
89 90 90 90 89 88 84 81 86 88 88 86 79 81 90 58 28 49 36 33 20 23 24 23 16 13 15 16 20 13 13 16 25 40 42 48 45 44 42 40 48 55 62 63 61
89 89 90 90 89 88 86 83 84 89 89 83 79 70 65 49 23 26 27 24 17 18 21 18 15 22 22 24 20 18 18 17 20 25 36 31 51 50 39 40 42 53 48 51 38
89 89 89 90 89 87 87 84 87 89 86 82 79 78 75 29 30 23 18 16 15 17 17 15 20 24 26 22 22 20 22 26 16 22 27 21 37 45 46 44 49 42 37 38 37
89 88 89 90 88 87 88 89 90 88 85 82 88 85 65 32 23 17 17 19 18 18 22 14 21 30 27 32 35 28 29 25 20 18 22 24 31 44 47 42 41 40 38 37 38
89 88 89 89 88 88 90 91 86 86 78 63 57 67 46 29 18 15 14 15 21 27 28 29 28 35 32 35 37 25 24 25 23 22 23 26 25 23 31 32 37 41 41 44 39
89 89 89 87 87 87 89 92 86 88 75 58 40 36 20 17 13 16 14 18 23 30 43 34 37 41 35 29 26 24 24 22 17 15 24 26 23 23 22 37 45 52 51 42 43
90 89 88 87 88 85 93 88 52 53 67 48 37 30 19 20 20 15 14 22 29 40 37 38 39 29 27 22 28 25 24 22 16 15 19 20 20 20 21 26 44 46 46 46 46
92 89 88 87 90 94 93 70 42 50 72 41 34 33 19 19 22 19 14 20 28 34 35 45 38 28 23 30 32 29 35 28 23 16 15 24 29 32 24 22 32 40 38 38 42
94 90 88 93 92 83 85 58 57 59 89 39 32 24 17 19 24 14 12 24 32 36 50 48 31 28 29 33 22 25 24 27 22 28 26 28 42 44 36 24 24 28 36 38 41
94 91 93 85 93 87 57 58 51 71 96 29 24 16 17 22 22 15 17 26 28 36 38 44 39 34 35 33 24 30 27 28 31 32 38 39 41 41 34 24 30 43 37 38 44
94 92 95 94 96 82 66 61 76 91 91 31 22 21 22 21 19 15 15 19 24 34 35 34 25 32 30 25 22 24 29 33 37 40 62 34 42 48 51 31 42 41 33 34 46
95 93 94 70 78 66 70 85 97 97 30 25 24 22 23 22 19 16 21 24 33 39 41 24 22 28 27 30 29 31 37 56 63 80 75 39 44 44 38 35 34 32 29 46 54
95 95 92 72 73 77 92 96 99 45 37 21 21 22 23 20 20 19 22 25 23 25 33 38 48 37 31 30 33 30 38 69 78 86 67 38 46 34 27 27 29 33 40 46 58
96 95 92 82 79 84 98 97 79 46 24 28 18 24 24 19 18 21 25 25 21 20 37 55 49 40 34 29 28 30 38 35 68 72 80 49 21 25 31 41 51 49 48 60 63
96 94 85 76 85 85 99 84 64 35 25 24 30 23 27 22 22 22 24 20 21 30 45 64 58 51 46 33 26 28 28 46 56 59 62 38 34 48 36 33 44 54 58 59 55
95 94 68 71 87 97 89 76 58 36 28 30 26 25 23 26 22 27 24 18 20 38 44 55 59 58 45 44 33 34 35 33 35 62 70 80 48 27 27 32 36 51 52 54 50
95 93 71 74 97 89 87 64 55 38 36 32 34 33 27 28 29 24 25 37 25 27 33 54 57 75 43 27 23 26 35 47 70 47 77 81 56 25 22 26 29 30 44 50 47
94 83 77 62 75 88 59 59 53 46 42 34 38 36 33 32 43 28 48 45 40 38 38 44 45 69 44 36 33 35 29 28 46 70 62 74 57 23 21 21 23 28 30 48 48
92 93 98 89 47 58 58 56 62 45 42 32 31 34 35 32 26 38 53 48 45 47 62 50 42 49 61 44 37 45 42 37 38 76 71 69 44 28 26 25 24 24 27 43 45
94 72 74 94 91 57 53 52 58 56 38 32 34 34 36 37 40 36 52 51 49 59 47 45 49 48 45 42 36 34 37 32 31 41 56 47 40 31 28 25 26 29 30 26 28
91 64 85 84 72 73 57 59 53 43 38 36 38 32 33 38 40 40 45 51 50 55 48 44 67 64 65 40 36 41 36 33 32 31 31 32 34 24 24 25 25 25 24 27 28
77 77 60 85 76 73 57 53 52 42 40 28 37 40 41 44 43 51 47 46 47 55 57 59 75 75 71 50 44 52 37 35 36 34 33 39 32 33 33 32 32 32 31 32 31

GFSSW_sfc_rhum_030.txt.gz
RH
87 89 89 88 89 88 87 79 79 79 84 85 85 87 83 87 86 73 77 46 58 70 58 33 30 28 26 28 23 19 26 27 20 26 61 62 59 56 62 53 88 88 91 92 88
88 88 84 88 89 89 88 78 82 81 86 86 88 87 88 88 86 82 59 70 72 78 35 30 28 30 26 27 25 24 27 22 18 45 60 57 63 55 46 80 85 97 93 86 84
89 88 86 88 90 90 89 82 84 82 87 88 87 87 86 86 83 46 72 72 76 69 27 25 24 25 30 28 25 24 22 18 22 51 49 58 54 50 54 72 78 87 93 90 88
89 89 89 88 88 90 89 85 81 82 84 85 84 84 85 90 42 26 77 80 75 37 28 26 28 33 27 26 18 19 16 14 34 52 51 50 49 38 54 60 69 78 86 84 87
89 89 89 88 87 90 90 88 82 83 86 85 85 81 88 76 59 54 76 73 39 27 26 26 32 30 22 18 18 19 15 18 41 44 46 44 52 45 73 67 68 78 83 85 86
90 89 89 90 90 90 90 89 88 86 88 87 83 81 90 56 35 50 40 32 26 26 28 27 29 23 19 21 23 21 17 33 44 47 46 40 47 47 61 68 71 69 83 86 77
91 90 89 90 90 90 89 89 88 88 89 86 82 73 80 40 32 48 31 27 22 22 23 22 20 27 29 24 23 25 21 27 47 48 49 39 46 42 46 56 64 65 76 79 67
92 90 90 90 90 90 89 89 90 89 88 85 80 86 76 38 42 33 28 20 19 21 23 20 21 25 30 27 26 23 25 27 38 42 39 30 40 41 47 51 62 64 68 79 70
93 91 90 89 90 89 90 90 91 90 88 87 91 91 72 39 33 28 23 20 19 20 21 16 24 32 28 35 36 30 30 32 30 26 29 29 39 41 47 46 52 58 56 60 77
94 92 90 89 89 89 90 89 89 90 80 69 65 70 48 31 27 20 20 20 23 27 28 29 34 36 37 38 38 35 33 30 26 22 26 27 31 42 50 47 50 53 52 47 58
95 92 89 89 87 88 92 92 78 84 85 50 37 41 27 24 21 18 17 20 27 31 43 42 39 43 36 33 28 28 28 32 25 17 28 28 29 46 50 48 51 60 54 47 50
94 93 89 88 88 88 94 89 65 56 69 54 48 43 33 29 27 20 18 24 34 39 47 40 43 35 27 28 32 34 34 34 26 21 27 29 27 36 36 42 47 48 47 47 49
95 93 89 87 90 94 96 82 55 51 75 57 50 47 40 26 27 23 18 25 34 38 41 43 35 32 29 32 34 35 38 35 32 22 18 26 36 37 28 41 43 42 41 42 43
96 94 91 91 86 87 92 69 71 61 88 57 44 38 22 20 28 19 17 23 33 40 45 42 37 32 35 34 34 37 29 31 29 33 28 31 47 44 36 32 44 43 50 46 44
95 95 93 82 92 87 66 64 67 75 73 36 41 23 21 25 24 20 17 26 32 39 39 37 39 35 41 33 32 37 30 31 35 38 43 38 38 36 44 27 38 37 40 47 48
95 96 94 93 98 89 74 72 84 91 86 44 27 28 27 27 25 21 23 24 26 40 42 35 35 31 33 29 30 28 33 38 48 50 61 46 42 43 44 31 28 34 36 39 52
95 96 89 78 77 85 78 86 94 93 40 36 31 27 28 30 28 23 24 31 34 42 50 37 33 28 30 33 34 34 38 56 57 75 66 46 46 40 36 36 34 34 36 46 55
96 96 90 74 84 85 93 95 93 58 56 30 28 28 31 27 27 24 26 28 29 32 42 42 50 40 37 32 40 36 38 64 61 77 58 45 54 40 31 29 32 36 44 59 69
97 99 98 86 87 78 98 98 78 67 34 32 28 32 33 25 24 26 30 28 24 26 34 54 47 45 42 34 34 36 41 39 69 79 80 59 37 30 38 42 47 51 47 66 81
97 99 91 83 80 79 99 79 69 52 38 34 32 30 33 27 28 27 30 27 26 24 39 50 50 46 42 33 34 32 28 44 62 65 68 44 42 48 40 37 43 58 52 70 76
97 96 77 78 87 91 94 76 59 44 48 44 41 34 29 30 27 31 25 22 27 46 42 56 44 51 45 46 38 38 38 38 43 61 63 75 49 30 33 36 48 54 53 68 67
95 95 82 79 87 91 84 64 60 49 48 51 44 42 32 32 32 29 29 23 32 43 39 50 58 79 42 33 39 36 38 47 68 45 82 82 53 33 29 33 47 50 53 64 58
95 89 85 71 86 87 70 62 57 50 50 51 45 38 36 40 40 42 47 49 49 38 41 46 54 69 48 34 35 37 33 38 55 70 65 75 57 28 28 24 31 42 56 58 59
94 96 96 88 61 56 72 74 70 49 53 52 51 46 43 46 45 48 52 51 56 48 66 48 47 48 58 39 40 48 46 44 48 77 68 69 45 35 31 28 25 29 39 58 58
95 77 77 94 89 57 57 60 66 56 52 48 48 50 49 46 51 44 55 55 52 59 48 43 48 47 43 45 46 42 41 40 40 46 56 45 46 33 32 32 29 28 32 49 58
94 79 79 88 70 74 60 57 52 44 47 43 52 47 45 39 39 49 53 55 48 55 48 51 59 70 66 49 42 43 37 39 38 39 44 38 42 36 33 35 36 33 32 34 36
91 82 76 82 77 82 66 54 44 42 50 39 43 44 52 39 44 44 47 50 49 52 61 61 74 73 68 54 44 59 44 35 37 39 37 46 42 39 42 39 38 41 41 41 44

GFSSW_sfc_rhum_033.txt.gz
RH
88 88 89 90 91 90 88 88 84 80 81 82 84 85 85 88 87 81 74 48 65 71 59 34 30 32 28 30 30 22 32 29 24 28 52 61 60 69 71 86 86 90 88 90 96
88 88 86 88 91 91 91 90 86 84 81 84 86 86 88 89 91 87 63 66 74 72 37 27 30 30 27 30 29 28 30 24 20 35 59 60 68 60 76 89 91 93 91 91 92
88 89 88 89 90 91 92 91 88 85 81 82 86 83 88 91 78 41 77 75 76 75 30 28 26 27 33 30 29 27 26 22 18 47 53 57 64 55 75 86 89 88 90 88 91
89 89 89 88 90 91 91 91 89 82 82 85 83 83 87 95 42 30 78 82 75 61 32 25 28 35 34 29 25 27 19 17 23 54 52 53 49 47 62 69 80 86 86 89 91
90 89 88 88 89 91 91 91 90 85 84 86 83 84 88 61 43 47 78 78 62 34 27 27 34 34 31 21 22 21 18 17 27 50 51 48 49 64 83 80 84 86 82 79 82
92 90 89 89 90 91 91 91 90 89 86 87 85 83 88 33 34 50 46 45 33 29 27 26 29 27 28 25 29 25 26 47 50 49 46 50 58 57 73 88 88 82 79 66 70
94 92 90 90 90 90 90 90 90 90 88 87 84 78 85 27 39 45 34 33 26 25 27 28 27 30 31 26 28 27 32 45 51 54 50 42 48 64 67 82 87 83 78 74 69
96 94 92 90 90 90 90 90 90 90 88 87 82 88 77 37 49 41 36 32 24 23 24 22 25 29 33 26 28 25 26 38 48 52 43 34 50 51 68 76 87 89 87 83 77
96 96 93 93 91 90 90 90 90 89 88 88 92 91 64 42 41 35 31 28 23 22 23 17 27 34 30 37 35 32 31 33 45 39 44 37 39 47 63 70 79 88 92 81 75
94 96 94 92 90 89 90 90 89 89 84 72 69 60 40 30 30 25 30 26 25 31 31 30 37 39 40 36 42 40 36 43 32 24 40 49 41 49 54 67 71 74 80 86 70
92 96 94 91 89 88 90 88 74 81 81 47 32 33 31 28 25 26 22 24 32 32 44 44 41 46 41 38 36 36 39 42 33 24 29 35 33 47 54 59 66 67 69 82 78
92 95 94 90 88 89 93 82 58 63 68 57 53 46 38 35 38 25 20 25 35 38 49 42 48 35 34 30 34 35 38 33 32 24 26 32 29 46 56 52 55 59 59 59 77
92 95 95 89 88 94 94 72 54 61 62 54 56 55 47 40 42 30 21 28 35 40 42 44 35 36 32 32 35 39 41 39 35 28 28 31 35 32 32 48 49 53 48 50 58
90 96 96 90 86 85 89 70 70 65 79 59 60 49 40 29 30 23 20 25 39 38 46 43 39 37 40 39 34 42 35 37 34 35 26 30 42 43 36 42 49 48 58 48 50
87 93 96 85 79 90 70 67 67 76 60 28 50 31 25 25 26 25 21 27 33 42 40 38 45 41 41 32 34 37 41 35 38 42 44 42 40 38 47 39 46 49 50 50 45
88 92 96 91 96 83 73 78 84 78 62 45 38 36 30 28 29 22 25 26 30 41 46 36 37 34 32 34 34 34 38 42 53 52 61 50 45 44 44 34 34 44 42 46 59
89 93 96 81 82 86 82 89 93 92 35 42 38 34 32 35 32 29 27 34 40 47 48 40 36 35 36 37 35 35 40 52 53 72 64 49 49 43 32 34 34 41 42 43 46
87 96 95 79 88 88 91 93 94 65 62 45 34 36 32 31 33 29 29 31 32 37 50 47 46 39 41 36 40 46 39 60 58 72 51 52 62 40 34 36 36 36 39 49 63
88 98 98 90 83 88 97 99 79 64 47 32 33 40 40 32 30 31 32 30 27 32 38 53 46 47 45 38 34 40 45 42 69 83 78 60 45 30 35 40 54 54 55 68 80
98 95 89 81 78 84 97 78 68 56 52 54 39 37 43 35 33 33 34 28 28 29 32 43 45 45 43 42 36 38 35 46 62 61 68 54 47 46 38 33 43 59 54 74 87
96 97 77 80 82 92 92 77 62 45 50 60 52 40 36 36 32 35 30 26 29 44 34 55 41 45 53 46 38 41 41 44 46 64 63 73 54 35 37 36 34 41 52 64 89
92 96 92 80 99 85 82 68 60 48 54 59 59 54 41 37 36 34 32 24 28 47 40 51 54 73 44 41 39 40 44 45 69 50 84 83 56 33 29 33 40 43 48 66 81
92 89 91 78 90 90 72 63 56 48 55 58 58 54 46 41 38 39 37 46 48 40 48 51 57 71 50 41 38 45 42 49 58 71 67 76 56 31 33 28 28 43 47 62 74
97 97 96 94 68 70 73 73 74 56 55 58 61 60 57 46 47 49 51 53 54 48 66 50 51 52 61 46 42 50 46 46 52 79 68 71 47 35 31 35 30 29 39 66 74
96 82 74 96 90 77 62 62 70 64 58 52 60 62 64 63 53 56 60 57 54 58 56 45 49 47 44 38 48 42 42 48 47 51 58 49 53 40 36 30 32 33 36 52 70
94 93 80 87 69 75 70 66 66 59 63 59 49 50 46 61 48 48 54 58 50 54 53 53 59 65 66 51 47 46 40 40 44 43 48 46 45 43 40 45 43 41 40 45 49
92 87 94 75 73 78 69 64 57 56 56 45 48 53 64 54 47 42 51 49 44 50 59 59 72 73 64 60 51 64 49 41 38 41 40 46 38 44 49 44 48 53 49 50 52

GFSSW_sfc_rhum_036.txt.gz
RH
90 89 89 90 91 91 90 89 91 85 82 82 81 83 81 86 85 85 74 45 63 70 71 38 34 37 30 35 32 28 37 34 28 29 27 67 67 72 86 92 83 88 90 92 96
90 89 87 89 90 91 91 92 92 87 83 81 83 82 86 89 95 89 60 64 74 69 34 27 35 28 27 31 32 32 35 29 23 21 54 68 65 64 84 86 87 94 95 94 94
91 89 90 89 90 91 92 92 92 87 85 81 83 82 88 92 72 40 76 76 74 70 35 29 28 29 35 32 31 32 30 24 20 23 54 67 64 59 89 94 83 91 94 96 95
92 90 89 89 89 91 92 91 91 86 85 84 82 83 87 94 43 33 82 83 76 60 36 29 30 37 34 33 30 32 23 20 20 53 57 57 52 60 75 79 79 82 86 90 91
95 92 90 89 89 90 91 91 91 87 86 85 83 84 86 43 32 61 81 77 62 37 28 29 36 36 34 27 26 26 20 22 28 52 55 50 58 70 96 92 82 85 82 85 86
96 95 92 90 89 90 91 91 91 90 87 86 86 84 84 23 35 50 59 41 39 36 28 29 31 30 33 33 32 28 31 46 54 54 50 65 68 68 87 93 94 92 93 91 88
90 97 94 91 90 90 91 91 90 90 88 87 85 82 84 26 42 44 37 37 32 30 32 30 30 32 34 32 29 32 43 44 54 52 51 49 53 77 91 90 94 92 85 73 84
90 93 97 94 91 90 91 91 91 90 88 88 83 90 71 36 50 50 42 37 30 27 27 24 28 31 37 30 30 26 28 36 48 52 52 44 62 77 92 88 94 93 88 82 76
91 93 97 96 94 91 91 90 90 89 88 88 94 92 48 38 37 34 35 32 26 26 26 19 30 37 34 38 34 35 34 36 51 48 47 46 60 68 86 90 95 94 94 91 91
89 91 95 97 94 91 90 90 88 87 86 77 71 62 30 32 32 30 40 29 32 35 34 34 39 40 43 36 41 44 42 56 41 33 52 53 50 70 79 82 88 92 96 96 90
88 90 93 97 93 88 90 80 64 76 81 51 35 25 27 31 35 28 29 28 33 34 45 46 43 47 41 37 33 38 43 43 39 29 33 44 49 60 75 78 86 91 95 96 83
90 92 93 96 93 89 92 76 56 67 74 57 55 46 38 43 49 34 24 27 36 42 50 43 48 37 36 39 37 39 40 39 34 29 32 38 44 56 67 71 75 78 79 81 82
86 90 93 96 91 93 91 70 60 67 72 46 57 57 50 45 47 42 24 30 36 41 45 47 37 38 33 36 34 39 43 40 40 35 33 35 41 63 53 61 60 65 64 66 74
85 88 92 95 91 91 86 71 69 71 70 53 62 55 47 45 38 30 23 28 42 36 46 46 40 39 42 40 35 45 36 41 40 39 32 36 36 44 50 57 55 54 65 58 62
83 86 92 92 82 96 75 66 70 72 57 31 59 38 42 29 28 28 23 28 36 42 43 42 45 44 42 36 34 37 41 44 42 44 45 45 40 36 48 47 52 50 53 56 55
82 86 90 99 93 87 73 78 81 77 61 34 44 44 34 30 30 29 28 28 33 44 52 40 42 38 34 33 36 38 40 39 51 53 60 48 48 47 52 37 37 42 47 50 52
83 85 95 81 88 88 79 89 98 88 34 39 48 39 34 36 34 29 35 39 40 47 50 43 40 38 38 40 42 40 41 53 52 70 65 50 55 47 33 37 38 38 41 47 50
84 84 91 84 80 90 92 97 97 63 54 49 41 41 34 33 33 34 34 39 40 40 52 49 48 40 38 34 37 43 40 61 53 72 50 52 56 36 38 40 45 42 41 55 60
82 97 95 87 84 79 96 99 78 65 50 42 39 44 42 34 34 33 36 36 34 36 39 54 44 47 47 42 37 44 47 42 70 84 76 60 47 28 39 52 52 48 55 54 58
93 96 86 78 85 81 99 82 67 54 56 60 46 42 48 40 36 38 38 32 30 34 36 44 42 46 44 46 43 40 40 50 62 58 64 57 50 43 35 38 56 56 53 60 79
95 96 78 89 92 99 96 80 62 51 54 65 66 55 43 42 38 43 38 31 29 33 34 48 36 40 55 46 39 45 46 51 49 65 62 70 51 40 35 38 40 43 52 56 76
95 97 86 88 97 86 85 71 60 54 55 59 66 65 51 43 41 38 36 30 30 44 39 47 50 60 42 46 41 41 43 49 69 54 84 81 60 36 32 32 36 36 44 59 72
94 87 91 78 92 87 67 63 63 54 57 61 66 62 56 47 41 42 40 35 47 40 47 52 56 68 50 42 42 47 46 52 60 72 69 77 56 33 36 33 31 34 38 53 78
97 94 97 95 63 69 69 72 66 59 55 53 67 65 61 57 50 42 40 52 56 44 65 48 57 50 54 44 44 49 47 55 54 77 69 70 48 37 34 37 33 33 36 42 70
98 83 79 93 88 77 65 64 70 61 53 59 68 67 61 66 56 58 62 63 57 69 56 44 48 52 46 40 44 44 44 52 50 53 58 52 54 42 42 37 34 36 40 49 78
99 93 88 87 70 77 81 68 69 61 64 58 68 60 65 70 52 52 61 61 52 58 55 55 54 61 69 55 53 59 48 50 55 54 53 51 49 42 45 50 50 44 51 60 66
95 93 93 70 75 80 74 66 62 59 55 56 50 48 66 50 44 47 49 57 61 60 63 58 72 69 62 60 52 64 53 45 47 47 46 56 46 44 50 50 57 58 58 60 65

GFSSW_sfc_rhum_039.txt.gz
RH
92 90 89 90 91 91 90 91 92 88 86 84 81 81 82 87 87 75 47 37 49 67 68 29 24 26 21 24 21 20 24 24 21 20 19 53 55 66 72 72 75 77 80 84 94
93 91 90 90 90 90 91 92 91 89 87 86 83 82 86 89 88 67 49 62 70 70 25 22 26 20 18 20 22 21 26 22 18 17 28 50 50 58 68 74 75 81 93 94 87
96 94 91 90 90 90 91 92 91 88 86 86 84 84 88 87 57 30 75 69 74 67 24 21 23 22 23 21 22 23 23 21 17 16 37 52 52 51 64 68 66 78 88 88 94
91 96 94 91 90 89 90 91 91 88 86 86 85 84 88 82 33 23 84 84 74 56 24 21 20 25 25 23 21 23 20 19 17 40 49 51 49 66 60 67 69 72 83 91 92
88 90 96 93 91 90 90 91 91 89 87 86 85 85 75 35 18 60 80 76 59 34 21 22 26 26 25 22 19 22 18 20 31 44 46 44 52 63 75 80 74 76 81 85 87
89 88 92 96 93 91 90 91 91 90 88 86 86 84 63 28 34 53 55 46 35 26 22 22 24 24 26 26 23 23 26 40 49 45 46 53 61 55 78 79 81 77 73 73 82
89 91 90 95 95 92 91 91 91 91 89 86 86 78 68 26 40 43 39 30 31 23 22 23 23 23 25 28 24 25 32 36 45 44 47 41 40 60 77 77 82 82 78 80 78
88 88 92 93 97 94 92 92 92 91 89 87 84 82 54 31 38 43 36 33 28 26 21 20 22 25 27 26 23 21 23 27 39 43 45 29 40 64 80 76 76 78 72 70 80
88 88 91 93 96 97 93 92 91 89 88 87 86 81 36 32 30 28 33 30 28 25 23 18 22 29 27 28 27 29 25 32 42 39 44 35 43 56 74 72 68 70 68 72 70
86 87 89 91 94 98 92 88 87 85 85 78 70 59 29 24 28 30 36 29 24 28 28 27 31 30 31 27 31 33 30 30 29 26 40 45 36 65 75 70 64 63 67 72 70
83 88 90 93 94 95 84 74 58 73 82 52 43 33 18 28 34 26 29 27 27 29 36 36 32 34 29 32 26 30 31 32 28 24 34 41 40 55 72 76 74 68 68 71 69
82 85 89 92 96 92 85 74 57 62 68 57 53 46 36 36 42 35 25 26 32 34 39 35 40 32 32 32 32 31 31 31 29 23 28 27 31 43 65 68 63 64 68 67 66
81 80 83 90 95 91 85 70 61 65 76 50 52 53 45 39 43 40 25 28 31 36 39 39 29 32 33 32 33 31 31 34 33 30 26 30 28 39 50 59 58 58 59 60 63
79 80 84 93 95 83 82 66 69 73 65 45 49 50 49 44 40 32 23 26 32 33 40 36 33 34 31 31 29 32 28 32 34 31 27 28 27 29 42 50 53 53 56 56 55
78 83 83 94 91 86 70 72 74 75 68 33 60 36 46 32 27 31 24 26 37 39 37 36 35 38 37 33 31 31 33 34 33 34 35 34 27 25 38 42 46 48 48 51 52
79 82 82 94 97 82 76 78 82 82 75 30 47 52 49 31 27 26 26 29 32 40 39 34 32 33 32 29 31 32 32 33 40 40 44 38 33 30 32 30 33 38 43 43 45
78 79 87 83 85 84 78 81 92 93 37 31 50 42 36 35 32 30 35 39 35 43 44 34 34 30 31 30 32 31 34 41 39 53 46 43 41 33 27 28 29 30 34 38 40
78 82 84 75 82 82 90 93 97 62 51 39 40 39 38 32 33 31 37 34 33 31 38 37 39 33 33 30 32 36 34 48 45 51 36 43 40 23 27 26 34 38 36 32 40
79 92 96 89 81 87 96 97 67 66 48 42 37 40 39 33 34 34 38 32 32 34 35 49 38 34 38 32 28 35 37 35 59 70 58 42 34 24 27 30 34 38 40 36 39
92 95 86 84 86 98 99 76 72 49 54 55 44 44 44 38 37 35 40 34 32 35 33 41 41 37 35 36 36 33 34 44 50 56 56 40 39 27 25 26 30 33 36 38 44
94 96 69 81 94 97 92 75 58 51 51 56 62 59 44 43 37 42 38 29 29 33 31 41 35 36 43 39 34 37 39 43 39 49 49 50 36 33 26 26 31 32 33 40 42
94 97 81 76 98 88 88 62 62 49 52 56 60 63 54 46 44 41 38 30 28 34 36 40 48 50 34 35 32 34 39 42 56 48 60 61 42 27 30 27 28 28 31 39 41
98 86 85 75 95 82 69 59 62 53 54 60 61 60 53 47 44 43 42 36 44 37 44 46 47 48 37 36 35 38 39 43 50 56 59 74 43 26 29 28 28 28 26 32 46
97 98 97 93 60 60 75 68 65 61 57 53 60 60 57 55 46 45 44 45 51 39 64 45 51 45 40 37 38 45 43 44 45 60 55 53 38 30 26 30 27 29 31 29 31
98 88 85 96 84 66 62 61 66 66 55 54 64 61 60 59 54 51 48 58 53 69 53 45 48 50 39 33 35 36 40 46 41 45 52 40 41 32 30 30 30 33 33 43 55
99 94 84 78 69 75 70 68 63 59 53 58 62 56 54 65 52 54 56 55 51 58 55 50 52 48 47 45 41 46 40 44 43 44 42 40 41 33 31 31 37 38 51 57 60
96 91 77 77 76 73 67 64 63 61 57 48 56 62 67 50 51 54 49 50 51 56 61 58 68 60 52 49 46 65 51 41 41 42 43 48 36 36 35 39 44 51 52 56 59

GFSSW_sfc_rhum_042.txt.gz
RH
95 93 91 90 90 90 89 90 91 90 86 85 85 85 83 87 83 50 30 30 32 60 68 20 17 15 14 14 14 13 14 12 14 14 14 28 28 44 45 42 49 56 56 66 88
89 92 93 92 90 90 89 90 91 90 89 87 87 87 88 90 53 32 43 66 67 70 16 15 14 12 11 14 14 14 14 13 11 12 13 18 27 37 46 45 46 68 90 86 84
83 85 87 95 93 90 90 90 90 90 89 88 88 88 88 76 40 20 71 66 73 58 16 15 11 12 13 13 14 15 15 14 12 12 13 22 34 37 38 38 40 58 93 92 85
82 82 85 90 94 93 91 90 90 90 89 86 84 86 87 51 16 16 80 77 74 29 16 16 16 17 16 16 14 17 14 14 14 20 23 33 39 44 42 56 52 63 82 90 90
86 87 84 85 92 94 92 91 91 90 89 85 84 85 51 23 11 31 80 75 31 25 16 16 18 17 16 16 16 18 15 16 22 24 32 35 35 46 65 62 60 70 82 91 90
87 89 91 90 91 96 94 92 91 91 90 86 84 88 41 22 20 32 29 28 20 18 14 15 17 17 19 18 18 17 18 27 30 32 30 33 38 40 60 52 54 58 70 83 88
83 88 89 89 91 94 96 94 93 92 91 87 84 57 46 23 19 27 24 18 18 14 14 14 16 18 19 18 18 17 21 26 28 32 32 31 31 45 50 48 54 52 59 79 77
79 85 89 89 91 92 96 96 93 92 90 88 85 59 35 20 18 26 22 21 18 16 16 15 15 18 21 18 16 17 18 20 20 30 31 32 29 46 45 45 49 49 45 60 80
78 82 87 88 90 92 97 96 93 88 85 84 70 61 26 34 23 15 20 19 21 19 18 15 17 20 20 17 16 18 17 19 19 27 29 29 25 35 45 41 39 42 42 47 67
78 80 84 89 92 94 96 93 83 82 72 62 53 57 28 14 18 23 18 18 20 21 22 21 20 21 17 15 18 18 18 19 21 23 29 27 26 30 40 39 35 36 38 42 53
76 78 80 89 92 96 79 52 48 57 67 43 35 31 12 18 26 22 23 24 20 21 24 25 24 20 15 15 17 18 17 18 17 17 22 21 21 23 35 42 39 35 37 42 39
77 75 79 83 88 94 74 62 52 53 53 37 37 33 28 23 28 23 19 23 25 24 24 27 25 21 22 22 22 22 20 20 20 19 20 16 18 19 28 40 37 35 36 37 38
78 75 78 80 93 88 68 61 48 49 58 42 32 31 29 30 26 18 20 18 21 22 24 25 21 24 24 23 25 23 23 23 22 22 19 21 19 23 28 35 37 36 31 32 35
78 77 82 84 86 61 62 53 50 54 53 30 33 30 33 27 28 16 17 16 21 22 22 24 21 24 24 23 22 24 20 22 25 24 20 21 20 20 21 31 35 34 36 30 33
81 79 81 87 89 64 53 55 60 63 46 23 37 27 31 24 19 21 16 19 21 23 24 24 24 26 24 21 21 22 23 24 25 22 24 21 18 17 21 19 22 28 31 31 26
85 79 80 72 75 61 54 61 62 65 44 22 35 41 40 31 19 18 21 18 17 21 25 19 22 21 20 22 21 24 25 25 27 25 32 21 21 17 15 14 14 17 23 28 30
84 79 78 50 65 56 67 66 63 57 24 20 36 39 32 28 22 21 22 26 23 31 31 25 23 20 22 24 25 23 26 34 34 36 36 28 26 18 15 16 18 18 17 22 27
84 83 76 60 51 69 73 92 58 19 25 26 33 35 33 21 22 22 21 23 20 19 20 26 29 21 20 23 21 24 24 34 39 38 27 30 26 17 17 18 19 21 22 23 20
83 95 87 72 63 81 95 89 34 25 28 28 28 38 34 24 20 24 23 20 20 20 23 27 23 21 23 22 19 28 30 23 35 47 36 21 19 15 16 17 18 19 23 23 22
86 93 81 76 67 96 96 64 29 21 28 33 31 34 38 27 27 25 26 19 20 19 15 25 30 26 29 25 27 26 22 33 30 42 38 24 23 15 16 15 16 15 17 21 25
91 98 64 75 83 99 90 54 32 26 31 41 37 30 34 31 26 26 23 22 18 21 17 19 25 34 32 30 24 30 29 28 26 31 38 36 24 16 16 15 18 18 18 20 22
91 99 72 63 98 92 78 48 39 30 35 40 42 48 39 34 32 28 24 20 18 18 26 22 26 36 25 24 23 19 22 25 37 33 38 46 29 14 16 18 18 17 18 21 25
94 96 82 68 92 93 59 50 35 36 33 43 46 43 43 42 37 28 24 21 22 22 23 28 30 38 30 28 27 25 23 22 29 38 39 59 31 17 19 20 18 19 17 20 24
96 99 99 94 44 57 58 52 47 35 31 38 39 43 47 48 37 34 27 31 30 22 51 36 26 29 34 24 19 30 25 24 28 43 36 38 24 18 17 17 15 17 20 20 20
98 89 83 96 80 50 49 42 44 47 38 36 45 45 46 51 44 41 32 37 37 56 29 29 31 27 20 16 16 17 17 25 27 28 33 27 21 19 15 16 14 22 22 27 31
98 80 71 54 60 58 56 55 40 40 39 39 46 45 44 44 39 43 46 43 30 43 32 28 30 32 32 23 22 22 19 18 22 21 23 23 22 15 16 19 22 24 29 36 42
94 53 51 55 59 63 60 53 47 41 37 28 33 35 48 43 43 46 44 43 36 42 43 40 38 40 35 30 30 49 37 23 23 25 26 28 21 16 19 23 23 29 34 40 45

GFSSW_sfc_rhum_045.txt.gz
RH
90 90 94 94 92 90 90 89 90 90 87 86 87 87 88 89 84 35 27 30 28 64 59 14 13 12 11 10 9 8 12 12 11 12 14 13 19 22 27 30 35 40 51 65 78
82 83 84 90 95 92 91 90 90 90 89 89 88 88 89 89 49 22 42 64 60 69 16 12 10 10 10 10 9 11 12 11 9 10 11 13 18 24 35 24 30 60 65 70 80
77 77 78 84 91 95 93 92 90 90 90 89 88 87 89 76 34 12 69 70 67 55 12 8 10 8 10 10 11 11 13 11 10 13 13 15 20 25 28 40 85 50 87 84 85
79 78 76 78 86 92 95 94 92 90 90 89 85 86 86 46 17 19 66 70 72 22 13 12 10 12 12 12 11 14 11 11 11 12 16 23 22 29 27 46 49 57 80 86 89
83 83 79 79 83 90 94 95 94 92 91 88 85 84 56 27 15 31 80 71 24 19 14 14 14 14 12 10 12 13 12 13 16 17 21 25 25 36 48 50 58 78 84 87 89
79 82 85 83 84 89 92 95 95 94 92 89 86 90 41 32 10 18 22 23 14 14 14 12 13 13 14 12 12 13 13 18 18 20 21 24 26 30 43 38 53 58 77 85 88
79 80 82 86 86 88 91 93 95 94 93 89 86 52 40 27 12 16 17 14 12 12 12 12 13 15 14 14 12 12 15 17 19 19 21 24 55 29 36 36 38 47 64 66 73
75 79 80 86 86 87 90 92 96 95 92 86 85 45 35 14 10 16 16 13 12 12 12 12 13 15 16 13 13 12 13 26 16 18 20 38 85 30 31 34 36 33 48 58 58
77 77 80 83 87 89 92 94 95 94 83 81 63 48 28 30 15 13 16 14 12 13 14 12 15 16 15 16 14 14 18 24 22 15 25 21 51 29 27 28 34 30 38 51 46
77 76 76 79 87 90 94 95 81 83 68 46 40 47 27 15 10 8 16 14 16 16 18 20 18 18 15 12 16 14 15 14 24 57 17 19 24 25 28 25 31 29 34 45 42
77 76 76 78 84 86 82 40 45 53 45 25 26 20 12 11 18 15 12 17 16 18 22 19 20 21 15 12 11 13 14 16 18 13 15 17 15 26 25 28 26 30 31 37 46
82 76 75 75 82 88 80 40 36 49 48 26 24 24 22 17 22 14 15 19 22 23 18 20 25 15 14 14 14 15 15 14 13 13 15 15 18 13 21 25 25 24 28 29 31
87 78 76 76 84 79 55 38 34 42 46 23 20 22 20 18 22 15 16 17 19 22 18 22 18 16 16 15 17 17 18 21 17 17 14 15 15 14 16 21 23 22 24 27 29
85 84 79 79 79 40 44 33 38 47 42 20 28 23 18 20 24 13 13 15 17 20 17 18 15 18 17 17 16 20 14 16 18 18 22 19 29 33 16 21 25 24 23 23 25
84 85 80 84 66 51 42 40 44 55 40 17 19 19 19 22 14 16 11 15 19 17 17 21 19 21 20 17 16 18 18 18 19 20 20 17 15 21 13 16 19 22 23 21 22
80 86 82 68 61 56 47 52 57 55 41 18 24 30 31 25 16 12 14 14 13 16 16 17 13 15 16 14 16 16 20 20 20 21 33 18 16 28 14 12 11 16 19 21 20
79 85 79 50 57 42 66 76 51 42 15 16 24 26 28 26 20 16 19 20 19 25 25 18 18 15 15 20 18 19 24 34 35 35 36 25 18 18 32 11 12 13 13 17 20
80 84 79 55 45 65 87 92 44 15 17 19 20 26 28 21 23 20 21 21 17 17 19 24 27 18 17 19 20 22 22 34 66 38 28 22 21 16 13 12 12 13 14 14 17
81 63 69 75 55 70 99 91 37 18 10 16 19 30 30 20 20 20 22 19 16 15 21 23 22 13 14 15 16 21 26 20 35 29 32 20 15 12 11 11 12 13 16 17 17
78 65 62 76 61 76 100 80 30 13 10 15 21 23 29 23 21 22 22 16 16 14 14 18 25 16 17 17 17 20 18 30 27 42 47 20 19 17 15 13 12 12 13 15 18
88 94 48 71 79 96 91 61 39 15 12 15 22 19 24 26 20 22 22 16 14 14 14 16 22 23 23 26 23 22 26 24 22 30 45 38 22 16 13 13 13 14 13 13 14
93 98 64 70 99 88 81 49 38 20 18 16 21 22 21 28 24 20 23 18 15 14 20 18 23 34 27 19 16 18 22 22 36 32 32 39 29 14 13 12 14 14 13 14 15
98 88 80 67 96 82 55 47 35 29 23 19 27 29 25 28 34 25 23 22 23 17 21 20 24 37 29 24 20 22 20 18 22 25 34 61 33 13 14 14 13 14 13 14 16
98 99 99 94 52 50 50 47 37 35 28 18 24 26 30 36 29 30 26 24 28 21 46 33 23 28 35 29 21 25 20 17 21 41 35 30 22 16 15 14 13 13 13 14 15
98 93 84 96 81 56 42 34 33 36 31 27 25 27 26 36 31 32 30 31 33 42 29 27 29 24 20 18 17 18 18 18 19 20 30 24 18 16 14 14 12 17 16 15 17
99 61 64 55 68 54 48 40 30 27 27 31 32 29 27 30 27 34 32 33 33 29 31 24 32 27 26 19 17 18 14 14 14 16 17 16 17 13 11 10 12 14 16 18 22
96 44 55 56 67 58 51 40 31 27 26 22 24 28 35 27 35 40 38 40 38 40 38 28 37 34 42 23 23 37 23 16 15 14 17 23 18 14 13 12 14 16 17 23 29

GFSSW_sfc_rhum_048.txt.gz
RH
83 83 85 88 91 95 94 92 91 90 89 89 89 88 87 88 84 28 32 31 32 66 56 16 15 14 11 12 10 8 13 15 15 17 14 12 14 17 50 29 59 59 76 85 90
76 76 77 79 87 91 94 94 94 92 91 90 90 89 88 88 54 28 40 65 63 64 15 14 12 11 12 11 9 10 14 16 10 10 12 12 14 40 77 46 62 64 58 78 73
74 76 76 74 80 87 91 94 95 94 92 91 90 89 88 78 36 21 73 67 61 54 15 12 9 9 10 9 9 10 13 12 10 12 12 12 16 17 27 59 63 66 90 80 84
76 76 77 76 75 84 90 92 94 94 93 92 91 90 87 54 24 26 72 68 67 23 14 12 10 12 12 12 10 12 10 11 10 12 13 14 20 26 40 74 61 74 80 87 90
71 76 77 77 78 84 88 91 92 94 95 92 90 89 62 30 23 34 77 66 23 19 17 13 14 12 15 12 9 12 10 11 13 15 14 16 33 49 50 65 68 76 80 86 89
76 65 74 79 80 84 85 89 92 93 95 93 90 92 50 40 12 19 24 29 15 16 14 12 12 12 15 14 12 10 12 11 15 15 18 48 67 66 50 44 59 64 76 84 86
75 74 75 74 82 85 85 86 90 92 95 94 88 63 50 38 12 10 16 18 13 12 13 11 11 14 14 17 12 11 13 12 16 17 19 32 46 63 42 36 49 62 68 79 81
74 72 68 75 82 85 86 88 91 92 94 93 84 58 53 18 13 14 13 15 10 10 12 11 12 15 16 15 14 14 13 16 15 21 34 35 62 44 36 34 36 58 62 70 64
82 75 74 68 76 84 87 87 89 91 91 82 68 58 39 26 20 13 12 16 12 12 13 11 13 17 16 18 18 15 17 18 17 19 23 50 78 66 48 30 31 46 50 59 70
84 82 76 76 76 82 86 82 72 83 72 50 43 41 31 20 12 11 11 15 13 15 16 17 16 19 18 17 23 17 16 14 24 24 21 25 56 71 67 26 31 36 47 52 56
83 85 80 77 75 82 71 53 43 65 57 38 27 24 14 15 13 10 10 18 15 16 22 18 22 25 20 17 13 11 13 19 20 18 26 16 18 52 58 39 30 33 43 45 51
81 82 84 78 77 82 66 60 25 41 46 22 23 26 20 17 21 15 9 21 22 24 19 21 27 19 16 15 14 13 14 15 12 16 15 13 15 38 61 43 26 31 38 42 46
79 84 84 79 80 72 58 48 28 33 47 23 14 16 18 17 24 19 14 17 21 23 22 24 20 16 16 17 16 15 16 17 23 17 15 16 15 21 25 21 22 25 29 36 41
80 85 83 78 78 51 43 33 30 41 53 15 12 16 12 16 19 16 12 17 18 21 20 20 15 17 19 16 13 18 13 14 17 19 21 18 28 19 17 31 23 23 28 32 32
82 85 83 83 64 60 55 51 36 57 41 10 12 15 16 20 16 17 14 17 21 19 20 23 18 18 22 17 14 17 18 19 18 19 21 22 28 18 17 23 23 24 26 30 31
82 85 82 72 66 53 47 57 56 63 44 14 23 26 24 22 19 14 18 14 16 18 18 17 13 15 17 15 14 14 18 21 21 23 37 22 20 33 28 32 20 21 24 25 27
82 82 79 47 73 46 71 83 70 50 10 10 21 25 26 29 25 23 21 21 23 28 30 18 16 14 14 18 16 17 23 38 41 43 45 19 22 26 24 23 17 19 21 24 24
83 82 73 49 50 58 83 99 56 20 21 15 13 20 29 27 27 26 22 22 20 19 23 25 30 17 16 18 21 22 23 43 68 72 53 32 27 18 17 13 12 12 14 20 23
84 78 69 62 63 77 96 97 47 25 12 15 15 23 26 25 23 26 22 22 19 19 26 27 24 14 15 15 17 22 28 22 51 48 58 40 30 19 14 12 12 13 14 19 18
93 87 73 60 65 88 99 75 38 20 17 14 17 17 25 26 26 25 27 20 21 18 18 23 32 16 14 14 16 19 18 33 30 56 59 24 19 20 18 14 12 12 16 19 21
96 99 60 61 80 98 97 76 42 24 20 21 18 16 18 21 25 24 24 20 19 19 18 20 26 25 17 20 20 21 24 31 28 31 55 55 33 41 23 16 15 17 15 21 22
96 100 65 69 98 96 78 60 48 28 22 26 22 24 20 22 24 36 23 21 15 17 22 22 33 36 22 16 17 19 23 26 42 42 45 71 39 18 22 16 16 16 15 18 21
98 97 78 69 94 95 66 48 42 37 27 24 27 26 20 25 33 30 30 19 23 20 24 24 30 42 30 28 21 22 21 21 25 31 42 72 42 15 15 14 15 20 16 17 19
99 99 98 94 52 65 63 54 46 37 31 21 25 21 23 30 37 32 34 21 28 21 55 47 29 32 46 36 25 28 23 25 32 55 48 41 30 21 17 19 15 17 16 15 18
99 96 79 96 91 59 54 41 42 41 34 28 25 26 26 49 39 43 33 37 25 36 32 34 40 31 25 20 20 23 22 20 21 22 34 30 24 19 17 20 23 19 18 16 16
100 71 61 51 70 65 61 54 42 32 30 33 34 28 25 36 33 36 37 35 33 27 31 28 39 36 40 24 21 27 26 18 18 18 18 19 20 14 13 15 17 13 13 17 17
98 60 54 60 70 71 66 53 44 36 30 22 27 32 33 30 35 56 39 51 37 36 38 38 46 44 52 30 28 40 29 20 18 15 17 23 20 15 16 15 15 15 15 17 20

GFSSW_sfc_rhum_051.txt.gz
RH
81 79 80 82 84 87 90 92 95 95 94 93 92 91 90 90 88 55 53 45 47 74 62 28 25 23 23 25 20 21 24 25 20 20 18 17 28 47 45 64 71 62 71 85 90
74 75 75 77 82 84 88 91 92 94 95 94 93 92 92 91 77 55 42 68 68 70 22 20 22 19 22 21 21 22 27 20 14 19 19 17 20 51 56 52 57 63 69 88 91
72 73 75 76 81 83 86 89 92 92 94 95 94 93 93 89 66 29 69 73 70 62 24 19 20 14 18 17 15 17 20 15 14 18 17 20 53 55 70 74 64 72 87 88 92
76 74 73 73 78 83 86 88 89 91 92 94 94 93 92 81 37 35 70 70 68 31 23 20 19 17 21 18 13 19 14 13 14 20 19 48 54 68 73 87 79 91 88 89 94
65 68 72 72 76 82 85 86 85 88 91 92 93 93 84 57 42 45 72 67 39 25 24 20 21 19 20 17 19 18 15 15 14 20 33 44 57 68 63 76 78 79 87 92 92
74 65 66 72 74 78 84 85 86 86 89 91 93 94 85 72 26 37 46 44 26 24 22 22 20 17 20 21 22 18 16 15 14 24 35 45 60 50 64 68 73 72 85 88 91
81 79 64 65 72 77 82 84 85 86 88 90 92 82 80 64 29 29 27 33 27 21 22 18 16 20 23 26 21 19 22 17 15 22 46 46 51 52 63 52 72 83 77 85 88
81 82 81 68 69 77 80 82 84 83 84 89 91 85 90 33 32 31 27 22 22 17 16 15 18 23 29 22 21 23 23 27 16 26 42 39 61 42 49 54 78 80 83 88 89
84 83 83 82 77 78 80 82 81 80 82 88 93 88 77 33 35 27 20 20 20 16 16 12 21 27 25 32 34 31 31 26 19 36 46 53 76 44 54 51 68 79 82 79 82
82 85 84 85 82 81 81 78 73 78 78 69 66 79 55 26 21 21 20 17 21 19 21 23 28 31 32 37 42 33 28 22 32 28 39 64 66 54 54 59 64 71 82 83 86
81 82 83 85 84 82 82 72 69 89 80 72 57 45 23 24 19 18 16 18 24 23 30 28 34 38 32 28 24 23 21 19 19 24 28 54 57 56 60 67 64 64 78 78 75
81 80 85 83 85 82 89 84 62 59 70 48 51 45 32 32 33 21 13 26 34 34 26 30 34 26 23 23 24 23 24 21 22 21 32 50 60 59 62 68 51 59 67 67 68
84 82 84 85 84 85 75 66 49 49 76 48 36 28 25 22 30 28 15 22 32 31 30 33 29 22 23 26 24 23 23 24 29 25 23 27 65 63 52 54 53 50 54 59 67
84 84 83 84 86 76 71 56 59 56 98 40 20 22 18 18 31 21 21 20 28 30 28 30 23 23 23 24 23 23 18 24 26 30 34 28 42 56 51 60 59 42 51 53 68
83 85 84 82 88 79 57 54 52 72 75 16 16 12 14 21 22 22 19 25 26 26 28 31 26 26 27 25 21 22 24 29 30 33 38 33 41 33 46 60 62 46 49 47 63
84 84 84 82 88 74 58 57 83 90 88 21 27 29 25 19 23 21 20 21 23 25 23 24 20 21 22 21 21 21 29 30 33 38 56 33 36 43 34 32 40 36 39 44 47
85 84 83 61 77 62 64 86 94 98 18 12 34 30 32 30 24 24 27 28 32 39 39 27 23 19 18 25 25 24 34 56 74 68 66 37 37 41 31 30 29 31 35 37 42
86 88 82 66 64 61 85 98 97 30 30 18 20 31 37 31 32 30 30 34 27 27 35 38 42 23 19 22 28 30 33 67 80 90 71 45 46 33 26 26 24 23 27 31 36
87 94 92 77 71 81 98 99 61 36 21 15 16 24 37 32 34 33 35 35 30 24 34 37 33 20 16 19 21 32 40 33 66 74 80 58 43 27 24 21 19 18 19 31 33
97 96 87 67 80 92 98 91 60 29 20 19 32 27 31 31 37 38 40 31 30 22 22 35 41 23 19 17 22 23 27 43 60 82 97 50 49 42 36 21 17 19 23 27 30
98 99 80 70 92 98 97 80 53 44 41 31 30 31 31 31 26 27 36 28 26 23 22 24 34 36 28 26 26 32 31 36 45 62 69 67 53 45 30 28 20 20 21 26 30
98 100 79 70 99 92 87 70 58 40 41 44 36 33 38 38 37 35 33 36 24 24 27 25 41 46 31 22 18 23 30 35 70 59 71 81 60 27 27 24 24 20 20 21 32
99 98 86 72 97 96 72 68 65 59 47 40 38 34 32 37 47 37 46 35 41 27 30 28 43 48 44 32 24 24 25 29 40 57 74 82 66 27 27 24 19 23 23 24 21
99 100 98 96 69 71 75 74 74 53 57 48 42 38 38 40 34 40 43 43 47 30 55 34 38 44 47 43 37 44 33 28 39 68 62 71 52 36 29 28 20 23 26 24 24
99 98 87 97 96 77 67 60 67 69 45 41 47 46 41 43 41 42 49 55 56 51 37 37 45 35 37 28 29 31 32 29 32 42 59 48 38 33 27 28 27 25 24 24 23
100 96 78 73 73 86 75 71 64 51 47 46 50 43 41 40 38 46 70 68 76 58 46 42 56 42 44 34 33 30 25 31 33 31 36 36 36 29 22 24 26 23 23 23 21
97 88 70 74 85 89 84 72 62 56 50 39 41 46 49 40 31 59 79 75 71 82 79 57 59 62 60 39 40 52 42 30 33 30 28 37 29 23 22 22 22 26 22 23 23

GFSSW_sfc_rhum_054.txt.gz
RH
78 75 76 79 84 85 84 87 90 91 92 93 94 93 93 92 91 65 57 39 58 74 69 31 29 28 29 33 28 23 35 36 28 19 21 32 36 53 57 70 70 64 71 77 94
70 69 70 74 82 84 86 87 87 88 91 92 94 94 94 94 86 64 51 71 74 78 24 22 28 30 31 29 25 27 34 28 20 18 33 61 60 62 60 61 63 66 77 92 93
67 69 69 68 77 81 84 87 87 84 86 91 92 94 94 94 69 35 65 76 76 66 23 22 24 25 24 25 24 25 26 17 16 15 29 59 70 64 57 65 85 97 94 90 92
65 65 69 69 72 76 81 87 86 81 81 84 88 88 94 95 31 37 71 71 71 34 26 25 25 24 24 26 21 23 16 16 15 21 40 53 60 73 70 82 86 90 88 90 94
79 74 67 65 68 76 77 82 84 84 82 80 85 87 93 74 57 38 69 65 44 28 25 22 25 26 25 22 23 24 20 18 18 42 52 49 58 66 84 90 88 86 88 92 92
81 79 79 73 67 73 77 79 81 82 84 81 82 92 95 88 28 28 49 48 29 27 27 27 25 22 24 26 30 26 24 23 18 44 42 48 59 54 61 77 81 90 95 90 92
82 83 82 80 77 75 76 78 80 81 83 79 80 86 84 75 40 40 38 41 32 26 25 23 24 26 25 26 28 23 26 23 22 39 48 51 58 58 66 78 84 91 95 92 88
81 83 85 83 82 82 80 80 80 78 78 80 80 87 86 47 49 46 43 40 31 27 23 22 20 24 28 29 26 27 32 33 23 42 46 52 54 50 72 82 93 94 92 94 84
82 82 88 87 84 85 84 82 80 77 78 84 86 93 88 49 49 40 33 29 25 28 23 16 22 25 30 34 39 40 38 34 28 28 46 48 56 56 58 57 92 94 97 96 93
83 83 84 87 85 86 86 82 73 81 78 76 75 84 59 28 27 24 32 24 25 29 26 24 30 32 36 40 47 39 38 43 29 39 51 58 59 56 63 72 86 95 95 95 96
80 83 83 84 85 87 88 76 63 81 86 80 71 60 32 23 28 24 26 24 26 29 31 33 34 42 36 34 31 31 32 33 25 24 43 52 54 51 62 69 90 95 92 94 96
81 84 84 84 84 87 89 83 71 68 77 50 59 58 44 38 44 32 23 25 34 41 31 34 36 29 29 30 32 32 34 33 23 25 27 55 53 62 62 68 70 82 93 92 91
83 82 85 84 85 87 84 66 51 67 91 54 42 49 47 46 52 35 27 27 39 44 37 34 30 25 27 29 32 33 36 31 25 26 31 47 54 71 59 59 55 64 79 80 83
85 83 85 83 87 80 79 58 55 63 96 60 40 34 31 31 44 26 26 21 37 38 38 35 24 26 31 31 29 37 26 24 27 33 36 30 43 62 62 60 59 61 72 72 78
86 85 85 81 88 88 63 56 57 80 37 15 25 22 27 24 26 29 18 28 34 35 33 38 34 33 34 30 27 32 28 27 30 38 43 38 43 38 57 63 60 59 63 67 70
87 87 86 87 97 84 64 61 80 94 87 38 26 25 29 26 27 26 30 28 30 32 30 28 24 28 29 25 26 24 31 35 41 44 57 41 41 48 67 50 53 48 53 61 68
86 87 86 71 81 69 59 86 96 90 27 19 37 32 24 27 22 29 30 36 40 47 42 29 28 24 24 28 29 29 36 56 60 71 65 42 50 44 41 41 46 46 50 52 65
86 88 87 79 77 74 84 99 93 49 32 24 23 34 37 28 25 27 35 38 34 37 45 45 51 29 25 27 30 33 36 61 65 87 70 52 53 34 29 31 37 40 39 44 52
88 96 96 92 81 86 97 99 73 51 28 28 21 23 46 36 36 30 38 36 33 30 43 51 42 25 22 22 26 34 40 38 66 77 80 63 48 33 30 27 28 38 36 41 49
97 97 88 82 81 94 99 90 65 45 39 39 37 36 41 38 40 44 44 37 34 31 28 38 50 29 23 25 24 28 29 49 65 75 78 67 54 45 36 25 22 27 33 38 40
99 99 80 82 91 99 97 80 62 50 49 54 44 38 41 45 40 38 41 37 33 33 31 30 42 40 34 35 32 35 37 43 49 66 71 73 52 46 38 31 25 21 26 34 38
99 100 88 75 99 94 87 63 61 51 46 47 50 44 43 45 48 43 42 37 35 30 36 32 38 44 35 28 26 30 33 39 60 62 70 79 53 34 32 26 25 23 24 33 35
99 98 94 79 96 94 69 64 62 60 55 54 49 47 38 48 54 49 47 38 48 47 43 35 46 61 43 34 32 32 30 31 46 62 70 80 64 35 33 30 28 26 26 25 35
99 100 100 97 79 76 74 67 67 57 59 58 60 55 51 52 46 52 46 40 54 58 73 62 46 40 48 46 40 44 32 29 41 76 64 66 50 39 33 29 26 24 23 27 30
99 98 90 98 96 86 73 62 65 65 59 56 63 58 63 63 45 43 45 59 53 68 64 61 51 44 35 32 31 30 35 36 37 43 53 46 47 38 37 33 30 26 27 25 25
100 98 86 82 77 88 78 75 70 64 58 64 63 49 52 62 53 50 49 60 66 64 72 71 77 49 52 36 35 37 30 33 35 38 41 41 46 33 28 30 30 29 27 25 26
97 89 73 81 79 94 85 75 65 65 59 52 52 53 56 49 48 51 55 60 71 69 84 87 93 88 58 42 38 54 42 38 33 38 39 48 42 32 31 31 30 30 28 28 26

GFSSW_sfc_rhum_057.txt.gz
RH
73 71 71 74 78 80 81 83 86 82 80 80 87 92 92 92 88 75 62 42 67 78 59 33 30 30 32 34 31 28 38 44 35 28 22 44 43 58 64 74 74 69 77 91 93
68 66 68 71 77 78 81 84 86 84 81 81 85 91 88 89 90 79 56 71 77 74 27 26 30 32 36 36 30 31 39 32 25 21 23 59 60 54 62 64 67 74 89 96 93
69 65 65 67 69 74 79 81 84 81 81 82 83 84 86 88 70 34 62 72 82 69 22 20 24 27 34 29 27 30 28 22 17 18 35 65 73 65 68 68 80 87 92 97 96
73 72 72 68 66 67 76 82 81 77 77 77 79 80 85 97 16 40 75 78 77 43 24 24 26 29 24 24 22 26 20 18 18 20 53 59 63 70 70 80 88 92 90 96 97
83 79 75 73 75 76 77 80 79 80 78 76 77 78 91 83 66 44 69 68 48 26 23 23 26 26 26 24 27 24 25 24 23 40 51 54 56 65 97 96 94 95 96 96 97
84 83 82 78 79 81 81 79 80 81 81 77 76 79 86 88 31 36 53 51 32 31 29 24 23 24 26 28 31 27 27 26 24 48 51 48 60 65 79 92 98 97 92 95 92
82 83 83 80 83 83 82 83 84 82 81 77 75 74 77 74 50 45 36 45 38 28 27 27 25 32 31 30 28 28 29 27 31 48 44 52 55 64 68 88 95 98 98 84 91
77 84 84 85 86 83 84 84 85 84 81 79 76 80 85 50 60 55 55 47 38 32 29 25 24 28 30 29 28 30 37 37 29 43 43 48 52 52 85 92 96 97 99 85 79
83 85 86 86 86 85 85 85 85 82 79 80 82 88 87 54 55 50 42 36 32 34 32 21 26 28 32 36 39 43 36 39 30 32 48 53 54 58 92 89 97 98 98 97 97
83 82 84 86 85 85 86 86 78 83 76 74 74 86 61 40 30 31 44 32 29 32 37 31 31 36 41 39 48 38 42 55 35 35 58 68 57 58 69 69 94 98 99 99 98
82 82 82 86 85 85 86 76 59 81 77 80 71 70 46 32 35 36 30 33 28 33 40 33 38 42 32 35 33 36 39 39 32 26 43 50 56 53 73 89 97 97 99 98 98
84 84 84 84 87 86 90 86 71 68 92 62 57 60 54 48 54 36 28 32 36 41 35 37 41 28 32 33 36 37 40 40 33 27 41 40 42 55 68 76 91 94 97 95 97
85 85 84 86 88 86 91 78 52 60 92 74 54 49 39 52 58 45 33 30 37 43 39 42 33 27 31 35 38 38 42 41 40 31 41 52 42 70 56 64 68 83 90 90 92
86 86 86 85 82 83 85 63 57 61 96 54 59 41 40 45 58 30 24 27 40 34 45 42 30 31 36 33 35 42 33 34 32 36 41 36 47 37 64 60 67 69 90 93 91
86 87 87 84 85 85 61 54 57 80 51 15 33 28 37 35 26 36 26 28 32 43 42 47 39 36 34 31 32 39 37 36 35 40 45 44 46 38 70 62 53 63 76 87 84
87 87 88 94 97 90 74 63 77 98 76 35 28 38 43 37 28 31 33 32 30 37 39 34 32 33 34 30 31 29 37 43 51 48 60 43 44 50 70 56 43 53 64 74 77
86 87 87 77 86 77 74 82 99 97 32 24 35 32 33 35 28 30 39 39 42 49 48 32 34 30 30 34 34 36 41 58 58 69 66 47 55 46 38 43 38 45 55 65 68
87 89 87 86 86 78 88 97 93 55 46 28 25 30 32 30 28 26 39 35 40 40 44 41 51 33 30 30 33 37 40 63 61 78 60 57 60 42 33 29 37 41 44 54 66
87 96 97 98 83 89 96 99 74 61 39 47 28 36 40 38 34 34 38 37 28 37 44 55 48 31 28 26 27 38 47 38 65 82 85 65 51 38 31 31 45 53 50 53 62
97 98 88 92 82 94 98 88 85 52 54 52 39 38 45 41 41 43 45 39 35 28 33 44 52 34 27 28 29 31 34 53 66 80 81 64 62 52 41 31 32 39 53 49 49
99 99 82 81 90 99 95 76 62 49 50 60 58 52 50 48 44 40 42 42 38 37 32 34 46 43 35 39 36 39 42 47 52 67 68 73 60 48 41 37 30 26 32 46 47
98 100 89 79 100 97 90 66 56 52 52 55 58 51 52 54 53 47 42 40 45 47 44 42 51 50 38 31 30 31 39 42 61 61 75 80 49 35 38 38 34 28 24 36 45
99 98 95 79 97 90 72 66 57 58 56 58 56 54 46 53 49 53 51 43 48 48 62 57 55 54 47 40 36 38 36 36 53 65 72 74 58 38 39 34 31 31 32 27 36
100 100 100 97 86 71 85 75 69 58 64 62 63 62 58 58 52 53 52 42 40 61 74 72 59 52 58 46 40 44 35 34 42 66 58 62 44 40 37 36 34 32 30 28 28
100 98 92 98 95 78 69 64 75 67 58 62 66 62 66 78 59 58 44 44 45 64 65 73 84 73 50 37 33 36 39 38 41 42 49 42 53 36 37 36 32 31 32 27 28
100 100 94 95 81 84 77 75 66 62 61 66 70 65 60 65 59 60 49 49 53 64 70 70 90 91 71 45 39 39 34 33 35 41 45 44 48 40 34 34 37 32 31 29 29
96 90 87 97 92 94 80 74 72 63 63 51 61 67 71 60 54 52 53 57 63 64 71 78 88 92 94 73 51 62 46 36 38 41 44 54 46 36 37 37 36 33 33 31 28

GFSSW_sfc_rhum_060.txt.gz
RH
71 69 66 68 69 74 77 78 80 78 78 78 79 80 80 84 85 88 64 42 66 73 59 36 30 30 34 35 34 32 40 47 40 32 23 32 42 58 66 75 78 71 79 94 90
76 69 65 68 69 68 71 79 82 77 78 78 79 82 81 83 86 97 61 74 74 77 32 29 35 34 38 39 35 33 41 34 29 26 22 22 56 56 66 70 71 77 91 94 94
74 73 72 72 74 78 78 79 81 79 75 80 80 80 84 82 76 27 72 74 78 69 24 23 30 28 35 33 30 33 30 25 21 22 22 32 76 66 72 66 66 75 84 91 91
75 75 74 73 73 76 82 84 81 79 78 76 75 78 83 93 18 42 76 78 81 51 23 24 28 31 27 27 25 30 24 22 19 25 43 60 65 70 60 58 81 91 90 94 92
83 79 75 72 74 77 82 82 83 83 82 77 75 76 81 90 66 44 72 78 57 27 24 24 28 27 25 24 26 25 25 26 24 29 48 56 60 67 86 91 94 97 95 97 90
84 84 81 76 74 76 81 80 82 83 84 80 77 75 92 82 33 46 49 58 35 29 28 23 23 25 27 28 30 29 28 29 27 37 50 54 62 68 62 93 99 93 90 84 90
81 83 84 81 80 82 83 82 82 82 82 81 78 73 84 64 51 49 48 45 40 30 28 28 25 32 33 36 29 32 34 29 27 44 50 55 58 69 66 96 99 98 98 88 86
77 83 85 86 86 86 85 83 80 79 81 80 78 84 85 49 64 60 62 49 41 36 34 30 28 29 31 30 31 35 37 39 28 49 51 51 53 50 89 97 98 98 91 81 83
83 85 85 85 86 86 86 84 78 77 81 82 80 78 81 51 58 54 50 41 34 37 37 23 28 32 34 38 39 41 42 38 30 38 55 58 54 61 93 96 96 98 98 86 92
84 84 84 85 86 89 88 83 71 79 73 71 65 74 47 23 33 38 55 42 32 38 40 39 37 40 43 41 47 45 46 54 39 38 54 66 59 61 95 98 95 96 98 94 98
84 85 86 85 86 88 88 78 70 75 73 80 76 62 45 38 39 42 40 40 37 40 45 42 46 48 36 38 33 34 42 43 35 31 39 38 51 41 66 95 90 94 97 98 98
85 86 86 86 87 89 92 88 74 73 94 64 68 67 56 53 67 40 34 39 40 43 41 42 45 36 31 35 36 39 45 41 35 32 37 41 44 47 72 83 86 89 95 98 99
87 87 88 88 88 83 92 81 60 59 96 67 59 54 38 44 55 43 36 36 41 44 41 44 39 29 33 40 40 42 45 44 40 38 38 54 48 47 55 68 83 91 91 94 95
87 88 89 89 88 87 88 59 55 62 94 65 74 54 38 50 61 30 27 30 41 39 45 43 35 35 38 36 36 43 36 36 39 42 49 46 61 38 44 60 73 76 94 94 94
85 88 89 86 94 93 63 65 54 90 63 19 44 32 44 34 27 40 27 32 42 41 46 47 45 38 41 38 33 33 37 40 42 48 50 47 50 41 70 50 52 66 77 90 93
83 85 87 92 97 87 84 74 78 98 83 38 36 43 54 45 33 36 36 33 31 43 45 38 39 37 32 32 33 32 39 45 55 53 66 47 47 53 45 44 44 50 60 77 92
82 83 88 84 82 83 80 86 97 96 42 29 34 42 45 45 40 36 40 44 39 47 49 39 40 36 32 36 41 39 45 62 62 73 70 48 55 43 38 36 42 40 52 67 83
84 86 88 89 77 83 89 98 94 66 60 38 33 32 41 35 34 34 39 44 38 40 43 41 48 35 32 34 39 44 42 66 64 73 58 60 66 44 38 35 34 40 44 71 83
84 96 95 92 80 87 93 99 81 67 51 58 44 39 45 37 38 32 40 33 31 38 42 48 43 33 33 32 29 41 50 40 67 85 85 65 50 38 31 31 35 51 55 66 80
99 97 86 90 78 94 99 82 78 61 56 56 58 48 51 44 44 43 39 43 32 34 39 46 54 37 31 30 35 35 38 57 68 78 84 66 68 47 36 33 33 41 58 59 69
97 99 83 83 95 99 98 92 62 45 54 59 64 62 52 54 48 43 50 44 45 43 37 42 47 44 38 41 39 41 45 52 55 68 65 68 63 51 39 38 40 34 36 54 61
97 98 93 88 100 100 97 94 55 50 54 57 62 65 55 53 48 53 52 48 37 53 45 43 51 56 38 33 34 36 44 44 62 61 76 77 47 36 38 38 40 38 30 29 50
96 95 96 87 98 98 97 82 61 54 61 62 63 65 57 54 44 50 52 48 41 40 68 58 58 66 55 43 40 42 39 41 56 63 70 71 56 37 38 38 36 35 32 34 35
100 98 99 99 93 85 87 81 75 60 58 66 66 65 62 63 52 57 50 44 42 36 77 74 64 64 67 57 44 51 40 36 46 69 64 69 49 39 39 39 33 37 36 35 32
99 99 90 99 98 81 76 73 77 69 62 61 70 67 69 73 65 60 53 55 48 47 66 72 79 83 73 60 52 43 41 42 44 49 54 47 52 39 37 37 36 34 34 34 30
100 99 98 98 80 94 84 81 67 64 66 72 74 68 67 76 65 66 55 54 54 56 64 68 82 87 72 66 63 63 42 40 41 45 48 46 48 38 36 37 39 37 37 36 32
98 94 97 97 93 97 92 74 73 62 65 57 63 69 76 63 58 53 58 56 57 62 77 83 87 92 91 79 72 74 59 48 41 39 43 48 45 37 40 41 40 37 38 35 33

GFSSW_sfc_rhum_063.txt.gz
RH
77 75 74 75 76 78 77 76 80 77 75 74 75 76 77 83 83 76 66 32 59 75 57 37 24 24 21 23 22 22 26 27 26 26 18 17 27 42 49 49 59 57 61 67 75
73 72 72 73 78 80 82 83 83 81 78 77 78 80 82 84 81 78 60 68 74 76 25 22 25 24 22 26 24 22 27 24 21 20 17 16 21 24 46 53 55 60 64 77 78
72 72 72 72 73 78 81 84 83 77 79 80 80 80 81 81 62 24 75 78 76 70 23 21 26 25 26 25 24 25 23 22 18 18 17 18 35 40 46 45 48 54 61 75 83
75 75 76 73 72 74 81 83 80 74 76 76 77 77 81 83 10 31 76 77 78 51 20 24 27 25 25 25 22 23 20 18 15 18 23 24 39 52 52 46 62 64 69 78 83
79 78 77 75 77 78 82 84 82 76 76 76 78 78 77 67 40 36 62 76 66 33 21 20 24 24 24 19 20 22 18 19 17 21 25 42 40 43 54 59 76 78 82 83 81
82 82 79 77 75 76 82 83 83 82 78 74 76 75 78 60 22 41 42 47 36 25 23 20 18 20 21 20 20 22 20 20 22 21 31 39 40 47 42 70 85 84 80 76 80
80 82 83 79 78 78 81 83 84 82 79 73 74 70 80 48 33 36 44 39 34 26 26 23 20 22 23 26 24 24 26 23 21 21 29 41 38 48 46 74 88 83 82 77 73
76 82 86 87 86 85 86 86 85 81 79 78 77 76 80 41 50 54 49 40 35 29 32 24 23 22 22 24 25 25 28 28 19 36 40 38 29 30 56 73 90 87 86 75 72
80 85 87 88 88 88 88 87 82 77 80 82 79 76 65 43 55 44 43 34 32 30 30 24 25 26 27 26 30 33 28 28 22 27 39 39 31 35 72 72 70 79 85 79 72
81 84 87 87 88 89 90 86 76 78 72 67 64 54 45 22 30 38 49 39 28 34 34 34 30 30 32 26 27 33 33 32 28 29 35 38 36 28 59 72 64 69 80 84 81
80 82 87 88 88 89 88 75 66 65 67 73 68 48 41 49 42 38 43 42 32 35 44 39 39 38 28 31 27 28 29 28 25 22 26 30 31 26 36 69 70 70 74 86 85
80 85 87 88 88 89 82 75 76 74 90 59 64 62 54 49 66 40 34 39 38 32 38 40 46 35 30 30 28 29 30 30 27 27 27 27 28 24 38 46 58 59 65 77 85
84 85 86 89 89 80 84 82 55 60 89 63 52 57 50 46 54 40 34 37 35 40 37 38 32 32 31 34 33 33 33 34 28 30 28 33 30 26 30 47 56 57 53 64 80
81 83 86 88 82 84 74 63 62 66 93 62 62 58 39 43 54 32 24 31 38 36 40 31 29 34 33 34 30 37 31 30 31 29 34 30 37 30 24 31 47 48 62 65 72
81 84 86 84 88 85 68 75 65 88 77 28 47 31 38 34 26 41 26 28 31 38 40 39 40 36 35 30 30 26 32 33 32 34 39 35 34 28 34 29 24 31 50 59 68
80 82 84 87 95 82 79 77 82 96 74 44 35 46 49 43 37 38 34 27 27 39 40 31 34 30 25 32 29 28 31 38 43 42 52 36 34 29 29 26 26 27 37 52 63
80 83 83 81 88 75 78 80 89 89 44 37 40 33 36 40 46 39 40 38 34 50 54 38 34 30 31 33 33 30 35 45 53 59 51 39 40 29 27 24 27 27 26 44 58
81 82 84 90 89 81 83 91 95 48 62 43 41 40 40 36 38 37 41 37 32 31 37 44 46 34 31 34 36 36 32 50 54 56 43 45 44 26 28 26 28 27 29 36 58
82 94 95 92 91 94 96 95 64 54 54 61 49 43 46 37 38 37 41 38 28 37 38 42 38 27 31 30 30 40 42 33 54 66 58 44 41 30 24 23 24 24 37 43 56
98 97 94 91 93 96 95 80 60 58 55 56 62 54 55 48 48 43 45 39 39 35 34 42 47 34 28 27 28 32 32 42 51 54 59 48 48 33 28 24 25 28 28 40 50
97 96 82 91 93 99 98 88 60 44 43 60 64 63 57 53 45 56 50 34 36 47 35 39 39 40 36 34 34 34 37 42 40 51 49 48 41 42 32 30 30 33 30 29 42
94 99 91 94 99 99 98 88 60 49 49 53 57 62 59 50 47 46 53 48 40 35 48 39 51 55 40 31 28 29 34 38 50 54 60 60 39 30 32 32 35 31 30 27 24
100 94 94 95 97 96 99 84 63 55 53 58 61 64 56 56 53 53 50 42 42 37 42 62 54 56 46 38 34 34 32 39 48 53 48 62 41 32 33 29 30 32 29 27 28
100 99 96 98 91 89 92 89 79 63 58 54 65 60 57 61 51 51 46 40 49 44 70 71 68 60 54 55 53 46 37 33 37 59 49 50 37 32 31 29 25 29 31 28 28
99 98 94 98 92 96 80 74 75 71 58 57 60 62 59 62 59 52 43 46 38 58 54 69 76 73 67 58 58 56 49 40 37 38 44 37 39 31 34 30 26 29 32 31 30
100 99 97 90 91 92 98 77 71 66 61 67 72 65 64 68 58 55 55 50 50 50 54 53 74 76 67 57 53 56 49 43 38 38 38 37 37 30 28 32 32 30 28 28 28
98 94 94 76 89 99 96 76 70 62 62 50 60 65 69 60 56 55 55 55 54 59 61 64 79 76 64 72 59 66 53 45 43 39 40 47 37 30 30 34 37 33 31 32 32

GFSSW_sfc_rhum_066.txt.gz
RH
72 72 72 73 75 77 77 78 80 77 77 77 77 78 80 83 78 29 29 27 35 76 60 28 22 16 14 13 14 13 14 12 11 12 13 12 16 13 20 20 31 34 36 38 48
71 71 71 72 75 78 79 78 81 77 74 76 77 80 83 83 48 23 32 61 70 78 22 24 19 15 13 12 13 14 13 11 10 10 12 12 13 14 22 17 25 33 39 46 50
70 72 73 74 74 77 79 82 82 77 76 74 78 80 84 70 24 9 76 80 77 67 18 17 14 13 11 11 13 12 13 9 12 11 11 13 13 17 18 16 18 26 35 45 55
74 75 75 73 72 75 83 85 81 75 73 74 72 77 81 46 8 20 68 75 76 35 18 17 15 14 14 14 11 15 12 10 10 11 12 14 14 19 20 22 33 29 38 49 60
77 78 76 74 73 74 80 81 81 77 75 72 72 74 52 25 11 8 53 60 38 26 18 17 18 15 15 11 12 16 10 10 11 11 13 14 18 17 20 20 35 42 49 55 59
80 80 78 77 77 78 82 84 84 84 81 76 72 74 52 32 10 17 26 25 24 25 18 15 15 14 14 13 13 11 12 10 10 12 13 19 14 28 16 20 39 45 44 56 60
77 80 82 81 81 82 83 86 86 84 83 77 75 56 58 29 16 14 15 18 25 20 22 19 15 15 13 15 13 13 16 13 13 13 13 17 17 19 15 35 39 42 46 51 53
78 82 87 87 87 87 87 88 87 85 82 78 76 66 56 18 22 28 21 17 15 23 22 16 18 18 18 14 18 17 16 16 11 11 14 22 17 10 24 34 38 39 49 52 51
80 83 86 88 88 89 89 88 85 79 78 78 66 62 36 31 33 22 26 24 14 23 22 20 21 22 19 19 18 20 17 17 13 12 16 24 17 21 31 31 30 41 46 50 47
76 81 85 87 89 89 89 85 68 74 58 51 47 55 30 24 16 29 37 34 23 17 24 29 25 25 22 19 22 19 20 15 16 15 18 17 20 14 18 29 34 32 40 46 48
76 78 83 87 87 89 68 36 34 41 42 41 38 46 38 23 26 27 43 40 29 18 30 32 29 30 22 21 16 14 16 15 12 13 16 15 14 14 14 23 32 31 36 45 48
75 79 82 84 88 87 54 52 72 62 77 43 40 37 30 30 42 37 40 42 38 25 22 34 39 24 19 18 19 17 18 16 13 16 18 12 15 14 13 17 20 28 32 38 48
77 77 80 86 84 66 56 54 47 53 60 45 37 38 36 32 43 36 32 36 34 36 21 30 25 26 24 22 22 19 19 18 17 19 16 19 20 16 12 19 24 27 26 32 42
80 82 85 86 74 54 50 50 46 56 73 36 44 40 41 32 43 29 32 40 28 30 28 23 17 24 26 26 21 23 16 18 19 22 16 21 22 16 14 14 17 19 30 31 38
79 81 83 80 58 56 51 49 49 65 44 25 31 28 30 30 22 28 31 36 37 27 29 28 22 22 26 22 19 22 16 21 21 22 20 17 24 15 16 17 13 13 19 30 36
77 79 81 55 66 52 50 54 57 77 38 32 30 36 41 34 26 35 31 28 32 50 50 37 22 21 18 18 20 19 22 23 23 21 32 22 24 18 14 17 14 14 16 24 33
76 76 72 53 57 63 59 54 69 49 21 33 34 32 31 29 35 34 45 40 34 46 51 42 27 23 21 20 21 22 24 34 36 39 34 21 26 22 15 14 15 17 15 21 30
76 80 63 52 52 64 72 74 69 25 29 28 38 31 27 30 32 36 43 43 32 29 28 37 45 26 26 23 26 26 24 31 40 40 31 26 30 20 14 14 16 16 16 19 28
77 58 62 53 61 77 95 83 34 29 34 48 35 33 33 32 34 33 37 33 29 25 31 36 38 24 24 24 22 28 32 22 34 42 35 27 24 20 15 14 14 15 18 22 25
73 69 54 50 66 90 99 70 41 33 47 46 41 39 44 40 40 52 45 36 35 22 22 28 37 25 24 24 22 26 22 35 33 45 47 29 29 25 19 16 14 17 18 22 28
80 76 46 55 73 93 96 62 46 30 33 48 52 50 45 43 36 64 87 56 41 31 24 30 33 35 25 32 26 28 30 30 26 29 40 41 30 24 20 17 18 18 18 20 25
74 88 69 77 93 83 89 53 62 38 31 36 45 49 50 45 42 45 73 50 41 42 37 32 39 38 31 23 19 20 26 27 37 39 36 40 30 22 23 19 21 18 17 19 17
82 64 71 83 89 80 74 58 56 47 38 36 42 46 42 47 45 35 75 51 38 45 47 47 37 38 34 29 26 27 24 24 26 29 38 56 31 19 24 19 17 19 16 16 18
91 98 74 89 74 70 64 57 62 46 42 36 42 48 46 47 39 42 38 52 54 48 69 57 48 38 33 30 35 34 27 24 30 42 36 31 26 22 20 19 17 16 16 17 19
100 97 54 93 81 73 68 57 75 56 46 39 43 43 45 54 46 45 38 34 43 52 44 48 84 62 51 50 46 46 43 32 28 27 35 28 26 22 20 19 19 19 19 18 18
100 97 80 61 93 85 77 74 63 44 46 47 51 43 48 53 46 48 44 41 43 47 45 43 76 57 50 43 43 46 37 36 32 30 30 28 29 20 20 20 21 22 20 17 18
98 86 94 59 62 68 79 62 72 62 46 39 46 58 65 56 50 44 44 46 47 52 54 52 65 61 56 42 38 50 43 37 35 31 32 37 31 26 26 26 26 24 25 23 20

GFSSW_sfc_rhum_069.txt.gz
RH
71 72 72 73 74 75 76 77 78 77 76 74 74 76 78 84 80 23 14 19 30 71 67 19 19 15 12 11 10 9 13 12 9 9 8 8 11 9 9 12 10 18 23 25 35
68 69 70 72 75 78 79 80 82 78 76 75 76 79 81 84 46 18 45 72 66 67 25 17 20 14 12 11 10 12 12 10 7 7 8 8 9 9 11 11 11 14 21 27 33
68 69 71 73 73 74 78 82 83 75 74 76 76 76 79 67 21 16 65 76 82 61 22 12 14 13 14 10 10 11 12 8 7 7 7 8 9 8 11 13 12 18 18 26 34
70 72 74 73 72 74 80 82 82 77 76 75 75 73 76 47 14 14 58 70 70 32 25 16 16 16 15 12 9 11 9 9 8 7 8 10 9 10 11 14 13 18 22 27 40
76 74 75 73 74 77 82 84 85 82 80 78 76 74 50 29 20 7 47 52 29 26 23 16 17 16 16 10 9 11 9 8 8 7 8 9 10 12 11 9 10 20 32 33 37
80 78 76 77 78 79 83 84 85 86 84 80 78 76 45 45 16 8 9 8 12 23 21 16 14 13 13 12 11 10 9 10 8 8 8 10 11 11 11 10 12 21 29 32 39
76 82 81 80 80 81 83 86 86 86 85 81 78 53 41 31 15 11 8 9 7 11 20 16 13 13 14 15 11 10 11 10 10 8 8 8 11 12 9 9 14 20 27 31 34
72 77 85 86 86 87 87 87 87 85 84 79 78 47 37 16 14 15 13 13 11 8 10 15 16 18 16 12 12 14 13 15 10 9 9 10 17 10 9 13 17 22 24 30 34
73 77 84 86 87 88 88 87 84 84 78 74 60 47 31 28 20 14 14 16 18 17 10 12 16 21 20 20 18 17 17 16 13 9 10 12 15 10 15 15 18 19 23 30 32
72 75 80 85 86 86 87 87 65 69 62 38 34 47 32 19 16 15 24 28 27 25 15 19 21 23 21 21 25 19 16 15 15 11 11 11 15 11 13 16 18 18 22 28 33
68 72 77 82 84 83 70 34 28 43 31 25 24 30 19 14 19 19 20 28 34 37 45 15 23 27 24 22 18 15 14 14 13 10 13 14 12 11 10 12 16 19 20 26 31
71 74 74 81 83 80 62 38 48 50 66 34 29 27 22 19 22 21 29 38 45 55 40 15 23 19 18 19 19 17 16 16 13 10 13 12 10 9 9 10 12 16 18 21 30
74 75 75 82 80 66 41 42 34 41 51 28 25 25 24 23 27 22 28 39 52 60 59 33 16 19 21 21 21 20 21 18 16 12 14 14 14 12 10 10 10 13 13 16 25
75 76 83 83 69 47 38 35 35 46 57 25 24 27 28 28 32 18 18 36 57 61 58 40 19 22 26 26 20 24 16 16 15 17 20 13 16 14 11 11 12 13 16 16 22
76 76 81 77 50 39 35 35 41 56 35 18 24 22 25 27 20 23 19 34 53 62 58 61 34 23 27 26 20 24 17 16 17 19 20 18 16 14 11 11 11 10 12 18 20
74 75 76 48 52 43 36 45 50 77 33 21 21 26 32 26 26 26 23 26 36 61 62 51 35 37 22 17 19 16 19 19 20 22 31 22 19 17 13 12 12 10 11 16 20
73 74 67 42 52 46 48 60 56 44 10 15 24 24 22 20 24 25 37 44 60 89 76 54 46 33 29 20 21 18 23 32 37 36 37 18 19 18 12 11 12 12 11 15 19
73 77 57 39 45 48 54 60 57 14 16 11 20 20 15 14 26 30 37 41 44 51 63 82 71 36 25 21 23 22 23 33 46 45 30 18 24 18 12 11 12 12 13 13 18
74 48 49 49 47 59 80 74 29 18 12 20 24 17 16 22 28 29 35 39 40 38 73 54 50 31 36 22 22 25 27 19 28 35 37 23 20 16 15 13 11 12 14 15 17
48 50 50 49 50 78 93 62 29 20 28 28 26 17 26 24 33 39 39 46 51 39 37 48 50 33 42 27 25 29 19 31 26 50 53 30 25 22 18 15 13 14 16 17 18
52 72 38 42 61 92 94 52 34 22 21 32 28 25 28 30 30 50 61 61 60 52 41 31 35 44 33 44 35 30 28 27 25 29 41 43 32 18 18 17 15 16 15 18 22
52 91 52 51 95 76 85 48 40 30 24 26 27 31 34 32 35 37 85 52 57 53 53 29 36 50 38 27 28 27 27 28 38 38 32 41 39 17 17 17 17 16 14 15 15
80 54 52 76 92 76 54 39 34 33 30 29 29 26 28 34 43 32 53 60 56 55 57 68 45 49 49 40 24 33 29 25 28 34 60 58 33 18 18 17 15 15 14 14 15
93 96 55 81 66 59 54 52 42 35 33 29 33 25 29 42 40 38 37 49 50 55 68 56 57 53 49 41 28 33 26 23 28 43 38 39 31 21 18 17 17 16 15 15 15
93 86 57 85 70 55 52 53 43 36 35 28 34 32 39 50 47 42 34 32 33 58 55 53 88 70 37 44 33 31 28 25 26 28 35 29 25 19 19 18 18 18 18 16 15
98 69 52 54 48 54 52 53 48 35 36 41 38 29 32 36 36 38 32 37 44 39 54 57 81 95 62 35 37 37 30 29 27 29 28 27 29 20 18 18 21 21 19 18 16
79 56 74 62 53 66 64 43 41 39 36 38 38 33 36 39 44 44 41 43 40 46 51 53 76 91 90 59 47 56 41 37 38 31 32 36 34 29 25 27 27 28 26 32 28

GFSSW_sfc_rhum_075.txt.gz
RH
67 68 69 71 73 75 75 78 82 79 79 78 78 79 81 85 83 54 46 39 48 57 59 25 22 31 33 39 25 26 30 31 25 20 16 12 15 14 12 13 14 15 17 40 51
69 69 69 70 76 78 79 82 85 82 79 78 80 80 84 85 80 58 50 60 65 59 26 22 19 27 41 37 30 26 28 25 18 16 15 12 13 14 16 15 16 21 48 49 47
65 69 70 69 70 75 80 84 86 79 79 80 80 80 83 80 60 30 60 67 66 72 46 26 15 16 35 32 30 25 26 18 16 15 13 14 12 11 14 17 19 24 46 46 44
68 71 73 73 75 76 81 84 82 77 76 75 76 77 81 74 26 21 59 66 69 57 47 34 25 21 28 32 25 28 19 17 15 13 13 13 12 12 16 17 19 15 22 44 47
73 72 73 72 72 75 81 83 83 78 76 76 76 77 78 52 39 26 68 65 57 35 32 32 27 24 29 24 25 24 19 15 13 12 12 11 12 13 14 12 12 13 31 34 46
74 75 73 73 73 74 80 82 81 80 80 77 77 78 82 65 19 15 16 18 14 15 16 26 29 22 26 25 23 20 19 16 14 12 11 11 12 16 13 14 12 12 38 40 40
71 74 72 73 75 76 80 82 80 79 79 75 78 73 78 64 23 26 22 21 19 19 15 12 14 20 28 30 20 20 24 19 16 14 13 11 15 14 13 11 12 13 24 40 41
66 73 75 78 80 83 82 79 78 78 76 75 79 79 81 36 35 32 23 22 19 20 21 14 13 17 30 29 28 30 24 28 19 16 14 16 20 15 12 12 12 13 17 37 43
70 74 74 78 82 83 81 79 77 73 75 79 88 90 75 34 36 28 23 21 20 20 20 12 18 21 35 43 43 36 38 32 22 14 14 15 16 13 12 12 16 19 23 37 45
71 72 75 79 81 81 80 78 67 72 61 51 53 80 59 37 18 15 18 26 34 28 28 29 28 27 46 52 56 45 38 30 24 17 15 16 15 12 15 17 18 20 22 38 42
68 70 76 79 80 80 80 66 53 60 47 53 52 59 42 25 17 17 15 26 34 40 50 37 34 36 33 40 37 35 34 34 23 16 18 18 16 14 14 16 24 24 22 35 41
72 72 76 79 81 80 77 77 47 48 70 45 42 40 32 26 29 23 17 30 42 54 47 51 47 35 29 31 32 35 35 34 26 21 21 22 25 16 16 17 17 22 26 30 44
75 73 74 82 81 79 65 61 42 47 82 51 34 34 32 28 32 29 23 23 43 49 50 58 48 43 46 31 38 38 38 31 29 23 23 21 22 19 16 16 14 20 20 25 41
75 78 80 83 80 66 57 38 45 54 89 49 34 23 24 27 35 22 21 22 54 58 66 81 63 61 64 46 36 52 38 31 27 32 60 35 37 25 18 17 16 14 22 26 40
75 78 78 77 84 72 51 49 48 64 97 32 28 20 25 32 27 24 20 23 54 56 69 62 73 68 77 53 37 45 42 42 49 64 62 52 36 27 22 20 18 15 22 25 39
76 76 75 74 78 64 48 53 72 91 86 32 29 30 31 31 30 27 26 30 38 53 55 57 46 64 68 48 41 49 57 49 60 64 85 58 42 33 25 22 20 14 19 22 40
75 74 72 64 79 52 48 69 94 89 29 21 37 33 36 31 33 36 33 45 62 76 76 55 55 50 58 65 51 54 67 89 91 94 90 39 38 29 25 19 17 20 21 26 41
77 76 76 63 66 53 66 94 95 45 26 16 20 21 23 20 20 29 37 49 45 53 67 76 82 60 53 66 64 54 86 84 92 89 58 31 40 28 20 16 15 15 23 28 42
81 80 78 72 68 68 96 97 68 34 23 24 21 20 26 20 21 30 44 48 40 40 69 72 67 52 49 53 62 74 95 62 82 61 91 59 28 22 19 17 19 17 19 32 41
94 92 82 64 71 85 99 83 56 35 32 34 34 27 31 21 28 34 54 73 62 48 49 64 87 51 47 63 68 69 55 82 98 93 93 61 54 35 26 22 20 20 24 24 35
95 100 70 60 82 94 97 80 55 41 39 37 34 32 33 35 36 31 69 82 60 52 49 54 87 68 70 92 92 84 92 90 86 88 79 92 78 59 44 29 25 30 28 31 36
98 99 67 64 94 98 89 64 56 49 41 42 38 34 37 38 39 38 49 69 57 55 73 79 94 90 62 49 56 60 87 84 98 82 65 71 81 49 39 27 26 26 24 26 30
100 93 65 86 98 92 78 64 58 56 51 42 40 35 34 37 44 39 59 58 59 64 72 72 94 95 64 50 39 69 74 73 83 84 93 93 74 50 30 26 23 26 27 28 34
100 97 83 98 99 88 79 70 63 46 46 38 37 34 37 43 39 41 47 63 62 63 74 73 75 80 88 85 95 98 88 69 79 98 81 75 58 58 54 38 31 32 33 33 34
100 97 88 99 96 97 84 92 76 59 42 38 43 36 40 48 48 52 44 68 59 70 73 83 96 80 76 64 73 74 81 92 76 84 96 73 56 69 60 56 48 42 40 41 41
100 95 82 98 90 99 73 69 72 65 68 60 48 40 48 47 41 46 51 58 62 77 74 78 93 87 78 56 73 82 80 87 86 72 78 73 75 69 59 64 47 45 44 44 46
95 80 90 78 70 95 97 78 58 48 46 46 74 77 76 65 68 62 65 66 63 70 94 81 85 92 94 76 87 99 85 88 77 74 75 90 74 71 74 51 48 50 46 46 52

GFSSW_sfc_rhum_078.txt.gz
RH
69 69 69 69 71 74 73 75 81 79 78 76 76 77 79 84 84 68 50 46 63 69 64 31 36 39 41 47 39 33 48 51 41 32 26 18 18 13 14 16 20 19 36 41 60
65 65 68 71 73 74 77 79 83 79 77 76 76 77 82 84 87 69 52 59 73 71 29 25 24 26 48 48 44 42 48 40 29 26 22 18 20 14 16 16 17 50 62 58 59
65 66 68 70 71 74 77 83 83 77 74 74 76 77 82 81 72 35 60 68 75 67 37 33 20 19 43 47 43 41 39 30 24 20 19 19 20 15 14 17 19 34 67 61 61
68 67 66 69 71 72 78 82 78 74 73 72 71 75 80 76 11 23 69 73 69 65 54 39 36 26 28 42 39 45 31 27 24 20 19 18 15 16 16 16 18 32 54 59 60
69 68 67 67 68 72 78 80 80 75 73 71 72 75 83 71 57 30 54 54 58 46 42 40 33 24 29 29 29 35 30 26 24 20 18 17 17 16 15 13 14 20 48 55 55
73 72 69 66 65 69 75 79 80 79 75 71 70 72 93 77 26 21 22 23 47 34 26 27 35 29 28 32 32 29 26 25 23 21 18 17 16 16 14 15 14 24 44 48 52
69 73 72 68 68 71 75 79 79 78 74 70 70 68 77 72 37 28 35 32 25 24 26 21 17 20 26 34 32 30 33 26 24 23 22 18 19 17 13 14 14 14 31 41 48
66 73 78 76 77 79 80 79 78 77 74 70 72 76 84 43 48 43 42 30 25 23 25 24 20 20 24 31 34 37 39 42 28 23 20 20 26 17 15 16 15 15 16 42 47
69 73 78 78 80 80 80 79 78 75 71 72 90 95 85 50 51 38 33 31 26 23 27 19 24 24 26 47 53 48 46 42 33 23 22 20 22 16 14 15 15 14 16 38 46
69 71 75 78 79 80 80 77 72 75 68 64 64 91 67 40 28 18 24 27 32 40 31 29 31 32 48 57 59 53 49 46 40 28 20 24 21 16 15 15 15 16 25 43 48
70 69 72 78 78 79 77 81 59 59 54 62 65 65 54 40 28 24 20 20 38 45 53 42 44 50 34 42 46 44 46 46 38 29 30 33 28 23 19 21 14 17 27 44 47
73 70 70 74 78 78 84 78 57 58 78 50 49 47 41 35 45 34 26 26 45 58 55 61 58 40 31 35 38 41 46 44 36 28 26 29 29 26 23 22 17 18 26 37 60
73 71 72 78 78 80 67 64 48 57 79 58 42 42 41 40 44 31 29 29 45 55 56 64 54 41 38 54 62 46 45 45 43 38 31 30 37 36 27 22 17 20 23 31 56
76 78 79 82 73 80 63 47 50 61 98 58 48 40 34 34 42 28 27 24 39 54 66 71 68 64 71 68 58 75 36 38 46 53 66 47 70 43 34 29 20 20 24 34 52
76 74 80 76 95 90 60 52 49 75 75 28 34 24 29 33 32 30 24 30 62 61 64 63 68 74 76 73 61 66 38 45 56 66 77 51 71 45 34 29 22 20 22 37 51
74 74 78 81 87 81 60 56 80 86 81 37 33 30 40 36 33 27 26 32 44 63 64 58 56 63 65 60 56 44 56 54 59 72 87 50 64 52 38 28 22 20 21 33 53
73 77 80 72 93 74 70 83 95 89 32 33 41 34 40 40 36 31 35 54 60 71 76 62 59 55 60 71 58 62 70 88 91 93 82 40 53 46 33 26 23 20 18 32 52
74 82 81 71 84 83 86 96 89 44 44 30 35 34 42 36 37 38 42 52 52 57 73 81 79 65 63 64 74 78 84 98 90 96 74 43 57 38 26 22 20 19 28 40 54
78 95 94 84 81 88 98 97 67 52 36 50 40 29 37 20 26 43 46 50 49 50 66 76 73 58 57 58 62 90 97 72 98 96 96 72 49 24 21 21 21 22 41 51 55
95 92 76 72 84 92 100 84 64 42 43 46 58 40 44 37 39 39 62 78 68 54 52 68 83 58 64 60 64 79 79 98 99 96 96 64 56 45 47 39 25 25 39 50 51
97 97 72 75 91 99 95 77 54 42 39 53 61 57 42 44 40 43 75 78 63 59 57 74 81 76 77 84 83 93 95 93 86 90 98 98 83 53 62 56 40 32 34 47 50
97 98 79 89 98 97 90 65 55 48 46 47 50 53 47 43 44 41 59 71 63 62 73 86 84 90 77 53 65 78 94 85 93 95 83 92 83 70 73 57 34 31 34 43 46
99 93 77 85 98 96 85 67 58 57 53 51 60 48 43 48 46 47 70 68 62 69 79 77 85 84 74 62 69 73 73 78 92 90 98 98 81 73 64 66 45 44 46 43 46
99 99 96 98 98 94 88 77 74 55 58 49 44 48 51 50 47 48 61 70 65 77 71 74 84 88 90 80 85 100 95 93 95 99 85 87 69 82 74 75 62 48 52 53 52
100 96 84 97 98 88 86 90 85 70 51 50 52 55 55 56 48 50 52 77 70 75 81 86 90 90 80 70 66 64 84 76 91 94 92 64 71 84 91 83 65 51 53 59 64
99 98 89 99 99 98 98 86 91 70 92 74 73 60 68 70 64 71 59 65 71 82 83 86 93 90 88 62 62 78 76 67 67 86 84 74 79 77 88 86 58 52 53 64 71
98 94 99 81 75 88 92 92 97 99 83 64 73 83 79 73 77 71 68 65 69 87 86 95 99 95 94 73 73 92 81 71 64 74 77 91 66 82 90 86 78 55 60 73 75

GFSSW_sfc_rhum_081.txt.gz
RH
67 67 67 70 72 74 77 78 79 78 76 75 74 74 74 82 83 73 60 39 63 65 64 41 50 50 48 50 44 38 51 58 43 36 27 23 23 20 18 17 16 28 54 48 59
66 66 66 67 70 73 73 75 80 76 74 73 73 73 79 83 87 77 55 60 72 72 44 33 30 39 52 54 50 49 58 43 34 24 26 26 29 21 19 19 19 29 59 71 65
68 66 65 65 67 68 73 77 78 75 73 72 71 71 79 81 77 21 58 67 68 71 41 35 26 27 47 53 48 47 38 35 30 26 28 28 26 21 22 21 20 22 42 74 70
69 68 67 67 66 66 72 78 74 72 71 71 70 71 77 86 9 36 64 69 70 67 53 52 33 23 26 38 43 52 40 31 33 30 30 27 25 23 22 20 18 17 40 72 71
71 69 67 67 68 68 73 77 75 73 72 72 70 70 77 82 63 31 50 38 56 59 60 45 34 28 28 29 32 41 40 34 31 30 28 25 26 24 22 18 15 17 55 69 66
71 69 69 69 70 68 71 76 79 78 73 71 68 70 72 91 28 26 26 28 31 54 49 38 40 32 29 32 31 31 31 31 29 30 28 27 26 26 21 17 15 17 30 62 64
70 72 71 70 70 70 74 77 78 78 74 71 70 66 76 78 46 41 40 35 27 26 26 22 19 23 28 27 30 35 41 37 33 32 31 25 27 26 19 17 16 16 28 48 58
71 71 77 76 77 78 78 78 78 78 77 74 71 72 85 50 55 52 49 42 36 32 27 26 24 24 23 24 32 43 44 51 36 30 28 25 35 23 20 19 18 17 19 42 54
73 73 77 78 79 79 78 76 78 78 75 70 84 85 84 51 59 47 39 32 28 28 26 20 24 27 29 38 50 57 51 49 42 27 28 26 29 24 21 18 19 18 17 22 44
74 73 75 77 78 78 77 77 77 76 68 68 70 90 66 41 38 29 38 32 33 41 37 30 35 36 52 54 57 62 58 60 53 33 34 36 38 32 27 24 22 20 18 20 46
74 74 71 75 75 78 78 81 66 70 68 65 68 73 56 42 32 27 24 24 33 45 51 45 42 48 38 46 44 51 52 53 49 38 38 36 37 31 28 28 30 25 22 21 40
71 72 72 75 78 79 68 74 61 67 94 64 61 57 48 41 49 37 27 26 48 59 57 64 62 44 36 35 36 43 50 51 43 36 36 43 41 32 28 27 26 27 24 21 62
72 72 74 79 82 77 78 66 52 56 97 64 46 44 47 45 53 39 32 31 47 58 60 70 59 49 45 43 49 52 64 53 50 44 39 41 42 32 26 30 31 29 21 23 57
74 73 79 81 71 91 71 59 52 57 96 61 55 49 37 43 54 28 24 29 36 53 58 68 62 65 65 69 65 78 56 52 44 60 68 58 71 50 41 35 30 28 25 34 55
74 74 80 75 95 93 66 64 60 80 71 25 40 32 37 37 36 36 29 31 43 66 63 66 70 74 75 70 65 69 62 55 61 72 74 64 77 59 40 39 33 30 24 31 46
73 73 76 82 94 85 79 75 82 92 76 39 36 42 44 41 38 30 32 34 50 66 68 60 62 64 64 61 59 60 60 63 65 75 90 63 65 61 44 36 28 25 24 26 46
76 74 81 78 92 86 84 93 94 96 32 36 42 40 43 49 43 33 42 57 70 79 83 67 67 64 64 75 66 69 78 96 95 95 81 51 58 48 36 33 30 28 23 28 46
76 79 84 77 90 86 94 96 92 38 44 34 44 44 47 44 45 40 41 52 61 61 78 80 72 65 66 68 74 83 84 94 90 95 85 44 62 45 33 28 26 27 26 27 42
77 95 96 93 88 89 97 96 63 53 45 53 44 60 60 52 40 44 46 42 53 56 58 78 73 61 66 62 63 78 94 76 99 88 97 80 64 38 57 31 44 43 34 39 48
95 88 93 86 88 95 99 77 72 48 47 46 61 82 85 73 47 48 56 78 69 52 53 69 76 60 70 64 65 75 80 99 93 96 93 76 66 82 87 72 55 43 39 43 58
97 96 77 88 91 98 97 69 61 42 47 59 66 88 91 86 48 46 78 83 67 64 60 75 71 74 78 78 80 85 84 97 95 91 96 96 91 76 86 73 69 56 51 60 60
97 100 77 93 99 99 92 69 54 53 54 57 54 54 88 92 65 51 76 80 73 69 81 89 80 83 80 63 70 79 79 88 99 99 94 92 84 78 78 67 63 58 58 61 61
99 88 82 90 98 95 85 74 63 62 56 54 56 58 81 94 93 54 76 72 70 68 83 81 76 88 59 74 86 84 83 84 95 96 89 97 78 67 64 67 66 63 68 64 68
99 97 92 97 96 92 84 77 85 57 62 60 58 48 49 88 75 56 58 71 72 76 72 71 85 82 77 75 89 90 79 78 96 99 96 86 73 81 76 72 70 68 75 80 82
100 95 89 98 96 95 89 88 76 68 59 52 61 67 68 93 79 50 64 76 73 75 86 81 87 91 84 78 75 77 74 68 73 81 93 65 88 67 87 83 78 74 73 80 85
100 100 94 98 84 97 92 97 95 73 96 74 73 65 72 93 66 74 64 72 79 84 88 90 90 92 89 68 67 74 55 60 69 74 70 72 83 75 86 86 89 79 74 81 87
98 91 100 84 81 91 91 93 93 100 92 71 78 92 89 73 77 73 72 73 77 86 91 86 93 97 94 71 75 85 80 73 74 71 66 82 72 84 89 90 90 88 84 81 84

GFSSW_sfc_rhum_084.txt.gz
RH
68 67 66 66 68 69 69 71 74 75 73 72 72 72 72 78 82 76 66 39 65 64 71 53 51 53 48 49 44 42 46 58 42 38 25 28 28 26 22 21 23 23 40 49 65
68 67 67 67 68 68 69 70 71 72 72 72 72 71 73 80 89 83 52 54 67 65 42 36 37 47 57 58 54 47 58 42 35 29 28 28 42 28 26 26 24 24 35 71 79
69 69 68 67 67 68 69 74 72 71 71 71 71 71 75 78 77 17 71 66 65 74 48 34 28 38 49 59 55 55 45 36 34 30 30 30 32 26 27 28 25 25 27 72 82
72 71 69 68 68 68 72 76 70 69 70 71 71 70 72 88 7 43 57 59 70 66 54 55 36 30 38 46 50 57 47 35 34 28 34 31 31 29 28 27 23 22 23 58 80
75 72 70 70 69 69 73 76 74 71 71 70 70 69 79 86 66 36 48 40 54 63 56 52 36 28 27 27 33 47 46 40 36 34 34 32 32 30 30 24 22 22 22 39 73
75 73 72 71 70 69 72 76 78 76 73 72 70 69 87 77 34 32 38 35 31 62 53 53 42 31 31 30 31 31 34 32 32 32 33 33 31 37 32 25 23 21 20 32 59
74 73 74 73 72 69 71 77 77 77 76 75 75 70 83 64 46 47 52 46 33 44 39 26 25 23 27 27 29 36 46 42 40 37 36 32 34 34 27 25 24 21 20 21 50
75 76 79 77 76 77 76 74 78 78 79 78 76 76 88 46 53 57 56 50 44 37 32 28 25 29 25 24 30 43 48 56 38 38 33 32 35 28 26 26 25 24 21 22 34
71 74 79 80 80 79 77 78 74 76 74 74 80 86 85 48 57 50 48 41 35 38 35 22 28 33 30 39 40 54 54 55 44 34 34 35 37 32 26 25 24 23 22 22 23
70 72 74 79 80 80 80 69 70 75 71 70 66 88 61 41 42 35 42 39 33 38 35 35 38 39 47 42 48 52 57 70 63 41 44 45 42 35 33 30 32 31 28 27 24
71 72 72 74 76 81 69 76 74 73 70 74 68 78 68 47 36 32 30 29 31 45 51 39 45 53 43 49 42 48 55 55 50 41 44 38 37 34 33 35 35 33 32 32 30
71 72 72 72 74 77 74 76 66 66 92 67 68 65 50 43 52 40 33 33 47 58 52 61 58 42 36 37 39 42 46 49 45 39 41 48 46 37 36 34 30 31 30 32 32
71 74 74 78 77 78 92 74 65 60 96 72 54 54 55 54 63 47 35 32 42 57 62 66 58 52 47 50 50 53 60 65 64 56 45 51 49 38 30 30 27 32 31 32 28
75 74 77 81 74 96 70 64 68 75 95 68 58 56 43 48 65 38 30 32 38 55 60 67 55 59 58 56 53 81 62 64 63 66 77 61 81 41 41 42 40 37 37 33 29
75 74 75 76 95 94 67 74 68 88 90 26 39 36 42 51 37 39 30 31 41 56 60 63 77 79 77 69 64 73 69 73 72 78 75 69 83 57 44 41 41 38 35 32 28
72 75 75 84 96 88 84 82 87 85 73 42 34 35 43 47 46 37 39 41 46 70 70 56 64 62 56 62 62 62 70 69 66 62 89 64 66 68 53 45 39 34 32 28 27
73 77 83 84 93 89 86 92 88 95 37 30 50 42 42 42 46 39 50 68 69 77 79 68 70 65 64 70 70 73 86 92 94 91 88 55 68 58 42 36 33 35 32 30 27
75 77 87 84 93 88 92 92 88 36 50 41 46 48 60 73 56 43 52 62 64 60 82 80 68 67 67 64 72 86 86 81 93 92 87 67 68 53 67 59 58 54 44 37 35
76 94 96 93 91 92 93 87 59 64 55 57 51 74 68 72 89 54 50 54 53 58 61 74 72 69 69 68 65 80 92 80 94 85 93 83 68 61 67 70 66 65 57 57 45
97 98 95 86 92 94 97 75 69 55 50 54 68 77 86 80 90 78 66 68 65 57 58 68 76 67 76 68 71 74 83 99 98 99 96 77 81 79 85 77 72 74 69 68 60
96 97 73 89 92 96 99 80 66 48 50 61 68 71 72 81 91 91 67 86 71 71 66 69 67 75 78 84 88 90 90 96 95 98 98 98 87 76 78 75 69 71 73 80 66
96 99 80 94 98 99 100 73 56 63 56 58 65 65 69 77 78 95 99 92 83 77 89 86 79 88 75 64 74 80 80 72 99 95 95 96 88 79 76 70 59 62 72 82 71
97 96 86 89 100 100 86 74 66 75 64 61 61 52 87 72 89 89 99 85 84 83 86 81 82 78 53 72 88 90 82 93 96 98 97 99 80 67 58 58 60 63 77 81 86
99 96 91 96 97 94 93 80 75 69 72 62 62 63 64 68 69 84 93 89 77 75 73 67 87 68 64 70 85 96 75 71 84 99 88 87 82 55 70 72 67 77 79 85 85
99 95 89 99 95 97 93 95 85 81 62 58 65 68 66 82 86 91 95 92 79 74 86 73 82 91 86 77 79 77 78 75 82 74 84 65 68 61 65 79 87 81 77 87 91
99 89 95 99 95 96 88 89 88 86 96 79 77 63 63 94 77 96 89 68 77 82 90 90 94 94 91 72 67 79 62 56 58 59 69 68 74 56 58 84 86 82 80 89 93
97 88 98 86 91 95 92 88 94 97 82 80 76 93 93 79 66 71 78 77 76 87 91 89 95 97 96 73 80 72 71 76 71 68 68 82 66 70 81 87 92 89 84 88 91

GFSSW_sfc_rhum_087.txt.gz
RH
68 67 67 67 68 68 69 70 71 71 70 71 71 71 71 73 78 69 57 32 59 61 66 49 40 40 34 34 30 28 25 29 24 25 17 20 20 17 16 16 16 16 22 25 51
69 69 68 68 69 68 69 70 70 70 69 70 71 71 71 74 75 65 51 54 63 66 40 41 41 40 38 36 35 30 33 28 24 18 17 17 17 17 18 18 17 18 19 32 60
69 70 69 68 68 69 70 70 69 69 70 70 70 70 72 72 53 13 71 71 60 66 36 27 31 36 35 43 41 36 33 27 24 22 21 18 20 17 17 20 20 19 20 32 38
72 72 70 69 68 69 70 75 68 69 70 70 70 70 71 73 5 32 54 58 67 58 43 39 25 29 31 39 39 38 40 28 22 22 24 24 16 20 22 21 19 18 19 20 29
76 74 72 71 70 69 71 74 69 68 70 72 72 71 71 56 31 29 45 42 42 53 41 44 29 25 26 25 27 42 38 33 31 28 27 25 27 27 27 21 19 19 21 22 21
75 75 75 71 70 70 69 75 74 72 73 74 74 70 80 54 21 29 41 38 23 56 47 47 38 26 25 23 24 24 26 27 26 26 25 28 26 25 22 22 22 22 20 20 19
68 70 72 74 73 72 70 75 75 78 76 79 78 68 81 61 30 32 40 41 31 28 45 40 35 23 26 24 24 26 29 31 33 28 29 27 25 28 22 21 23 21 19 20 17
69 70 74 75 75 74 76 78 78 73 77 76 77 70 82 45 44 49 48 48 44 40 30 27 23 23 24 22 25 29 33 33 29 32 30 27 28 20 18 21 21 21 20 20 18
69 69 71 75 77 78 79 80 75 72 75 76 77 83 77 44 53 42 48 48 34 41 34 24 26 30 24 30 28 37 28 42 33 29 29 29 29 26 25 25 25 22 20 19 19
69 70 71 73 77 79 81 75 69 73 60 68 65 78 51 54 43 37 41 43 37 38 34 34 32 34 34 29 28 28 37 42 37 33 29 28 28 23 25 25 26 25 23 25 23
70 70 73 73 76 80 74 64 62 60 59 62 54 59 46 28 31 33 32 33 29 40 34 35 40 42 35 33 25 37 42 42 36 28 29 28 28 27 26 24 26 25 24 24 24
70 73 74 74 76 75 72 70 67 69 92 62 61 57 48 41 52 33 28 36 39 47 46 49 46 37 34 35 36 33 34 36 36 32 38 41 40 31 28 26 24 25 25 24 23
72 73 75 76 73 80 78 68 61 70 94 71 55 53 51 54 63 50 34 31 36 50 52 53 47 43 35 37 38 39 41 46 46 46 42 43 37 30 26 25 24 24 24 22 22
70 75 76 80 68 87 60 67 69 75 78 47 44 44 41 46 61 44 31 31 36 41 55 53 43 53 49 49 45 54 44 46 57 58 49 45 44 28 30 30 28 28 28 27 24
69 72 76 77 90 81 64 74 70 82 37 24 30 33 37 43 35 37 33 33 38 47 53 52 65 64 57 54 48 56 56 56 56 60 62 56 62 40 32 28 28 28 28 29 28
70 73 74 82 88 78 80 78 79 62 44 34 29 36 29 33 41 34 36 32 32 55 58 43 54 57 54 56 54 54 54 56 58 58 73 52 51 39 34 36 46 46 40 32 28
72 73 77 82 80 82 82 76 67 54 31 36 50 42 35 69 59 52 42 43 56 58 62 64 61 55 56 57 60 56 64 72 77 77 59 48 55 43 38 59 61 61 54 48 41
74 75 82 80 87 87 86 72 49 33 38 47 49 44 37 74 65 72 82 42 52 48 49 56 65 62 59 51 59 67 65 63 64 73 63 58 58 39 61 56 54 55 56 57 58
77 88 85 82 86 83 87 85 40 65 59 58 49 50 64 59 64 73 76 63 46 51 54 59 66 60 60 57 55 75 79 63 82 73 73 50 47 45 53 51 51 53 56 64 66
94 91 80 84 88 88 91 67 54 48 47 49 60 60 75 59 50 67 82 62 46 49 47 56 76 62 64 57 59 64 66 92 89 90 87 53 51 45 64 63 56 58 61 68 72
95 89 66 88 88 89 90 74 58 46 52 59 57 63 55 60 59 70 77 79 81 62 52 55 57 72 73 71 72 77 81 85 92 94 82 75 52 63 65 55 61 62 64 78 80
93 90 71 89 94 96 90 76 66 56 51 56 55 59 62 60 84 82 90 84 91 90 67 71 64 67 62 56 61 66 67 65 89 89 94 87 64 59 46 50 57 67 70 79 80
95 88 76 86 92 90 76 70 59 63 62 60 58 48 47 69 88 60 81 74 95 97 76 66 68 53 84 73 73 75 93 90 84 87 86 92 59 53 35 43 51 73 75 78 84
97 96 80 90 90 89 92 75 70 57 67 65 60 60 61 67 56 74 79 86 96 87 76 67 72 52 41 60 70 78 65 55 73 79 58 61 54 45 39 43 53 76 75 76 84
97 94 83 96 83 94 94 93 81 81 65 61 69 64 58 70 75 80 89 100 96 86 76 66 68 72 66 64 66 63 60 59 65 57 64 44 44 43 48 50 67 74 73 77 85
98 84 92 83 93 100 92 89 78 86 95 75 91 68 63 78 68 88 95 90 86 81 79 77 81 80 64 60 57 58 51 48 49 53 52 53 61 48 50 53 80 77 75 82 85
96 88 95 78 82 88 86 85 89 97 73 62 83 94 77 72 77 76 77 87 82 80 80 80 84 85 74 64 60 54 55 50 49 56 65 72 56 52 70 93 92 87 82 87 88

GFSSW_sfc_rhum_090.txt.gz
RH
67 64 66 66 68 68 68 69 68 69 69 69 70 70 71 73 74 30 26 26 33 66 58 33 23 19 17 18 19 15 17 15 12 13 11 9 11 8 8 9 10 11 12 14 22
67 66 66 67 68 68 69 69 69 68 68 69 70 70 71 74 45 24 36 60 58 64 20 25 23 23 18 17 18 18 19 17 12 12 11 9 9 8 12 10 11 11 10 11 15
70 69 68 68 68 68 69 70 68 67 66 68 70 72 74 62 31 7 60 68 63 54 28 18 17 23 22 20 21 20 19 15 15 14 12 11 11 9 11 12 11 12 12 11 17
73 72 71 70 68 68 69 73 68 66 67 70 71 72 73 40 6 21 47 53 56 38 26 22 20 27 23 24 19 26 19 17 15 14 14 15 12 12 12 14 11 9 10 12 14
73 72 72 70 68 70 70 72 68 67 71 73 73 71 51 22 10 12 39 36 25 32 27 22 20 19 20 15 16 24 17 15 17 16 16 15 15 15 14 12 12 12 13 15 15
67 69 70 70 71 70 69 73 74 72 74 75 76 67 51 25 9 17 21 18 14 26 28 26 22 16 17 17 17 15 18 16 17 17 18 19 18 17 16 14 14 14 14 14 14
67 68 69 69 70 70 70 72 76 76 74 78 77 56 58 25 19 17 18 19 16 15 24 25 27 29 21 25 20 23 26 21 19 18 20 18 21 18 13 13 14 13 14 13 13
67 68 70 71 72 73 74 79 79 75 76 76 77 55 43 28 23 29 28 30 25 18 18 17 24 28 25 16 19 22 20 24 14 17 18 20 20 10 12 13 14 14 14 14 14
68 68 70 73 74 79 82 80 74 72 75 74 58 58 34 33 34 30 30 33 29 29 24 15 22 26 20 23 21 19 20 16 16 21 20 22 17 14 16 17 17 16 14 14 14
68 68 71 73 75 81 80 72 65 68 47 44 44 54 33 24 17 27 17 31 31 33 32 22 22 27 27 21 21 16 16 18 20 14 21 19 18 14 14 13 14 12 13 14 14
68 71 72 73 74 78 48 28 25 31 30 31 24 30 24 16 16 17 15 24 26 29 29 23 27 29 22 26 21 17 20 18 18 18 20 18 14 11 13 13 15 14 12 12 13
69 72 73 75 74 71 37 43 54 54 66 37 35 35 32 30 44 27 19 29 26 33 29 32 31 18 21 23 26 25 21 18 15 18 24 21 22 19 16 16 15 14 13 13 13
69 73 75 76 70 52 44 52 46 51 72 34 32 34 33 39 40 31 27 21 27 28 35 33 25 21 25 34 38 31 29 26 24 23 25 28 24 14 18 16 15 14 15 14 15
68 71 75 78 54 48 37 40 44 59 49 19 26 34 23 34 41 17 26 27 20 22 28 39 29 36 34 34 29 32 22 28 29 36 33 30 20 14 14 15 17 20 23 22 20
69 71 73 74 51 38 41 45 47 69 25 17 21 27 18 20 18 19 24 30 35 21 29 37 40 36 38 32 28 30 37 37 39 39 35 28 32 15 16 19 22 27 32 31 27
69 70 70 52 48 42 46 52 59 50 19 17 17 26 21 12 21 22 28 27 25 27 25 26 35 36 31 29 36 34 46 43 37 35 44 28 27 13 18 28 34 34 34 35 33
70 71 56 48 46 52 55 47 42 28 12 19 33 28 20 16 28 40 40 38 39 43 41 29 35 40 40 50 42 39 41 52 56 57 36 30 32 21 26 41 42 40 36 36 37
71 71 65 48 52 62 53 41 34 13 20 31 33 25 22 36 33 46 48 42 33 31 25 44 48 42 43 37 44 42 38 39 41 38 29 33 41 27 39 39 35 34 34 34 36
71 50 51 61 65 58 47 55 21 34 44 45 33 27 27 40 34 31 36 49 37 30 31 30 32 33 40 33 35 51 63 39 57 44 52 25 26 36 35 36 34 35 36 39 41
49 46 57 67 69 57 65 48 33 30 32 35 39 31 52 38 40 38 38 84 79 51 36 40 43 45 48 40 47 46 38 69 60 70 58 29 29 28 50 39 35 37 42 44 48
58 50 63 63 65 53 78 41 42 34 38 43 39 42 40 46 34 39 45 47 100 77 57 61 45 62 54 54 50 60 58 62 60 62 70 46 37 48 42 35 35 40 44 50 64
61 76 60 63 66 66 55 45 50 37 37 43 44 42 48 48 60 60 69 52 68 89 85 48 47 61 54 52 38 42 46 52 63 81 60 72 44 37 34 24 24 34 47 54 70
65 46 53 68 79 61 48 45 45 46 43 44 45 38 36 44 65 53 55 53 67 99 96 50 46 59 65 53 51 50 68 60 62 58 66 70 39 38 24 21 26 35 51 58 73
85 90 48 57 80 78 68 51 48 38 46 46 50 46 49 49 41 59 55 70 90 100 98 81 48 37 38 50 51 69 51 44 53 66 43 43 33 26 26 34 36 44 54 61 73
85 81 68 80 59 69 76 76 63 59 49 45 56 56 62 68 48 54 69 98 100 93 68 53 55 46 40 38 36 36 37 38 44 40 46 29 30 32 36 43 40 55 59 63 74
96 54 73 70 66 95 69 72 70 64 84 61 79 57 58 77 50 70 82 84 99 81 84 50 61 52 42 39 38 40 32 30 30 32 37 36 41 28 38 41 72 75 70 71 76
66 63 68 57 50 65 60 68 76 96 60 64 98 92 69 53 49 54 56 68 74 92 86 64 57 46 55 35 37 40 38 35 34 34 41 51 48 46 63 86 88 81 82 79 83

GFSSW_sfc_rhum_093.txt.gz
RH
65 62 64 65 67 68 69 69 69 68 68 67 69 70 72 74 75 28 19 20 25 58 54 12 21 20 15 13 16 13 18 17 14 11 10 7 8 6 6 6 5 7 8 12 14
66 66 65 66 68 68 69 69 69 68 67 67 69 71 74 78 48 23 37 65 68 52 21 11 16 13 16 16 16 18 20 17 10 9 9 8 8 7 8 8 8 8 9 8 8
69 69 69 68 68 68 69 70 70 67 65 68 71 72 76 67 28 11 55 59 68 54 21 10 11 12 17 13 14 16 22 15 11 10 10 10 9 8 8 9 9 10 10 9 8
72 71 70 69 68 68 70 71 69 67 67 70 73 74 75 46 13 18 42 42 59 30 23 20 14 14 18 16 13 17 15 16 13 11 12 13 11 11 11 11 9 8 8 8 10
66 67 67 68 68 67 68 69 69 70 72 74 74 75 57 24 11 19 35 34 20 24 22 18 20 17 17 15 12 16 15 14 14 13 14 13 13 13 12 10 9 9 10 11 10
66 66 67 67 68 69 70 70 71 72 74 75 76 72 49 26 6 9 12 10 9 14 17 17 17 14 16 14 13 11 11 11 12 13 13 16 16 15 14 11 11 11 12 12 12
66 67 68 69 71 71 71 73 74 76 76 77 76 54 36 22 11 11 13 12 9 9 11 12 15 20 20 21 15 16 19 18 16 15 16 15 19 19 13 12 12 12 12 12 11
67 68 69 71 73 73 76 79 77 76 75 75 78 39 36 14 14 16 17 18 15 11 10 10 13 20 22 20 19 18 17 17 10 10 11 15 24 13 9 10 12 11 11 11 11
68 68 69 73 75 79 81 79 74 72 73 74 56 42 30 30 23 17 16 21 19 20 17 10 13 17 16 21 21 19 19 17 11 9 13 14 17 10 10 12 13 12 12 11 11
67 68 71 73 76 80 79 77 62 72 56 31 29 44 26 15 11 10 10 16 22 22 26 18 14 16 16 18 22 15 15 12 13 9 11 18 17 12 10 12 12 10 10 10 10
67 70 72 74 74 79 56 21 20 32 18 16 15 16 13 12 17 18 12 10 12 24 30 22 17 19 17 17 14 15 14 14 10 7 14 16 14 10 9 8 9 9 9 9 9
67 70 72 72 72 74 37 27 38 41 43 22 19 18 18 21 31 19 16 15 17 24 22 23 26 15 15 14 17 20 19 22 14 9 10 11 15 12 10 10 11 11 10 9 9
67 69 72 72 72 53 31 35 29 36 44 22 18 24 24 26 28 22 21 20 20 17 17 24 19 16 17 16 21 22 24 21 16 14 13 17 18 15 11 10 10 10 10 10 12
67 69 72 74 64 31 30 28 30 46 45 23 17 23 21 20 25 18 10 21 25 23 15 19 16 18 24 19 21 30 18 19 22 22 25 20 21 14 11 10 12 13 18 22 23
66 68 69 70 37 27 30 31 35 56 32 11 15 22 16 15 11 11 14 19 26 27 23 20 13 21 30 23 20 29 20 20 22 29 31 24 23 16 11 10 14 20 24 24 25
68 68 68 46 38 31 31 40 46 54 20 14 11 19 20 14 10 7 12 17 20 25 24 22 10 19 22 24 23 19 26 31 33 35 40 27 22 15 13 20 27 28 27 27 27
68 68 52 35 40 37 42 41 37 29 9 14 24 22 21 16 10 13 22 24 24 32 38 22 16 39 23 26 25 28 40 53 49 42 37 16 18 17 19 29 31 30 28 29 30
68 66 61 37 41 47 42 37 34 12 11 17 23 23 22 14 14 21 23 23 21 21 31 40 30 30 28 28 32 33 35 40 40 38 27 18 28 16 22 27 25 27 28 29 32
69 44 43 50 52 45 42 55 25 24 22 27 24 25 21 25 67 28 24 23 24 58 55 36 31 19 25 22 26 36 44 27 42 42 45 33 21 29 25 34 30 27 29 32 36
38 38 46 52 54 47 53 46 26 22 24 26 33 26 32 26 29 29 26 37 59 85 76 69 57 36 24 23 24 31 26 53 48 53 43 21 16 42 44 36 26 25 33 36 43
46 38 48 48 52 35 76 31 29 22 24 31 31 33 30 33 29 32 29 24 95 85 77 64 62 50 31 36 30 37 53 43 40 36 46 40 40 41 32 25 24 25 32 40 51
47 70 45 48 53 42 43 34 40 27 24 28 31 33 37 38 40 39 44 43 66 62 82 57 82 69 36 28 21 29 37 42 56 56 40 54 54 32 29 20 23 28 34 41 51
42 36 42 53 78 51 32 30 29 32 29 31 34 31 34 40 53 36 39 37 45 85 84 97 92 87 85 60 45 39 34 33 49 49 59 57 40 26 18 21 26 30 38 42 55
69 88 40 34 59 60 53 39 35 29 32 34 37 34 40 48 38 41 39 38 69 100 97 99 91 72 68 48 52 65 53 45 47 60 42 38 27 23 23 28 30 40 47 47 56
70 69 48 70 50 56 58 63 49 49 43 38 45 44 61 69 48 42 56 89 80 94 96 96 66 49 48 37 33 40 40 37 43 41 38 28 24 24 34 40 41 52 52 55 61
93 44 46 57 52 73 65 60 52 53 62 53 62 51 55 62 44 61 57 62 94 91 100 86 65 36 34 26 24 30 28 26 26 26 25 26 29 36 36 43 62 67 64 64 70
42 44 44 48 40 52 52 53 63 98 55 50 73 83 64 57 56 52 49 54 65 93 99 77 40 36 47 26 25 35 27 26 25 31 47 53 50 40 46 66 91 88 80 81 76

GFSSW_sfc_rhum_099.txt.gz
RH
67 68 69 69 70 72 72 73 73 74 73 72 71 70 72 77 82 62 54 48 48 56 51 19 12 12 26 29 30 33 40 44 38 30 24 17 17 12 11 8 11 12 15 31 35
65 68 69 70 72 72 72 72 74 73 72 71 70 71 73 81 81 68 52 58 60 56 28 20 14 11 36 32 30 32 41 40 28 24 23 17 17 16 15 12 11 15 15 28 31
68 71 72 70 68 68 70 71 72 72 71 70 70 71 78 82 70 34 67 66 65 68 35 27 23 12 20 29 30 30 30 25 22 23 21 22 19 16 17 18 14 17 16 15 21
73 70 66 66 66 66 69 75 72 72 72 71 70 72 78 81 27 34 60 64 65 48 38 26 26 30 21 22 20 25 22 21 19 17 19 20 17 18 19 20 19 15 15 17 18
68 66 67 66 66 67 70 75 73 73 72 71 71 74 81 66 58 36 54 49 49 37 36 32 31 30 29 18 17 17 16 16 16 15 16 16 17 18 18 17 15 14 15 18 19
66 67 69 69 69 68 71 75 75 74 75 75 74 77 86 55 18 23 26 22 18 19 30 31 27 22 24 23 22 18 16 14 13 15 14 16 18 20 18 15 13 13 15 17 18
67 68 70 70 69 72 72 74 78 76 76 75 76 72 69 51 25 24 14 14 13 14 15 12 13 17 22 25 22 20 26 21 17 17 17 15 16 17 17 16 15 14 14 14 14
68 69 71 71 74 75 76 81 82 76 75 76 76 74 81 31 27 18 16 15 14 15 15 14 13 16 21 21 22 27 30 35 24 19 17 20 23 14 17 16 16 16 16 15 14
70 70 69 73 77 81 81 81 81 76 73 76 85 86 72 31 22 13 14 15 13 20 23 15 20 19 19 27 35 38 42 37 29 21 20 20 21 16 16 15 16 16 16 15 14
69 68 69 72 76 79 80 80 74 72 66 51 51 77 57 28 13 14 15 15 17 16 15 21 34 37 26 30 41 48 45 38 34 24 21 21 18 13 16 14 15 17 17 17 18
66 66 68 69 72 77 80 73 40 61 52 49 44 40 29 16 9 12 14 18 22 22 24 21 37 49 32 25 23 25 28 26 20 17 20 19 18 14 14 13 12 16 16 14 18
66 66 67 68 69 76 72 46 38 42 58 31 27 23 18 13 17 14 15 25 25 29 20 24 26 23 29 24 22 23 24 23 19 17 18 19 19 18 15 14 12 13 12 11 12
65 67 68 70 72 75 54 34 35 46 69 34 22 20 19 15 18 21 20 23 28 29 30 34 24 18 19 25 30 28 25 21 22 20 22 25 24 20 14 12 10 10 8 9 10
65 67 70 76 81 59 42 33 37 54 92 34 21 18 22 23 28 15 16 20 23 26 24 29 23 24 25 26 18 20 21 20 19 22 38 28 38 22 16 13 12 11 11 12 15
64 68 72 67 81 53 42 42 41 65 89 25 23 20 19 21 20 17 11 13 16 16 14 18 17 23 27 24 22 26 18 28 22 24 39 32 37 26 20 19 17 17 14 13 20
67 69 70 63 82 51 51 54 63 89 84 16 21 22 21 20 18 15 14 12 12 15 12 12 15 29 34 30 22 19 23 39 49 41 53 37 37 33 25 20 19 37 48 50 53
67 68 69 55 68 58 63 69 88 94 14 21 22 21 22 22 19 17 27 30 32 39 44 38 36 30 28 34 32 36 33 80 84 76 70 33 38 35 23 19 44 60 58 60 63
66 70 73 53 66 69 71 77 81 29 26 21 24 23 26 20 21 22 26 34 25 47 74 74 75 45 36 44 58 41 42 89 81 81 61 35 45 31 20 24 78 57 60 67 73
67 76 81 72 64 74 83 96 54 28 23 26 24 28 28 26 27 28 33 30 29 61 81 78 53 38 37 43 44 68 74 53 92 67 90 69 52 47 61 63 72 64 69 75 72
75 79 70 60 65 79 94 69 34 22 22 23 33 30 41 34 36 45 46 36 45 55 60 72 85 38 31 53 57 58 52 86 94 94 90 80 83 96 93 91 84 72 74 74 72
85 82 72 57 70 85 97 64 28 20 21 25 32 35 36 41 41 48 42 40 54 52 54 58 73 61 56 64 69 83 82 78 76 69 96 95 99 97 97 83 80 70 69 72 73
86 95 64 61 92 86 91 34 40 24 26 29 32 36 44 45 47 49 53 40 33 60 65 83 96 94 63 42 60 60 73 71 93 75 63 86 98 81 87 80 66 61 62 65 68
92 73 60 70 98 94 42 28 24 27 30 34 44 46 42 55 70 59 62 48 70 75 70 88 90 95 71 63 59 66 54 55 69 81 79 92 98 86 75 66 63 68 67 69 69
97 94 71 76 75 70 66 52 42 37 40 41 44 42 52 63 56 73 67 57 68 78 61 93 95 87 82 60 63 87 69 53 68 84 94 97 99 79 76 76 74 73 73 73 71
98 91 66 94 82 67 68 68 58 55 47 47 49 58 62 76 72 70 64 76 68 65 76 100 96 90 83 66 71 75 77 84 93 99 99 96 87 86 84 78 78 73 71 71 73
96 84 48 88 73 75 72 73 59 56 71 62 74 62 66 79 69 96 84 79 92 90 100 99 97 99 98 88 86 99 84 90 93 84 86 76 80 74 70 72 76 77 73 76 77
73 57 73 62 59 86 87 67 64 78 64 50 72 80 70 67 84 79 74 74 78 86 90 100 100 95 98 83 80 95 83 73 78 76 70 91 82 74 81 83 89 85 80 82 82

GFSSW_sfc_rhum_105.txt.gz
RH
70 69 69 71 73 75 72 71 73 73 73 73 74 74 74 74 82 83 68 36 65 61 55 29 21 21 33 38 41 44 64 74 50 44 39 28 32 27 22 20 21 19 20 24 50
71 68 68 72 75 71 69 70 72 73 72 73 73 72 73 79 89 84 58 58 69 68 31 28 27 18 23 41 38 43 71 54 43 41 43 35 38 30 28 28 26 22 20 19 33
70 69 72 73 70 68 68 71 72 72 72 72 73 73 77 84 68 28 66 67 67 59 39 35 32 34 24 40 43 44 49 44 41 35 35 36 32 28 29 30 26 25 24 18 21
72 72 74 70 67 68 70 74 71 72 72 72 73 74 78 91 6 33 66 67 69 54 42 39 37 41 37 25 24 41 32 35 36 29 29 27 25 24 25 26 23 21 22 20 18
78 76 72 68 67 69 71 71 71 73 74 73 73 74 89 67 54 33 69 71 55 42 36 38 42 44 49 42 34 30 24 20 19 19 21 21 23 24 22 19 21 21 22 24 21
79 76 71 69 69 70 70 71 73 74 75 75 74 78 94 53 16 29 39 37 28 42 40 43 45 40 28 26 30 31 29 28 27 24 21 20 20 23 21 19 19 22 22 22 25
78 75 71 71 71 71 71 72 74 74 74 75 74 80 90 49 32 29 34 26 24 26 21 17 22 22 25 21 22 22 26 20 21 28 28 23 26 25 21 16 17 18 20 19 18
76 75 77 74 74 73 74 74 74 73 74 74 74 80 86 41 54 48 44 25 20 17 18 20 19 24 24 21 20 21 25 33 30 25 26 31 35 25 22 21 20 19 16 16 19
78 77 77 74 75 76 74 75 75 74 74 73 93 96 83 50 51 38 31 22 18 20 24 13 24 29 30 35 44 34 31 34 27 26 30 35 36 28 22 22 21 20 19 18 17
79 77 74 72 73 78 79 76 76 75 73 68 62 85 56 32 20 14 19 19 21 26 23 21 38 43 38 45 59 34 45 47 40 32 20 22 24 18 16 16 16 18 19 17 16
78 76 71 69 68 75 88 82 39 54 73 70 67 58 47 30 20 16 15 17 27 25 35 31 26 32 33 38 40 41 44 42 35 27 27 28 26 22 19 18 17 18 18 17 17
84 74 70 67 66 71 89 57 47 45 51 42 45 56 47 43 44 24 18 22 34 38 35 34 37 25 23 33 40 41 44 43 34 28 30 31 31 25 21 19 17 17 17 18 18
84 72 67 67 71 82 68 52 50 45 51 35 36 32 28 27 32 26 21 26 33 39 38 46 36 28 27 32 34 38 42 41 41 29 27 28 31 26 21 20 17 15 18 20 40
77 71 68 71 74 84 61 50 49 57 68 33 35 27 26 25 28 18 14 20 25 22 24 27 23 22 22 22 22 21 22 28 29 40 47 42 50 34 30 26 23 19 66 89 86
74 67 71 68 84 68 52 58 59 73 26 35 32 17 16 22 21 20 16 19 23 22 25 29 23 23 24 20 16 19 22 36 44 50 46 40 53 41 32 31 26 49 84 86 79
70 68 69 80 91 69 66 67 69 75 38 32 23 22 22 22 21 21 24 23 26 29 26 28 23 23 22 27 33 35 43 38 44 54 66 41 53 46 40 32 34 87 86 82 78
70 69 70 65 75 75 76 73 82 93 28 31 30 24 30 28 27 26 31 35 35 46 48 46 45 39 38 50 45 50 62 84 87 75 63 36 45 42 80 81 85 90 90 87 78
71 70 69 66 70 75 78 75 81 42 34 26 27 27 35 29 30 34 45 46 40 59 83 84 60 49 46 47 52 49 62 79 71 75 62 51 67 92 85 79 78 78 80 82 86
69 82 78 73 75 78 79 93 53 36 27 28 28 34 36 30 38 41 51 50 48 54 76 77 70 42 39 39 48 71 71 50 70 62 82 63 45 74 89 93 85 92 88 88 88
80 86 80 70 74 84 89 73 36 27 26 26 32 33 41 38 44 51 53 43 47 46 66 67 78 46 38 46 43 60 52 92 91 96 92 58 71 97 98 96 96 98 98 94 86
83 87 71 67 74 83 92 77 31 25 26 28 33 41 41 57 50 56 52 44 57 55 64 72 79 60 58 60 58 81 88 83 80 78 90 83 98 100 99 100 99 95 86 97 87
87 96 71 72 90 89 88 51 36 28 30 37 42 52 59 60 64 63 64 50 44 67 74 72 98 91 62 43 40 46 65 99 95 88 76 85 99 100 100 99 96 78 71 74 90
86 81 67 75 96 96 62 36 42 44 48 51 56 54 57 64 79 75 73 62 69 74 74 81 87 93 65 77 71 90 98 95 98 97 88 94 98 97 98 82 81 84 77 72 77
92 93 77 82 81 69 65 57 58 48 56 53 56 61 73 76 70 82 77 63 74 74 63 74 91 87 77 59 56 91 87 89 97 98 95 97 96 91 86 82 80 83 81 76 70
96 89 72 95 77 72 72 66 60 60 58 56 63 72 74 82 76 78 74 85 77 71 81 96 97 94 85 69 74 96 98 95 97 95 90 97 92 92 85 86 88 81 71 71 74
96 71 83 87 72 78 73 72 62 61 67 68 73 71 80 90 72 82 74 84 90 84 94 99 94 98 94 79 96 96 92 75 96 96 95 89 88 79 71 69 73 79 77 81 83
84 69 74 68 66 84 84 72 71 77 68 59 70 83 93 82 73 70 66 72 75 88 97 98 98 98 98 91 80 85 98 94 89 84 73 82 89 74 79 77 88 84 84 87 88

GFSSW_sfc_rhum_108.txt.gz
RH
74 73 70 69 72 75 71 70 71 73 73 73 74 73 73 75 80 85 58 34 64 62 59 35 23 23 36 40 48 52 60 74 46 39 35 31 37 33 29 26 25 23 22 21 38
75 74 70 70 75 72 70 69 72 72 72 72 73 74 76 79 95 86 53 53 60 65 33 26 27 19 24 52 46 51 82 60 42 37 42 40 45 34 32 32 30 29 28 23 42
76 75 71 72 73 70 70 72 72 71 72 72 72 74 79 86 49 11 67 64 66 69 39 36 33 33 23 49 47 55 56 48 44 40 41 41 36 32 33 33 33 31 29 25 27
81 76 73 74 70 68 71 74 72 71 72 72 73 75 78 92 5 26 64 64 68 52 42 39 38 45 42 27 29 52 39 40 40 33 33 30 30 29 29 28 25 23 25 26 23
85 79 76 73 68 69 72 73 72 72 73 74 75 77 87 48 28 29 68 68 67 48 32 33 39 44 51 47 40 36 33 28 24 24 23 22 25 25 24 20 20 24 24 28 28
85 81 79 73 70 71 72 72 72 74 73 73 75 78 90 31 18 32 44 50 36 42 41 44 47 41 29 26 28 32 26 26 26 25 28 26 26 26 24 22 20 20 23 24 28
85 83 80 73 71 73 73 72 73 73 72 72 74 82 95 33 37 38 42 34 26 32 27 27 27 22 26 27 24 23 25 23 24 34 32 31 35 31 26 23 22 21 21 21 22
83 84 82 76 75 75 74 74 73 71 72 72 74 83 82 43 61 53 47 36 28 22 20 20 18 24 26 25 30 28 31 32 32 22 21 34 29 24 26 18 17 21 22 21 21
85 84 82 81 77 76 74 73 72 74 76 73 93 93 64 46 55 46 40 30 22 22 25 16 25 31 30 42 50 42 35 40 31 32 26 28 31 30 19 18 19 18 18 20 19
86 83 81 78 77 78 78 74 77 76 75 72 69 82 46 35 29 18 44 22 24 25 29 23 40 46 43 48 52 36 37 54 54 34 30 34 32 24 25 23 22 20 19 18 17
85 81 81 74 72 75 87 68 40 50 84 53 54 50 47 43 32 21 22 21 26 28 34 34 32 44 40 42 42 38 49 54 46 38 40 38 33 27 25 26 24 23 21 20 19
88 86 87 76 67 70 89 53 46 46 44 43 63 66 56 45 52 37 24 22 34 34 37 39 40 28 25 31 39 41 48 51 40 35 34 36 30 23 22 25 26 22 21 20 21
89 86 84 73 68 77 74 50 52 42 42 27 41 37 28 38 41 29 22 26 37 38 37 44 39 30 29 35 38 44 47 46 38 30 30 32 31 22 21 21 21 23 22 56 92
88 93 90 73 66 75 66 51 51 60 49 32 39 34 29 28 31 22 16 20 24 26 23 26 25 22 23 23 24 25 24 27 25 30 30 40 44 26 26 28 24 21 23 96 93
92 90 84 72 74 69 54 55 61 62 26 36 32 19 20 28 24 21 20 21 23 25 23 30 27 29 30 26 21 25 22 24 28 54 59 36 45 26 24 27 42 81 89 87 79
88 83 74 83 90 64 64 67 65 58 32 34 26 26 27 27 25 24 26 23 28 32 29 28 29 25 26 24 28 30 44 46 47 60 64 34 36 35 44 99 93 87 80 82 77
85 79 72 69 74 68 69 68 62 67 29 33 32 31 32 34 32 28 33 37 32 37 52 51 46 43 41 52 46 47 55 82 82 94 59 33 44 53 98 96 96 96 88 84 82
78 76 76 77 73 75 77 86 87 43 36 29 29 34 37 31 37 40 38 39 52 56 72 78 64 54 46 49 56 58 56 69 72 73 64 41 61 95 86 77 87 93 95 88 80
77 81 79 71 76 74 81 95 38 41 30 31 30 39 42 34 36 40 48 47 42 48 63 66 73 46 35 34 45 68 70 47 58 51 68 69 62 77 69 74 82 94 93 95 92
86 85 81 81 78 79 88 65 40 31 28 30 37 39 45 38 44 51 51 44 45 48 55 71 83 44 40 46 48 58 58 84 86 98 96 74 84 96 93 88 87 94 95 94 93
86 84 79 73 77 83 94 78 33 27 29 33 37 43 42 54 51 56 54 44 53 53 65 74 79 58 61 61 58 76 83 75 75 88 95 94 96 100 97 96 95 95 92 98 95
86 97 80 80 93 94 92 57 38 32 35 43 48 47 56 60 61 63 62 50 54 60 75 70 95 86 66 47 51 50 66 79 95 94 80 89 98 96 95 97 90 79 75 75 95
93 87 71 76 97 98 70 44 44 45 50 51 59 54 57 61 72 68 73 62 69 72 76 81 88 95 64 85 78 79 93 98 97 96 97 94 99 92 94 74 70 82 82 79 78
94 97 84 84 86 76 62 60 56 51 55 51 55 61 72 77 72 78 78 67 75 75 61 72 87 86 74 47 53 83 81 95 96 97 94 98 97 93 92 76 75 78 80 86 79
95 91 75 97 71 74 70 66 61 61 58 55 63 71 73 81 78 81 76 86 74 67 80 89 95 92 86 69 72 97 96 92 99 94 96 97 94 94 92 83 88 89 78 80 84
95 81 81 87 76 77 70 68 63 62 67 67 69 72 78 86 73 82 79 82 88 82 98 100 94 98 92 75 97 95 95 88 88 95 95 92 90 85 86 85 84 82 81 83 86
83 70 71 61 70 73 78 71 67 75 69 61 71 78 88 82 72 68 62 78 82 88 97 98 98 98 97 88 86 88 97 95 87 84 83 82 88 86 85 82 88 87 87 88 89

GFSSW_sfc_rhum_111.txt.gz
RH
76 74 73 70 71 76 73 71 72 72 73 73 73 72 74 76 80 70 36 27 46 61 58 26 17 21 23 26 34 34 30 34 25 26 21 25 31 26 23 23 22 19 21 20 18
76 74 73 70 73 74 71 71 73 72 72 72 73 74 76 80 84 60 43 50 60 66 30 22 18 16 19 27 31 37 46 35 28 24 26 30 31 28 27 26 25 24 22 20 16
77 74 76 71 72 71 70 73 74 70 71 72 73 75 81 80 24 7 71 62 64 64 28 26 24 16 17 33 32 36 24 37 36 30 31 29 27 23 23 24 23 24 21 20 19
82 80 78 73 73 69 72 76 73 70 71 72 73 76 80 75 6 19 67 65 66 48 31 30 28 32 28 20 25 34 33 31 29 26 24 25 22 20 21 21 17 16 19 21 21
85 85 79 75 73 70 72 74 72 71 72 71 73 76 68 23 14 21 66 67 57 39 25 26 29 32 33 32 30 30 26 22 19 18 19 19 20 20 20 16 16 18 19 21 22
86 87 82 77 74 71 72 73 73 71 71 71 73 77 62 19 18 30 37 48 31 31 28 32 34 32 23 22 22 26 19 17 17 16 17 20 20 23 21 18 16 16 15 17 18
87 89 85 80 74 72 74 74 74 71 70 70 72 77 79 20 32 39 42 26 20 28 22 26 22 16 18 23 19 17 20 19 15 20 22 25 19 26 20 16 15 15 15 15 15
87 89 86 83 77 76 76 76 73 69 71 72 72 78 46 37 45 43 40 33 30 21 17 16 17 21 23 22 27 27 24 22 21 23 19 20 15 23 19 16 16 17 17 16 15
88 90 90 84 81 78 76 73 69 74 76 73 83 76 35 38 40 38 38 26 22 20 20 17 20 26 22 31 33 32 21 25 21 23 24 23 23 19 17 18 20 18 17 17 17
93 94 90 85 80 78 78 73 74 74 73 71 68 65 33 25 30 19 43 23 18 22 21 21 29 31 32 31 20 21 24 29 28 26 24 27 26 21 20 19 19 18 19 19 18
95 92 87 83 81 75 77 57 40 46 78 44 37 32 34 39 33 19 18 17 21 23 28 25 25 30 27 34 33 34 33 34 34 26 34 32 23 17 16 16 18 18 17 17 18
94 91 88 86 81 71 76 57 38 42 44 43 59 61 54 43 40 33 19 19 26 24 30 29 31 25 22 25 29 30 32 31 30 28 24 17 17 14 14 18 15 15 17 18 20
93 91 89 82 75 73 70 48 45 34 35 24 37 37 29 39 41 32 19 20 27 29 32 30 27 27 27 26 29 31 32 29 23 20 16 18 17 14 12 13 17 32 60 69 72
94 93 88 79 68 69 62 45 48 51 34 22 30 32 29 27 26 20 16 22 21 32 34 30 21 21 21 20 19 23 21 20 22 22 21 21 25 18 15 22 62 72 72 72 72
94 90 87 69 86 80 65 55 60 59 42 32 35 18 24 26 22 19 19 18 22 21 22 25 24 28 28 24 19 25 21 26 28 30 37 28 34 18 15 43 74 72 69 71 70
93 90 81 85 83 63 60 59 64 53 35 34 22 23 24 24 22 20 22 21 23 26 25 26 29 26 26 23 25 33 37 37 40 42 40 25 26 23 67 93 88 74 70 72 71
93 88 81 71 79 72 69 74 61 50 26 30 26 28 28 30 28 26 28 28 23 27 34 39 31 35 36 38 39 35 38 52 55 60 40 34 34 34 90 85 81 84 76 72 67
90 83 75 78 70 73 81 83 45 37 34 33 30 30 30 27 31 35 30 33 44 40 50 43 36 44 38 39 39 39 39 46 54 48 39 28 31 56 69 63 65 66 68 67 71
86 96 95 82 79 74 78 65 37 36 28 28 30 34 35 31 32 34 38 36 42 38 42 45 52 41 38 32 32 49 56 36 48 40 50 35 51 69 60 65 65 77 68 75 80
94 91 85 83 85 76 85 44 40 27 26 26 32 33 40 32 37 41 37 38 39 41 39 53 66 42 34 40 40 40 39 70 62 87 76 49 47 75 90 86 78 83 85 82 84
93 97 90 80 76 75 89 57 32 26 26 30 34 36 36 41 41 45 37 36 49 56 53 54 53 43 48 48 44 59 60 54 54 54 77 74 86 96 95 92 90 84 82 90 92
96 98 85 81 89 86 78 61 38 31 36 39 41 37 45 51 50 50 49 45 46 52 54 58 80 76 58 42 52 47 50 78 87 72 81 85 87 86 93 92 90 70 77 72 92
99 99 77 80 98 88 68 46 40 41 46 48 53 51 48 53 55 56 58 60 59 61 62 74 76 72 61 87 67 62 66 80 98 86 84 90 94 84 93 81 68 78 70 68 74
96 98 90 86 86 63 65 56 55 51 51 47 53 56 62 62 61 66 66 61 65 67 61 73 80 79 46 32 41 69 74 78 94 92 68 93 93 88 89 73 71 77 70 77 80
94 91 72 93 86 76 68 61 57 62 53 49 59 60 61 69 70 70 66 74 66 63 64 87 87 86 81 62 66 93 89 89 93 81 84 95 90 92 90 85 83 76 74 74 79
96 83 76 73 77 84 69 66 59 62 63 58 60 66 64 69 58 75 71 74 79 70 90 92 88 97 96 63 84 90 92 93 94 95 92 92 88 74 74 71 77 80 82 78 82
86 71 74 72 67 67 73 66 67 75 61 56 67 70 74 68 63 57 56 65 68 78 96 98 95 92 89 85 84 93 96 94 94 87 90 83 79 73 76 76 86 83 84 86 86

GFSSW_sfc_rhum_114.txt.gz
RH
79 76 74 72 69 74 72 71 72 72 71 73 73 73 74 78 77 27 18 23 29 58 59 18 14 15 14 14 20 16 14 15 15 15 14 12 17 13 16 16 14 16 17 16 15
80 76 74 72 70 73 71 71 74 72 70 73 73 73 78 83 39 16 33 45 57 64 17 13 12 12 10 12 14 15 14 13 12 12 12 12 14 13 17 16 15 15 14 13 11
82 78 75 75 72 72 69 72 74 72 70 73 72 74 81 64 21 13 71 60 58 51 15 13 12 10 10 13 14 14 16 11 17 14 14 14 15 12 13 14 14 15 14 12 14
87 84 80 77 73 71 68 73 74 71 69 72 71 74 79 35 11 15 66 61 56 32 16 13 13 12 9 11 13 18 14 13 13 15 16 15 11 12 12 14 12 11 13 15 15
89 86 84 79 75 72 69 72 74 72 69 70 71 75 42 13 7 15 58 58 31 21 13 12 12 11 11 11 14 19 12 13 15 15 13 13 14 14 13 10 10 13 13 14 13
90 88 86 83 77 73 70 74 74 74 69 68 70 79 33 17 10 15 25 32 21 17 14 13 12 12 14 15 16 16 18 16 13 13 11 12 12 11 13 14 13 11 11 11 11
90 89 88 85 81 74 72 74 76 73 68 68 70 52 37 17 14 18 24 19 16 16 16 16 15 16 14 14 14 14 16 11 11 9 12 15 15 15 11 13 12 10 9 10 9
92 90 90 87 84 78 75 76 75 69 70 73 70 50 25 16 18 22 13 19 19 16 15 13 13 16 17 17 18 18 17 14 13 15 13 14 12 8 13 12 11 10 9 9 9
94 93 91 90 86 81 75 73 69 73 74 73 61 54 20 27 23 20 16 14 16 16 17 13 15 19 20 20 17 18 10 11 11 13 14 13 12 10 10 11 13 12 10 9 10
95 95 94 92 87 80 72 68 63 73 56 49 46 48 21 11 23 17 27 18 16 17 18 18 17 19 19 18 14 11 13 12 14 11 14 15 14 10 12 11 13 12 10 10 9
96 96 95 92 84 78 56 43 36 43 51 28 22 20 17 25 24 14 15 15 16 18 21 20 20 20 16 16 17 18 18 16 12 13 18 17 14 10 8 7 9 8 10 10 19
96 96 94 88 82 77 46 46 32 38 38 24 26 24 22 31 25 16 15 16 19 19 17 23 23 16 17 18 19 19 19 17 15 17 16 12 10 8 7 9 11 10 21 38 41
96 95 91 86 77 62 45 43 34 34 32 23 16 19 21 28 16 14 16 14 17 16 18 19 13 19 19 18 22 20 21 20 18 12 10 11 10 7 10 10 21 39 40 40 45
96 94 89 80 78 52 38 43 38 51 57 39 16 16 21 19 19 14 13 13 15 16 15 19 14 20 20 20 18 21 14 15 16 16 14 11 17 13 9 15 35 39 43 44 43
96 92 84 76 76 64 42 60 58 62 86 25 23 17 18 16 16 15 14 15 18 19 22 20 20 21 23 20 17 18 18 19 20 21 22 17 18 15 9 14 43 52 52 47 45
94 89 83 80 62 62 68 57 57 60 66 29 20 23 22 18 18 15 15 15 17 19 18 18 19 18 17 18 19 18 23 20 22 25 30 17 14 14 22 66 70 63 61 50 46
92 86 78 70 80 65 67 66 61 54 20 26 25 22 24 22 21 18 19 20 20 26 28 21 22 20 23 23 23 24 27 31 33 40 30 19 24 16 58 61 62 64 58 51 51
91 86 79 79 78 83 80 82 88 42 26 22 22 22 28 23 24 24 22 23 26 22 26 26 27 24 27 25 24 29 30 30 26 22 18 23 28 25 51 47 47 51 53 54 56
87 94 95 79 82 64 76 91 50 38 20 22 24 28 28 24 23 24 26 22 21 24 30 29 25 26 32 28 26 29 38 23 36 31 39 25 18 44 50 54 51 56 58 65 64
94 94 93 92 84 73 86 70 39 20 20 17 22 23 28 26 28 28 25 22 29 27 23 32 40 25 26 29 26 29 27 55 46 70 56 30 28 64 92 78 70 78 75 73 73
93 95 87 84 81 93 91 62 32 18 19 22 22 28 24 29 26 28 23 26 30 32 29 34 40 31 34 34 29 38 45 42 43 46 59 59 84 96 97 94 88 72 67 86 81
96 98 90 88 97 94 71 42 36 21 22 25 24 26 27 29 32 31 34 29 27 37 39 36 56 50 38 30 33 29 36 43 65 62 50 64 79 77 89 87 76 59 56 58 75
99 100 95 94 96 83 48 39 27 24 25 28 31 29 35 36 43 37 41 42 45 41 40 51 52 57 52 80 54 73 51 42 64 80 73 82 89 77 90 69 68 70 59 57 66
98 99 100 99 79 60 54 42 36 30 30 33 40 38 42 41 36 45 45 51 53 49 53 57 60 72 44 33 33 53 65 68 79 89 63 80 98 88 86 79 72 67 64 69 76
91 85 65 96 85 57 48 41 36 42 36 36 47 39 37 44 44 47 44 61 55 58 50 67 69 76 71 49 47 70 77 68 92 75 92 95 91 91 89 86 78 82 70 73 78
99 60 51 62 59 64 54 44 38 47 48 41 40 38 38 41 38 52 52 55 72 50 55 57 75 86 85 58 67 96 86 80 94 80 96 92 86 84 64 70 71 77 78 76 80
66 42 48 59 58 62 58 45 49 69 47 34 38 47 49 41 39 37 39 48 51 64 80 98 93 94 84 64 81 94 90 94 93 83 88 81 82 75 68 70 82 79 80 84 82

GFSSW_sfc_rhum_117.txt.gz
RH
80 77 75 73 70 72 72 70 73 72 70 71 74 73 73 80 76 19 15 22 25 54 50 12 11 11 9 11 13 11 13 14 12 12 11 9 11 10 10 14 11 12 14 13 12
82 78 76 74 72 72 71 70 73 72 71 70 74 73 76 82 40 15 40 42 46 56 14 11 9 9 9 9 10 13 13 12 9 10 11 10 9 10 11 12 13 12 11 11 10
85 81 78 76 74 73 71 70 72 72 70 68 72 72 79 66 24 15 68 52 56 44 14 9 9 8 9 8 10 11 14 10 9 9 11 11 11 10 12 13 11 12 12 11 11
89 87 84 78 77 75 71 72 72 71 70 67 70 70 77 36 21 17 63 57 55 30 13 11 10 10 9 8 8 11 10 10 9 8 11 13 11 11 10 11 9 9 10 12 13
92 90 86 80 79 77 72 72 73 72 71 67 68 71 42 21 15 23 61 49 24 17 11 9 10 10 10 8 7 8 9 7 6 9 11 10 10 10 9 7 7 7 11 12 11
92 91 88 85 83 79 74 73 75 74 72 67 68 76 29 31 8 8 12 17 14 12 9 8 7 7 9 9 10 9 9 10 8 9 8 10 9 8 7 7 9 9 9 9 9
93 92 90 88 85 83 75 74 75 75 71 66 68 40 31 27 11 10 12 9 10 9 10 10 11 14 10 11 9 10 11 8 7 6 7 9 11 10 7 8 11 9 8 8 8
94 94 94 91 89 86 80 76 76 73 68 75 72 35 37 13 10 10 9 10 10 9 11 10 11 12 12 10 12 11 12 13 8 9 8 11 13 6 8 9 9 8 8 8 7
96 96 96 94 92 85 80 75 73 66 74 72 59 41 32 25 13 12 10 9 10 12 13 11 12 13 12 17 15 12 14 14 9 8 9 10 11 7 7 9 9 9 9 8 8
96 96 96 95 93 89 80 70 61 74 62 38 33 44 24 12 15 12 14 10 11 14 15 16 13 14 14 14 17 15 12 10 11 8 8 10 10 8 7 7 10 9 8 8 8
96 96 97 95 92 83 75 47 49 51 42 37 28 26 15 15 16 12 17 18 12 13 18 14 16 17 14 13 12 14 15 14 10 8 9 12 12 9 7 6 7 6 6 7 14
97 98 96 93 87 82 64 55 33 35 46 29 26 23 18 15 20 14 11 15 18 18 15 16 22 16 11 12 15 17 15 13 10 9 11 13 12 7 7 7 6 7 8 22 28
98 97 95 91 85 72 53 35 26 24 41 34 26 24 21 17 21 14 13 14 14 17 16 17 16 12 14 14 17 16 15 15 14 12 10 10 11 9 7 7 8 21 26 26 30
97 96 93 88 85 56 45 29 29 36 66 35 24 17 16 17 20 12 8 15 14 16 14 14 11 13 13 16 14 17 11 13 14 15 17 12 19 14 11 9 15 25 33 36 36
98 94 88 80 68 54 40 32 38 44 74 22 17 11 14 15 14 14 9 10 14 14 15 17 13 17 17 14 13 18 14 16 17 18 20 16 17 14 11 11 22 36 39 39 36
96 91 86 75 60 49 40 43 53 71 71 28 19 22 20 14 14 12 13 12 12 14 14 16 13 14 14 13 14 14 17 19 20 21 30 20 18 16 24 45 40 40 41 40 39
94 89 83 56 80 50 54 52 90 72 23 25 23 20 19 20 18 16 18 20 19 26 26 17 16 14 17 19 16 20 25 36 37 32 31 17 17 16 37 41 46 46 44 43 44
93 88 82 74 65 64 69 82 96 32 30 18 19 19 24 20 19 19 19 19 17 19 22 29 36 17 16 22 18 17 23 34 39 33 24 12 20 26 36 35 39 44 46 49 51
93 97 91 91 82 68 86 98 55 38 25 22 19 24 25 22 23 22 24 21 17 20 30 25 21 16 21 18 20 21 25 20 33 30 36 22 15 30 40 46 47 52 51 58 58
96 96 97 87 84 90 98 87 50 30 21 18 27 24 28 24 27 25 24 19 20 21 20 26 36 16 16 20 21 26 17 39 38 60 48 25 21 68 91 73 64 68 62 62 64
93 98 97 88 84 98 96 57 40 22 18 23 24 24 24 25 23 25 21 20 23 24 21 19 33 26 22 25 26 23 35 31 30 45 57 58 86 92 93 89 84 65 57 73 73
96 99 97 89 98 99 75 51 48 24 18 20 23 22 25 23 25 24 26 20 21 22 33 25 42 43 26 17 19 22 27 32 58 48 53 47 70 69 82 79 66 64 63 52 66
98 100 97 94 98 80 51 46 34 26 21 23 25 23 21 25 32 25 30 30 30 31 31 33 40 51 38 37 39 51 39 28 43 61 67 84 82 69 77 64 64 72 62 61 63
99 98 100 100 96 65 59 51 40 25 23 22 23 23 28 27 28 36 33 39 37 33 49 44 54 68 52 59 42 53 45 44 48 68 53 65 98 89 86 75 69 77 78 76 70
99 88 64 96 96 72 58 47 42 35 23 23 29 29 28 36 32 39 32 42 47 49 45 48 62 71 54 39 36 47 55 52 80 64 89 88 83 88 90 80 85 85 81 78 79
99 74 52 53 65 76 70 53 45 34 35 33 33 29 29 36 33 36 34 46 61 39 47 44 69 80 79 48 52 76 70 60 85 86 86 88 87 84 74 75 80 84 85 82 82
80 51 48 60 66 72 66 50 44 43 34 26 32 34 37 32 25 25 26 34 39 53 54 69 92 89 84 48 60 89 94 84 92 74 85 83 80 78 80 75 86 83 84 86 84

GFSSW_sfc_rhum_120.txt.gz
RH
83 79 77 75 73 70 73 72 72 72 71 70 71 74 73 79 75 23 21 23 24 58 49 15 11 11 10 11 12 11 19 18 14 13 11 9 10 9 9 11 12 12 12 14 13
84 81 78 77 76 72 74 71 73 72 71 71 70 72 78 80 47 25 43 55 43 53 10 12 10 9 11 10 10 13 18 16 11 9 10 10 11 10 10 11 12 13 13 12 11
88 84 81 79 78 75 74 71 72 72 71 71 70 72 77 66 37 23 63 50 49 40 17 11 9 9 10 9 9 11 15 12 11 10 8 10 11 10 11 13 14 15 15 13 14
91 89 87 84 80 78 76 73 72 71 70 71 68 70 76 49 27 24 64 59 54 32 19 11 10 11 11 10 7 11 10 10 9 7 9 10 10 11 11 13 10 9 10 14 16
93 92 90 86 83 83 80 74 73 72 72 71 67 69 52 33 23 28 66 52 24 18 12 9 10 10 12 10 9 9 8 7 7 8 7 8 9 10 9 8 7 6 8 17 13
95 94 91 89 85 85 83 76 74 74 73 71 66 72 34 40 10 13 15 17 16 13 10 8 8 7 9 10 10 8 8 8 8 8 7 8 8 8 8 6 6 9 10 10 11
98 98 95 92 88 87 84 79 77 75 73 69 66 46 36 35 16 11 11 9 9 10 10 8 9 13 13 14 9 10 12 10 9 7 7 7 9 10 8 7 8 10 10 10 10
98 98 98 96 92 89 86 83 78 74 71 69 76 44 42 22 12 11 11 11 10 8 9 9 11 13 13 11 11 12 13 16 11 9 7 8 13 10 7 8 9 10 10 10 9
98 98 98 96 96 93 89 83 78 71 65 71 61 48 43 24 14 11 8 9 8 10 11 9 12 15 13 14 18 18 20 16 12 8 8 9 13 9 7 7 9 10 9 9 10
97 98 98 98 96 95 87 76 68 61 56 44 38 47 34 17 12 14 10 12 9 13 15 16 16 16 14 16 22 19 17 15 15 9 9 9 10 8 8 8 10 8 9 10 10
97 98 98 98 95 92 82 63 53 70 50 44 37 33 27 18 15 14 12 15 10 13 21 17 21 22 17 16 15 15 16 16 14 12 12 13 11 9 9 10 10 8 8 10 11
96 97 98 96 94 87 68 70 48 42 59 39 36 32 25 19 24 19 11 21 22 20 16 18 23 16 15 16 16 15 17 19 16 11 12 12 12 10 10 10 9 8 12 25 27
95 97 97 96 89 84 65 53 31 31 49 39 28 26 24 22 27 22 16 16 19 21 22 24 19 14 15 15 16 17 19 20 16 13 11 13 15 13 10 10 9 16 24 30 34
97 98 96 92 90 71 66 45 31 33 56 24 23 23 22 19 24 16 15 15 19 21 18 18 14 15 16 15 15 20 14 14 15 18 21 13 22 16 13 12 12 31 38 37 36
99 96 92 82 71 69 52 37 37 53 58 15 21 12 14 21 14 14 16 12 20 22 18 21 16 15 15 16 15 16 14 17 17 20 22 20 21 19 16 17 43 40 39 38 38
98 93 90 80 67 53 37 47 51 72 67 23 18 18 20 19 14 12 13 12 12 15 14 14 10 13 14 14 14 14 17 18 19 22 34 23 22 21 31 41 44 40 39 42 43
96 92 86 61 75 50 52 65 96 82 21 23 24 21 21 20 16 15 18 19 19 27 27 18 17 13 13 18 17 17 24 40 41 40 40 21 22 50 43 42 44 47 47 47 48
96 92 92 66 49 60 64 85 96 33 33 16 19 19 25 19 18 18 19 21 18 19 22 26 31 19 16 19 23 22 22 38 45 47 38 22 27 45 37 40 46 46 48 50 53
96 99 97 93 62 56 86 100 64 36 24 22 20 23 24 20 21 20 23 22 17 17 28 31 27 14 16 17 19 25 30 19 34 30 42 29 21 44 51 54 52 52 53 59 60
97 97 96 92 81 82 97 91 48 30 29 27 29 24 28 23 27 26 24 20 21 18 20 27 40 21 19 15 18 23 20 43 37 54 53 31 34 86 87 74 66 66 65 62 65
94 99 98 94 95 98 98 81 52 34 32 26 28 26 24 24 22 26 25 20 20 21 20 20 26 27 22 24 23 25 34 32 32 36 55 63 76 94 93 87 79 66 60 72 74
96 100 98 91 100 100 93 57 50 45 34 24 23 25 25 24 25 26 27 23 18 19 28 24 35 47 34 20 16 18 23 28 62 55 39 49 80 72 81 75 63 62 60 60 72
99 100 98 89 98 97 79 59 49 40 30 24 25 25 24 26 34 27 26 31 26 26 33 28 39 52 36 31 22 23 31 32 39 60 63 77 86 71 67 63 65 70 68 66 75
98 99 100 100 94 82 81 65 57 37 32 24 23 24 27 29 25 33 28 36 35 32 44 48 47 65 55 52 45 69 79 44 45 63 54 67 94 82 73 70 73 74 74 79 89
98 86 65 97 93 86 75 54 53 56 29 23 26 27 29 38 31 32 29 44 40 45 39 43 56 66 52 38 32 43 47 39 68 52 73 84 89 84 82 84 89 80 83 83 89
99 58 54 53 64 86 95 88 55 42 33 30 32 27 29 34 30 40 34 38 58 42 49 41 61 76 78 45 46 59 56 46 66 73 84 84 76 74 80 88 83 87 89 89 91
80 44 49 58 64 87 79 68 53 49 34 26 29 33 34 29 26 28 25 26 36 45 55 65 86 74 72 49 55 74 81 79 73 62 61 76 75 82 88 85 90 89 90 91 79

GFSSW_sfc_rhum_123.txt.gz
RH
87 85 83 82 80 79 76 78 79 76 73 72 72 72 74 80 77 41 40 36 38 53 51 16 15 16 18 18 17 23 33 37 27 22 18 13 15 14 12 14 14 16 20 17 18
89 86 82 83 83 82 80 80 79 78 75 74 73 75 76 79 61 44 50 61 55 59 15 13 16 15 18 19 19 23 35 30 21 18 17 12 15 15 15 15 16 18 19 16 15
90 88 86 85 85 84 82 81 80 76 75 76 76 75 76 75 54 32 68 63 61 52 18 21 15 13 19 16 15 18 25 19 15 15 15 15 13 14 16 18 20 19 17 15 19
92 91 89 88 86 85 84 83 80 75 74 73 71 72 76 64 38 40 66 63 64 44 34 25 15 17 18 18 14 17 13 14 13 13 11 12 11 13 14 16 13 11 12 18 18
94 93 92 90 88 86 86 83 80 78 75 73 71 67 68 47 36 40 65 56 36 26 24 15 13 14 15 14 12 14 14 10 11 11 12 11 12 13 13 11 10 9 10 14 19
94 94 94 92 91 89 88 84 81 80 78 73 69 72 54 49 20 34 35 28 23 21 20 14 12 10 13 14 19 14 14 14 12 11 11 11 11 15 12 11 10 9 11 14 17
98 97 98 97 97 95 91 84 81 80 78 73 69 58 47 44 28 25 14 15 12 11 14 13 13 20 19 19 16 14 16 14 14 12 13 11 12 11 10 10 10 10 14 14 13
98 98 98 98 98 97 96 86 87 81 75 70 74 66 56 28 30 16 15 16 14 13 11 12 13 16 23 18 17 17 19 24 15 13 13 12 18 13 11 13 16 15 14 15 16
98 98 99 99 98 97 94 90 85 84 75 73 76 70 61 31 21 18 10 14 13 13 14 9 17 23 20 23 24 23 32 26 21 15 12 14 18 12 12 12 13 13 15 12 14
97 98 98 99 98 96 95 88 80 73 54 44 50 68 48 30 17 17 15 14 17 16 19 21 25 27 26 26 34 27 26 23 22 17 18 18 17 14 12 11 14 16 16 15 39
96 97 98 98 98 96 90 80 69 78 58 62 52 47 34 28 17 18 16 17 21 18 30 26 35 38 27 23 19 20 23 24 20 18 18 18 16 15 13 15 16 15 20 37 41
95 95 97 98 96 91 82 80 61 50 71 50 49 44 35 31 37 25 20 26 30 27 20 28 35 26 21 21 22 26 26 24 20 18 18 18 18 15 15 14 15 21 44 46 44
96 95 98 97 94 90 76 69 40 43 67 49 46 46 44 38 41 34 23 25 27 31 31 32 26 20 21 23 23 23 23 23 23 20 19 20 20 18 15 14 38 40 42 43 47
98 97 98 94 93 82 79 62 49 48 92 47 34 31 30 28 34 21 23 26 26 27 27 29 22 22 22 22 20 25 20 20 22 26 34 22 35 22 17 27 46 45 49 52 51
98 97 93 83 82 83 64 55 56 68 89 23 21 17 22 30 20 19 19 25 32 27 28 33 26 24 24 21 17 25 23 24 25 29 32 24 37 25 20 54 52 50 52 54 53
98 94 92 88 80 75 58 51 59 90 92 30 21 23 25 26 22 16 21 16 18 22 25 25 16 17 20 18 22 20 24 28 31 35 46 27 31 45 65 58 57 55 54 55 58
97 94 93 64 79 54 51 67 95 98 28 26 29 23 26 26 26 21 22 26 26 35 39 25 23 18 15 24 23 26 32 65 68 66 53 27 31 70 58 59 59 63 60 57 63
96 95 94 78 74 62 73 94 99 53 40 28 25 26 31 26 25 23 24 31 24 25 34 40 46 24 21 24 28 31 34 59 64 65 50 28 42 70 56 54 56 57 61 62 68
94 98 99 96 86 74 91 100 79 47 34 30 28 30 33 27 30 27 30 29 25 24 41 40 36 23 20 21 26 38 43 31 46 40 50 41 59 69 59 65 63 63 66 78 80
99 99 98 96 95 93 96 81 70 41 32 33 46 34 37 29 32 32 34 29 28 31 32 43 54 29 25 24 26 29 27 60 70 72 64 50 48 88 89 86 81 74 78 81 84
98 100 99 94 94 100 99 90 59 44 38 39 43 39 32 35 32 38 34 29 31 31 26 29 43 41 31 37 35 37 48 45 51 53 74 82 82 91 94 85 82 71 67 84 90
98 99 99 89 99 100 98 86 59 46 43 47 51 38 42 40 39 42 41 35 25 31 33 42 53 67 46 30 27 29 35 45 77 58 56 63 83 82 89 84 69 64 64 68 84
99 100 98 96 99 99 85 74 67 56 50 64 57 35 35 43 50 41 49 43 38 37 44 45 56 78 62 52 47 65 64 67 66 74 68 94 94 88 84 70 66 72 72 74 78
99 99 100 100 99 90 77 79 77 55 55 61 48 32 41 46 42 46 51 50 48 49 52 56 63 74 67 62 55 63 48 55 78 97 81 86 95 95 76 68 71 78 77 83 85
100 95 86 98 97 94 74 72 76 78 49 50 56 37 42 50 48 48 51 60 53 57 48 58 71 74 67 52 46 58 53 47 72 64 86 89 96 91 82 84 87 83 80 82 86
99 96 81 87 77 95 96 94 78 70 63 47 51 37 38 50 46 49 45 68 67 57 60 59 80 85 88 57 58 70 64 58 66 68 89 93 98 80 81 84 90 90 88 89 90
96 68 70 74 84 94 82 79 82 73 63 43 46 43 47 42 37 40 39 41 54 64 72 74 86 90 90 61 67 84 70 73 68 66 74 90 86 83 89 90 92 90 89 89 81

GFSSW_sfc_rhum_126.txt.gz
RH
88 86 85 84 83 82 81 82 83 79 76 75 76 79 79 78 78 46 38 42 46 53 54 15 16 20 25 25 21 25 33 41 34 29 22 16 15 14 16 16 16 19 19 25 26
90 88 85 86 86 84 83 83 84 82 80 78 79 80 78 77 70 49 51 55 49 55 16 14 19 18 20 23 21 24 36 31 25 25 19 16 18 17 16 17 18 16 18 18 23
91 90 89 88 87 86 85 84 84 80 80 80 79 79 77 77 52 33 67 62 56 49 26 31 27 20 20 18 17 22 24 21 19 18 19 16 14 16 17 20 21 17 16 15 20
92 92 91 90 89 88 86 85 84 79 77 76 73 76 78 68 48 38 64 62 58 42 28 26 17 18 22 20 19 19 15 17 16 14 13 14 12 12 14 16 16 13 14 16 17
94 93 93 91 90 89 87 86 84 82 78 75 73 72 65 47 41 35 62 57 36 30 28 24 17 15 18 15 14 16 16 14 13 13 13 13 14 14 14 11 11 11 11 14 16
95 94 94 93 92 91 89 88 85 82 80 75 71 76 49 59 28 30 40 33 30 27 25 23 16 15 16 18 24 19 17 15 14 14 16 14 14 16 12 12 10 11 12 12 18
97 97 98 96 95 93 93 92 88 81 80 75 72 66 52 52 33 30 28 18 17 16 15 15 15 19 21 22 20 17 17 16 14 15 15 15 17 14 10 13 12 13 12 17 48
99 99 98 98 97 97 96 95 87 86 82 75 69 73 61 34 39 31 20 17 16 16 17 14 14 20 25 20 19 20 24 26 16 17 14 15 24 14 13 13 16 16 15 36 46
97 99 99 99 99 98 97 95 89 85 84 79 76 73 71 43 25 25 21 17 18 16 16 11 20 25 21 28 28 26 30 27 23 19 17 17 19 14 13 13 13 18 18 46 48
97 98 98 99 99 99 97 92 84 78 61 48 54 73 57 40 24 16 19 13 16 20 22 26 28 29 31 30 36 30 30 34 29 19 22 24 24 17 15 14 18 17 40 49 50
96 96 97 98 99 98 95 91 76 70 64 68 62 55 37 30 18 20 18 18 23 25 30 31 34 40 33 28 24 24 26 28 26 19 23 24 28 20 15 23 41 51 52 51 50
95 94 96 97 98 93 87 86 64 50 76 57 55 54 42 38 46 34 20 26 30 32 24 30 40 29 27 27 29 30 32 32 24 20 21 25 21 21 26 52 52 54 56 56 55
96 96 95 99 96 93 84 77 45 41 66 56 50 53 52 47 53 47 31 30 34 41 37 31 27 24 25 28 29 28 31 28 29 24 23 25 24 25 36 46 49 53 54 56 59
98 97 99 95 94 85 86 65 58 54 82 58 54 45 46 44 56 40 34 30 31 32 33 34 26 28 29 32 25 29 23 26 26 29 36 25 40 28 44 57 57 58 63 66 65
92 99 96 85 89 91 78 70 65 62 59 24 34 27 35 46 26 24 25 31 40 31 31 38 34 32 29 25 23 28 27 27 31 34 36 34 38 31 50 66 68 64 62 68 68
96 97 95 92 89 80 63 65 60 86 86 44 25 26 33 29 22 19 25 19 22 30 28 30 27 22 22 20 21 22 28 33 36 38 49 32 35 39 78 70 69 65 64 67 67
97 96 94 74 92 66 72 83 96 95 40 38 31 28 32 34 30 22 23 26 29 34 39 30 26 20 20 25 25 27 37 62 63 67 58 34 40 78 71 67 69 72 73 72 72
94 96 94 86 90 69 90 96 99 64 56 32 29 30 34 30 30 30 27 31 27 30 39 43 45 29 26 29 30 32 39 59 65 70 59 35 47 85 64 61 63 67 74 76 83
91 99 100 97 93 94 92 100 84 62 42 39 31 38 39 33 32 31 33 34 27 27 40 46 39 28 22 24 30 40 44 35 49 52 62 50 88 66 66 74 74 71 76 86 90
99 99 98 96 93 94 98 88 87 49 40 42 54 40 47 38 39 35 37 32 29 31 32 43 54 35 27 26 28 32 29 53 71 66 63 53 57 92 94 85 74 81 90 94 90
98 100 98 95 92 99 99 98 66 46 45 54 57 57 44 40 34 42 40 33 37 34 30 32 46 44 34 36 36 40 47 48 53 59 68 80 82 90 92 92 90 79 81 94 95
99 100 99 91 100 100 98 89 67 58 50 52 56 55 45 46 42 44 44 41 32 33 33 41 56 61 44 35 32 38 44 51 70 56 60 58 71 84 90 89 79 73 68 70 85
100 100 98 96 99 98 94 73 69 64 56 58 65 57 50 49 51 49 48 49 43 42 45 44 58 74 55 52 56 62 67 67 74 75 68 79 82 88 91 80 75 80 76 80 78
99 99 100 100 98 79 83 81 78 64 66 60 66 63 55 46 47 52 55 54 56 55 59 57 63 70 58 54 63 68 55 51 78 99 80 87 86 96 89 75 74 78 87 96 96
100 96 90 97 98 88 76 72 78 75 63 62 71 71 58 57 59 56 65 64 57 55 50 60 63 79 70 57 55 62 63 56 71 57 92 83 87 90 87 85 79 92 91 88 90
100 99 92 94 77 92 84 81 73 68 72 70 75 69 65 59 49 62 65 67 64 62 62 62 76 88 86 57 66 74 62 59 68 70 85 92 95 88 89 90 92 90 91 91 80
94 96 79 86 85 92 84 73 81 79 75 57 70 66 56 46 43 42 48 56 58 68 72 76 84 91 88 64 73 89 79 75 80 67 60 78 78 93 94 85 92 92 90 86 77